[[{"header":{"parameterUnit":"m.s-1","parameterCategory":1,"la1":30.6,"la2":29.2853,"lo1":-89.7004,"lo2":-87.6739,"dy":0.0162,"dx":0.0183,"nx":112,"ny":82,"refTime":"2024-05-23T12:00:00:Z","depth":0,"parameterNumber":2,"parameterNumberName":"U-component_of_WINDS"},"data":[0.0,0.0,0.0,0.0,0.0,0.0,0.0,0.0,0.0,0.0,0.0,0.0,0.0,0.0,0.0,0.0,0.0,0.0,0.0,0.0,0.0,0.0,0.0,0.0,0.0,0.0,0.0,0.0,0.0,0.0,0.0,0.0,0.0,0.0,0.0,0.0,0.0,0.0,0.0,0.0,0.0,0.0,0.0,0.0,0.0,0.0,0.0,0.0,0.0,0.0,0.0,0.0,0.0,0.0,0.0,0.0,0.0,0.0,0.0,0.0,0.0,0.0,0.0,0.0,0.0,0.0,0.0,0.0,0.0,0.0,0.0,0.0,0.0,0.0,0.0,0.0,0.0,0.0,0.0,0.0,0.0,0.0,0.0,0.0,0.0,0.0,0.0,0.0,0.0,0.0,-5.5074,-5.9099,-6.1264,-6.2381,-6.2381,-6.2279,-6.0351,-5.5987,0.0,0.0,0.0,0.0,0.0,0.0,0.0,0.0,0.0,0.0,0.0,0.0,0.0,0.0,0.0,0.0,0.0,0.0,0.0,0.0,0.0,0.0,0.0,0.0,0.0,0.0,0.0,0.0,0.0,0.0,0.0,0.0,0.0,0.0,0.0,0.0,0.0,0.0,0.0,0.0,0.0,0.0,0.0,0.0,0.0,0.0,0.0,0.0,0.0,0.0,0.0,0.0,0.0,0.0,0.0,0.0,0.0,0.0,0.0,0.0,0.0,0.0,0.0,0.0,0.0,0.0,0.0,0.0,0.0,0.0,0.0,0.0,0.0,0.0,0.0,0.0,0.0,0.0,0.0,0.0,0.0,0.0,0.0,0.0,0.0,0.0,0.0,0.0,0.0,0.0,0.0,0.0,0.0,0.0,0.0,0.0,0.0,0.0,0.0,0.0,0.0,0.0,0.0,0.0,-5.5649,-6.1264,-6.2178,-6.2381,-6.2381,-6.1839,-5.981,-5.5918,0.0,0.0,0.0,0.0,0.0,0.0,0.0,0.0,0.0,0.0,0.0,0.0,0.0,0.0,0.0,0.0,0.0,0.0,0.0,0.0,0.0,0.0,0.0,0.0,0.0,0.0,0.0,0.0,0.0,0.0,0.0,0.0,0.0,0.0,0.0,0.0,0.0,0.0,0.0,0.0,0.0,0.0,0.0,0.0,0.0,0.0,0.0,0.0,0.0,0.0,0.0,0.0,0.0,0.0,0.0,0.0,0.0,0.0,0.0,0.0,0.0,0.0,0.0,0.0,0.0,0.0,0.0,0.0,0.0,0.0,0.0,0.0,0.0,0.0,0.0,0.0,0.0,0.0,0.0,0.0,0.0,0.0,0.0,0.0,0.0,0.0,0.0,0.0,0.0,0.0,0.0,0.0,0.0,0.0,0.0,0.0,0.0,0.0,0.0,0.0,0.0,0.0,0.0,-5.4025,-5.7137,-6.1873,-6.2381,-6.2381,-6.2381,-6.1704,-5.9708,-5.5918,-5.3923,0.0,0.0,0.0,0.0,0.0,0.0,0.0,0.0,0.0,0.0,0.0,0.0,0.0,0.0,0.0,0.0,0.0,0.0,0.0,0.0,0.0,0.0,0.0,0.0,0.0,0.0,0.0,0.0,0.0,0.0,0.0,0.0,0.0,0.0,0.0,0.0,0.0,0.0,0.0,0.0,0.0,0.0,0.0,0.0,0.0,0.0,0.0,0.0,0.0,0.0,0.0,0.0,0.0,0.0,0.0,0.0,0.0,0.0,0.0,0.0,0.0,0.0,0.0,0.0,0.0,0.0,0.0,0.0,0.0,0.0,0.0,0.0,0.0,0.0,0.0,0.0,0.0,0.0,0.0,0.0,0.0,0.0,0.0,0.0,0.0,0.0,0.0,0.0,0.0,0.0,0.0,0.0,0.0,0.0,0.0,0.0,0.0,0.0,0.0,0.0,0.0,0.0,-5.663,-5.8423,-6.2009,-6.2381,-6.2381,-6.2381,-6.1231,-5.9066,-5.5649,-5.2842,0.0,0.0,0.0,0.0,0.0,0.0,0.0,0.0,0.0,0.0,0.0,0.0,0.0,0.0,0.0,0.0,0.0,0.0,0.0,0.0,0.0,0.0,0.0,0.0,0.0,0.0,0.0,0.0,0.0,0.0,0.0,0.0,0.0,0.0,0.0,0.0,0.0,0.0,0.0,0.0,0.0,0.0,0.0,0.0,0.0,0.0,0.0,0.0,0.0,0.0,0.0,0.0,0.0,0.0,0.0,0.0,0.0,0.0,0.0,0.0,0.0,0.0,0.0,0.0,0.0,0.0,0.0,0.0,0.0,0.0,0.0,0.0,0.0,0.0,0.0,0.0,0.0,0.0,0.0,0.0,0.0,0.0,0.0,0.0,0.0,0.0,0.0,0.0,0.0,0.0,0.0,0.0,0.0,0.0,0.0,0.0,0.0,0.0,0.0,0.0,0.0,0.0,-5.6122,-5.8998,-6.2042,-6.2381,-6.2381,-6.2381,-5.9776,-5.7137,-5.4803,-5.0693,0.0,0.0,0.0,0.0,0.0,0.0,0.0,0.0,0.0,0.0,0.0,0.0,0.0,0.0,0.0,0.0,0.0,0.0,0.0,0.0,0.0,0.0,0.0,0.0,0.0,0.0,0.0,0.0,0.0,0.0,0.0,0.0,0.0,0.0,0.0,0.0,0.0,0.0,0.0,0.0,0.0,0.0,0.0,0.0,0.0,0.0,0.0,0.0,0.0,0.0,0.0,0.0,0.0,0.0,0.0,0.0,0.0,0.0,0.0,0.0,0.0,0.0,0.0,0.0,0.0,0.0,0.0,0.0,0.0,0.0,0.0,0.0,0.0,0.0,0.0,0.0,0.0,0.0,0.0,0.0,0.0,0.0,0.0,0.0,0.0,0.0,0.0,0.0,0.0,0.0,0.0,0.0,0.0,0.0,0.0,0.0,0.0,0.0,0.0,0.0,0.0,0.0,-5.5683,-5.8558,-6.2009,-6.1975,-6.1704,-6.1704,-5.937,-5.6934,-5.4735,0.0,0.0,0.0,0.0,0.0,0.0,0.0,0.0,0.0,0.0,0.0,0.0,0.0,0.0,0.0,0.0,0.0,0.0,0.0,0.0,0.0,0.0,0.0,0.0,0.0,0.0,0.0,0.0,0.0,0.0,0.0,0.0,0.0,0.0,0.0,0.0,0.0,0.0,0.0,0.0,0.0,0.0,0.0,0.0,0.0,0.0,0.0,0.0,0.0,0.0,0.0,0.0,0.0,0.0,0.0,0.0,0.0,0.0,0.0,0.0,0.0,0.0,0.0,0.0,0.0,0.0,0.0,0.0,0.0,0.0,0.0,0.0,0.0,0.0,0.0,0.0,0.0,0.0,0.0,0.0,0.0,0.0,0.0,0.0,0.0,0.0,0.0,0.0,0.0,0.0,0.0,0.0,0.0,0.0,0.0,0.0,0.0,0.0,0.0,0.0,0.0,0.0,-5.2503,-5.5277,-5.8051,-6.1298,-6.1231,-6.0926,-6.0926,-5.8167,-5.5633,-5.3683,0.0,0.0,0.0,0.0,0.0,0.0,0.0,0.0,0.0,0.0,0.0,0.0,0.0,0.0,0.0,0.0,0.0,0.0,0.0,0.0,0.0,0.0,0.0,0.0,0.0,0.0,0.0,0.0,0.0,0.0,0.0,0.0,0.0,0.0,0.0,0.0,0.0,0.0,0.0,0.0,0.0,0.0,0.0,0.0,0.0,0.0,0.0,0.0,0.0,0.0,0.0,0.0,0.0,0.0,0.0,0.0,0.0,0.0,0.0,0.0,0.0,0.0,0.0,0.0,0.0,0.0,0.0,0.0,0.0,0.0,0.0,0.0,0.0,0.0,0.0,0.0,0.0,0.0,0.0,0.0,0.0,0.0,0.0,0.0,0.0,0.0,0.0,0.0,0.0,0.0,0.0,0.0,0.0,0.0,0.0,0.0,0.0,0.0,0.0,0.0,0.0,0.0,-5.1826,-5.4938,-5.7645,-5.9844,-6.008,-6.008,-6.008,-5.601,-5.281,0.0,0.0,0.0,0.0,0.0,0.0,0.0,0.0,0.0,0.0,0.0,0.0,0.0,0.0,0.0,0.0,0.0,0.0,0.0,0.0,0.0,0.0,0.0,0.0,0.0,0.0,0.0,0.0,0.0,0.0,0.0,0.0,0.0,0.0,0.0,0.0,0.0,0.0,0.0,0.0,0.0,0.0,0.0,0.0,0.0,0.0,0.0,0.0,0.0,0.0,0.0,0.0,0.0,0.0,0.0,0.0,0.0,0.0,0.0,0.0,0.0,0.0,0.0,0.0,0.0,0.0,0.0,0.0,0.0,0.0,0.0,0.0,0.0,0.0,0.0,0.0,0.0,0.0,0.0,0.0,0.0,0.0,0.0,0.0,0.0,0.0,0.0,0.0,0.0,0.0,0.0,0.0,0.0,0.0,0.0,0.0,0.0,0.0,0.0,0.0,0.0,0.0,0.0,-5.1894,-5.5378,-5.822,-5.9911,-5.9641,-5.9336,-5.9336,-5.6178,-5.3144,-5.0757,0.0,0.0,0.0,0.0,0.0,0.0,0.0,0.0,0.0,0.0,0.0,0.0,0.0,0.0,0.0,0.0,0.0,0.0,0.0,0.0,0.0,0.0,0.0,0.0,0.0,0.0,0.0,0.0,0.0,0.0,0.0,0.0,0.0,0.0,0.0,0.0,0.0,0.0,0.0,0.0,0.0,0.0,0.0,0.0,0.0,0.0,0.0,0.0,0.0,0.0,0.0,0.0,0.0,0.0,0.0,0.0,0.0,0.0,0.0,0.0,0.0,0.0,0.0,0.0,0.0,0.0,0.0,0.0,0.0,0.0,0.0,0.0,0.0,0.0,0.0,0.0,0.0,0.0,0.0,0.0,0.0,0.0,0.0,0.0,0.0,0.0,0.0,0.0,0.0,0.0,0.0,0.0,0.0,0.0,0.0,0.0,0.0,0.0,0.0,0.0,0.0,0.0,-5.1488,-5.4871,-5.7577,-5.9066,-5.8829,-5.841,-5.8077,-5.5558,-5.2692,-4.9559,0.0,0.0,0.0,0.0,0.0,0.0,0.0,0.0,0.0,0.0,0.0,0.0,0.0,0.0,0.0,0.0,0.0,0.0,0.0,0.0,0.0,0.0,0.0,0.0,0.0,0.0,0.0,0.0,0.0,0.0,0.0,0.0,0.0,0.0,0.0,0.0,0.0,0.0,0.0,0.0,0.0,0.0,0.0,0.0,0.0,0.0,0.0,0.0,0.0,0.0,0.0,0.0,0.0,0.0,0.0,0.0,0.0,0.0,0.0,0.0,0.0,0.0,0.0,0.0,0.0,0.0,0.0,0.0,0.0,0.0,0.0,0.0,0.0,0.0,0.0,0.0,0.0,0.0,0.0,0.0,0.0,0.0,0.0,0.0,0.0,0.0,0.0,0.0,0.0,0.0,0.0,0.0,0.0,0.0,0.0,0.0,0.0,0.0,0.0,0.0,0.0,0.0,-5.0813,-5.3822,-5.6292,-5.7712,-5.7881,-5.7554,-5.6652,-5.4567,-5.1785,-4.813,0.0,0.0,0.0,0.0,0.0,0.0,0.0,0.0,0.0,0.0,0.0,0.0,0.0,0.0,0.0,0.0,0.0,0.0,0.0,0.0,0.0,0.0,0.0,0.0,0.0,0.0,0.0,0.0,0.0,0.0,0.0,0.0,0.0,0.0,0.0,0.0,0.0,0.0,0.0,0.0,0.0,0.0,0.0,0.0,0.0,0.0,0.0,0.0,0.0,0.0,0.0,0.0,0.0,0.0,0.0,0.0,0.0,0.0,0.0,0.0,-5.5611,-5.4326,0.0,0.0,0.0,0.0,0.0,0.0,0.0,0.0,0.0,0.0,0.0,0.0,0.0,0.0,0.0,0.0,0.0,0.0,0.0,0.0,0.0,0.0,0.0,0.0,0.0,0.0,0.0,0.0,0.0,0.0,0.0,0.0,0.0,0.0,0.0,0.0,0.0,0.0,0.0,0.0,-5.0813,-5.3822,-5.6292,-5.7712,-5.7881,-5.7554,-5.6652,-5.4567,-5.1785,-4.813,-4.5036,0.0,0.0,0.0,0.0,0.0,0.0,0.0,0.0,0.0,0.0,0.0,0.0,0.0,0.0,0.0,0.0,0.0,0.0,0.0,0.0,0.0,0.0,0.0,0.0,0.0,0.0,0.0,0.0,0.0,0.0,0.0,0.0,0.0,0.0,0.0,0.0,0.0,0.0,0.0,0.0,0.0,0.0,0.0,0.0,0.0,0.0,0.0,0.0,0.0,0.0,0.0,0.0,0.0,0.0,0.0,0.0,0.0,0.0,0.0,-5.8547,-5.7299,0.0,0.0,0.0,0.0,0.0,0.0,0.0,0.0,0.0,0.0,0.0,0.0,0.0,0.0,0.0,0.0,0.0,0.0,0.0,0.0,0.0,0.0,0.0,0.0,0.0,0.0,0.0,0.0,0.0,0.0,0.0,0.0,0.0,0.0,0.0,0.0,0.0,0.0,0.0,0.0,-5.0338,-5.2976,-5.5015,-5.6157,-5.5925,-5.5325,-5.4468,-5.3028,-5.0929,-4.795,-4.5425,0.0,0.0,0.0,0.0,0.0,0.0,0.0,0.0,0.0,0.0,0.0,0.0,0.0,0.0,0.0,0.0,0.0,0.0,0.0,0.0,0.0,0.0,0.0,0.0,0.0,0.0,0.0,0.0,0.0,0.0,0.0,0.0,0.0,0.0,0.0,0.0,0.0,0.0,0.0,0.0,0.0,0.0,0.0,0.0,0.0,0.0,0.0,0.0,0.0,0.0,0.0,0.0,0.0,-6.0835,-6.097,-6.0713,-6.1667,-6.2438,-6.3025,-6.2365,-6.1153,-5.9575,-5.8767,0.0,0.0,0.0,0.0,0.0,0.0,0.0,0.0,0.0,0.0,0.0,0.0,0.0,0.0,0.0,0.0,0.0,0.0,0.0,0.0,0.0,0.0,-5.1826,-5.1961,-5.2976,-5.2672,-4.8206,0.0,0.0,0.0,0.0,0.0,0.0,0.0,0.0,0.0,0.0,0.0,-4.9841,-5.2028,-5.3632,-5.425,-5.3678,-5.2971,-5.2077,-5.1363,-5.0053,-4.7906,-4.5865,-4.3648,0.0,0.0,0.0,0.0,0.0,0.0,0.0,0.0,0.0,0.0,0.0,0.0,0.0,0.0,0.0,0.0,0.0,0.0,0.0,0.0,0.0,0.0,0.0,0.0,0.0,0.0,0.0,0.0,0.0,0.0,0.0,0.0,-5.0777,-5.2011,0.0,0.0,0.0,0.0,0.0,0.0,0.0,0.0,0.0,0.0,0.0,0.0,0.0,-6.2561,-6.3282,-6.5485,-6.5888,-6.453,-6.732,-6.7907,-6.6623,-6.8128,-6.8862,-6.8972,-6.8862,0.0,-6.1227,-6.0419,0.0,0.0,0.0,0.0,0.0,0.0,0.0,0.0,0.0,0.0,0.0,0.0,0.0,0.0,0.0,0.0,0.0,0.0,0.0,0.0,0.0,0.0,-5.4296,-5.4972,-5.5242,-5.5074,-5.3721,-5.1014,-4.8545,-4.75,-4.638,-4.5263,0.0,0.0,0.0,0.0,0.0,0.0,-4.9892,-5.1978,-5.3412,-5.3459,-5.337,-5.2971,-5.2077,-5.1363,-5.0272,-4.8584,-4.6573,-4.4756,-4.3254,-4.0724,0.0,0.0,0.0,0.0,0.0,0.0,0.0,0.0,0.0,0.0,0.0,0.0,0.0,0.0,0.0,0.0,0.0,0.0,0.0,0.0,0.0,0.0,0.0,0.0,0.0,0.0,0.0,0.0,0.0,-5.1297,-5.3103,-5.3139,-5.5025,-5.6177,0.0,0.0,0.0,0.0,0.0,0.0,0.0,0.0,0.0,-6.2086,-6.4537,-6.5987,-6.6135,-6.7173,-6.7357,-6.6659,-6.8091,-6.8385,-6.7724,-6.8898,-6.9449,-6.9412,-6.8935,-6.7063,-6.431,-6.398,-6.2328,-5.9942,0.0,0.0,0.0,0.0,-5.5004,-5.4174,-5.4528,-5.4363,-5.3888,-5.3415,0.0,0.0,0.0,0.0,0.0,0.0,0.0,-5.2672,-5.3416,-5.4397,-5.5412,-5.6156,-5.663,-5.6833,-5.6494,-5.4837,-5.2672,-5.0204,-4.9593,-4.8646,-4.6244,-4.5466,0.0,0.0,0.0,-4.8759,-4.9855,-5.0823,-5.1424,-5.1396,-5.0953,-5.0511,-5.0092,-4.9842,-4.9326,-4.8635,-4.7065,-4.5711,-4.4764,-4.2479,-4.0755,0.0,0.0,0.0,0.0,0.0,0.0,0.0,0.0,0.0,0.0,0.0,0.0,0.0,0.0,0.0,0.0,0.0,0.0,0.0,0.0,0.0,0.0,0.0,0.0,0.0,0.0,0.0,0.0,-5.3661,-5.539,-5.4646,-5.7382,-5.8873,0.0,0.0,0.0,0.0,0.0,0.0,-6.3273,-6.457,-6.5142,-6.4805,-6.758,-6.8915,-6.8605,-6.8825,-6.8935,-6.8935,-6.8935,-6.8935,-6.8935,-6.9559,-6.9816,-6.9779,-6.8972,-6.8274,-6.7687,-6.7063,-6.5118,-6.2475,-6.1887,-6.0304,-5.8287,-5.8025,-5.7153,-5.6213,-5.7224,-5.7216,-5.667,-5.6598,-5.5006,-5.3112,-5.2739,0.0,0.0,0.0,0.0,-5.4228,-5.4972,-5.5581,-5.619,-5.69,-5.7476,-5.7881,-5.7881,-5.7476,-5.6156,-5.2976,-5.2638,-5.1894,-4.8748,-4.7767,0.0,-4.7591,-4.8194,-4.8891,-4.9597,-4.9871,-4.9892,-4.959,-4.9015,-4.8604,-4.8604,-4.8378,-4.8286,-4.8286,-4.7065,-4.6111,-4.5618,-4.3833,-4.2355,-4.1309,0.0,0.0,0.0,0.0,0.0,0.0,0.0,0.0,0.0,0.0,0.0,0.0,0.0,0.0,0.0,0.0,0.0,0.0,0.0,0.0,0.0,0.0,0.0,0.0,0.0,0.0,0.0,0.0,0.0,-5.7179,-6.0768,0.0,0.0,0.0,0.0,-6.3938,-6.4711,-6.5496,-6.6257,-6.7846,-6.8707,-6.8622,-7.0284,-7.1138,-7.1109,-7.1872,-7.2275,-7.2275,-7.2275,-7.2275,-7.2275,-7.2312,-7.2312,-7.2275,-7.1468,-7.1101,-7.0881,-6.8568,-6.6623,-6.5118,-6.5081,-6.4505,-6.3419,-6.1075,-6.0618,-6.0935,-5.945,-5.8896,-5.8829,-5.8863,-5.734,-5.5683,-5.6325,-5.5547,0.0,0.0,-5.5006,-5.5784,-5.6494,-5.6731,-5.6934,-5.7645,-5.7848,-5.7881,-5.7881,-5.7848,-5.7374,-5.5784,-5.4938,-5.3957,-5.23,0.0,-5.1495,-5.0057,-5.0451,-5.0418,-4.8961,-4.967,-4.9859,-4.88,-4.8604,-4.8604,-4.8604,-4.7845,-4.7374,-4.7374,-4.6287,-4.5618,-4.5588,-4.4302,-4.3531,-4.347,-4.0677,0.0,0.0,0.0,0.0,0.0,0.0,0.0,0.0,0.0,0.0,0.0,0.0,0.0,0.0,0.0,0.0,0.0,0.0,0.0,0.0,0.0,0.0,0.0,0.0,0.0,0.0,0.0,0.0,-5.9533,-6.248,0.0,-6.3664,-6.5346,-6.6933,-6.811,-6.8429,-6.8915,-6.9691,-7.0499,-7.077,-7.044,-7.1505,-7.2092,-7.2092,-7.1835,-7.1725,-7.1725,-7.1725,-7.1725,-7.1725,-7.1725,-7.1725,-7.1688,-7.0881,-7.022,-6.9743,-6.9376,-6.8311,-6.6769,-6.615,-6.5157,-6.3914,-6.2328,-6.1631,-6.1354,-6.0106,-5.9708,-5.9539,-5.8592,-5.7746,-5.7002,-5.6325,-5.6055,-5.6021,-5.6021,-5.6562,-5.7171,-5.7442,-5.7509,-5.7577,-5.7814,-5.7881,-5.7881,-5.7881,-5.7881,-5.7746,-5.7205,-5.6528,-5.5373,-5.33,-5.2596,-5.1916,-5.0798,-5.0057,-4.9597,-4.9465,-4.9296,-4.9037,-4.8646,-4.8604,-4.8604,-4.8604,-4.8327,-4.813,-4.813,-4.6661,-4.5788,-4.5788,-4.4795,-4.4055,-4.3624,-4.1628,-3.9703,0.0,0.0,0.0,0.0,0.0,0.0,0.0,0.0,0.0,0.0,0.0,0.0,0.0,0.0,0.0,0.0,0.0,0.0,0.0,0.0,0.0,0.0,0.0,0.0,0.0,-5.8146,-6.0503,-6.2449,-6.5086,-6.6776,-6.7063,-6.8811,-7.0337,-7.1205,-7.1331,-7.16,-7.2149,-7.2334,-7.2299,-7.1996,-7.2316,-7.2496,-7.2496,-7.1982,-7.1725,-7.1725,-7.1725,-7.1725,-7.1725,-7.1725,-7.1725,-7.1688,-7.0844,-7.022,-6.9706,-6.9706,-6.9082,-6.8054,-6.7359,-6.651,-6.5474,-6.3892,-6.303,-6.2449,-6.1295,-6.0723,-6.0351,-5.937,-5.8693,-5.8084,-5.7137,-5.7002,-5.7171,-5.7171,-5.7509,-5.7881,-5.7881,-5.7881,-5.7881,-5.7881,-5.7881,-5.7881,-5.7881,-5.7881,-5.7881,-5.7881,-5.7509,-5.648,-5.4406,-5.3662,-5.2877,-5.1394,-5.0242,-4.9474,-4.9466,-4.8973,-4.8604,-4.8604,-4.8604,-4.844,-4.7958,-4.7783,-4.7565,-4.7278,-4.6136,-4.5449,-4.5449,-4.4603,-4.3956,-4.3624,-4.1801,-3.9843,-3.7778,0.0,0.0,0.0,0.0,0.0,0.0,0.0,0.0,0.0,0.0,0.0,0.0,0.0,0.0,0.0,0.0,0.0,0.0,0.0,0.0,0.0,0.0,0.0,-5.7753,-6.1182,-6.4153,-6.5858,-6.8642,-7.0441,-7.0517,-7.2045,-7.3055,-7.3093,-7.3383,-7.3548,-7.3528,-7.3386,-7.3324,-7.3309,-7.277,-7.2496,-7.2532,-7.2496,-7.2496,-7.2496,-7.2496,-7.2496,-7.2496,-7.2496,-7.2496,-7.2459,-7.1688,-7.1293,-7.1211,-6.9596,-6.8908,-6.8871,-6.8834,-6.8761,-6.8304,-6.5871,-6.4902,-6.4496,-6.2966,-6.1941,-6.1332,-6.1298,-6.0283,-5.9032,-5.9032,-5.849,-5.7881,-5.7881,-5.7881,-5.7881,-5.7881,-5.7881,-5.7881,-5.7881,-5.7881,-5.7881,-5.7881,-5.7881,-5.7881,-5.7881,-5.7881,-5.7355,-5.58,-5.5483,-5.4585,-5.1997,-5.1224,0.0,-4.8772,-4.8593,-4.8604,-4.8604,-4.8604,-4.805,-4.6763,-4.6192,-4.5559,-4.4716,-4.4611,-4.461,-4.461,-4.3727,-4.3359,-4.3556,-4.1265,-3.9204,-3.7464,0.0,0.0,0.0,0.0,0.0,0.0,0.0,0.0,0.0,0.0,0.0,0.0,0.0,0.0,0.0,0.0,0.0,0.0,0.0,0.0,0.0,-5.6014,-5.8543,-5.9567,-6.1906,-6.4479,-6.706,-6.9474,-7.1479,-7.3021,-7.38,-7.4391,-7.4757,-7.4524,-7.422,-7.3875,-7.385,-7.3752,-7.359,-7.2876,-7.2789,-7.334,-7.2789,-7.2496,-7.2496,-7.2496,-7.2496,-7.2496,-7.2496,-7.2496,-7.2496,-7.2275,-7.1835,-7.1219,-7.0108,-6.9282,-6.8696,-6.7963,-6.7329,-6.666,-6.522,-6.4006,-6.3076,-6.3148,-6.2719,-6.2009,-6.1467,-6.0622,-5.9708,-5.9167,-5.849,-5.7881,-5.7881,-5.7881,-5.7881,-5.7881,-5.7881,-5.7881,-5.7881,-5.7881,-5.7881,-5.7881,-5.7881,-5.7881,-5.7881,-5.7368,-5.6816,-5.6387,-5.539,-5.3999,-5.2188,-5.1099,-5.0019,-4.8759,-4.8594,-4.8604,-4.8604,-4.8604,-4.844,-4.808,-4.6741,-4.5935,-4.6023,-4.5118,-4.461,-4.461,-4.4174,-4.3716,-4.3175,-4.1917,-4.0523,0.0,0.0,0.0,0.0,0.0,0.0,0.0,0.0,0.0,0.0,0.0,0.0,0.0,0.0,0.0,0.0,0.0,0.0,0.0,0.0,0.0,0.0,-5.8253,-6.0493,-6.13,-6.2896,-6.515,-6.8242,-7.0067,-7.194,-7.42,-7.479,-7.5151,-7.5501,-7.5,-7.4754,-7.4793,-7.4404,-7.4297,-7.4514,-7.386,-7.3744,-7.4184,-7.3413,-7.301,-7.301,-7.2679,-7.2496,-7.2496,-7.2496,-7.2496,-7.2496,-7.2496,-7.2239,-7.1733,-7.0869,-6.9978,0.0,0.0,0.0,0.0,0.0,-6.3385,-6.2448,-6.2888,-6.2753,-6.2313,-6.1907,-6.1231,-6.0452,-5.9708,-5.8964,-5.8287,-5.7983,-5.7881,-5.7881,-5.7881,-5.7881,-5.7881,-5.7881,-5.7881,-5.7881,-5.7881,-5.7881,-5.7881,-5.7881,-5.7218,0.0,-5.6614,-5.5237,-5.3748,-5.2469,-5.1245,-5.0171,-4.9285,-4.8862,-4.8604,-4.8604,-4.8604,-4.8512,-4.8204,-4.7231,0.0,0.0,0.0,-4.4611,-4.4586,-4.4037,0.0,0.0,0.0,0.0,0.0,0.0,0.0,0.0,-4.0876,-4.0846,0.0,0.0,0.0,0.0,0.0,0.0,0.0,0.0,0.0,0.0,0.0,0.0,0.0,0.0,0.0,0.0,-6.0639,-6.2034,-6.2952,-6.4155,-6.6044,-6.9184,-7.0578,-7.2166,-7.4478,-7.5208,-7.5462,-7.5409,-7.4961,-7.5026,-7.5776,-7.4984,0.0,0.0,0.0,-7.4955,-7.5028,-7.4258,-7.378,-7.367,-7.2973,-7.2606,-7.2496,-7.2496,-7.2496,-7.2496,-7.2467,-7.2467,-7.2393,-7.1566,-7.0514,-6.9209,-6.689,-6.5878,-6.5565,-6.4142,-6.3102,-6.2415,-6.2584,0.0,0.0,-6.2381,-6.1907,-6.1163,-6.0351,-5.9573,-5.8863,-5.8084,-5.7881,-5.7881,-5.7881,-5.7881,-5.7881,-5.7881,-5.7881,-5.7881,-5.7881,-5.7881,-5.7881,-5.7881,-5.7218,-5.6575,-5.6459,-5.5108,-5.3724,-5.2839,-5.1596,-5.0511,-5.0006,-4.9192,-4.8604,-4.8604,0.0,0.0,-4.7773,-4.765,-4.6862,-4.5161,-4.4913,-4.4716,-4.4456,-4.3731,-4.2978,-4.2273,-4.2689,-4.3127,-4.3529,-4.4137,-4.4766,-4.5334,-4.2342,-4.1893,0.0,0.0,0.0,0.0,0.0,0.0,0.0,0.0,0.0,0.0,0.0,0.0,0.0,0.0,0.0,-5.9074,-6.1092,-6.3099,-6.4604,-6.5599,-6.6914,-6.9012,-7.1505,-7.3454,-7.4591,-7.5208,-7.53,-7.4903,-7.4766,-7.488,-7.5313,-7.4785,-7.4977,-7.5978,-7.5308,-7.5212,-7.5873,-7.5065,-7.4331,-7.3707,-7.3523,0.0,-7.2496,-7.2496,-7.2496,-7.2496,-7.2416,-7.2358,-7.2255,-7.1185,-6.9084,-6.6483,-6.5459,-6.4937,-6.481,-6.4496,-6.3555,-6.255,-6.3768,-6.3396,-6.2381,-6.2381,-6.1907,-6.1163,-6.0351,-5.9573,0.0,-5.8084,-5.7881,-5.7881,-5.7881,-5.7881,-5.7881,-5.7881,-5.7881,-5.7881,-5.7881,-5.7881,-5.7881,-5.7881,-5.7218,-5.6381,-5.5676,-5.4694,-5.3755,-5.3028,-5.167,-5.0463,-4.982,-4.9088,-4.8604,-4.8604,-4.8604,-4.8573,-4.8419,-4.7927,-4.7669,-4.7831,-4.6902,-4.5523,-4.3636,-4.4519,-4.469,-4.3868,-4.4458,-4.4837,-4.4915,-4.5035,-4.5454,-4.6082,-4.4915,-4.4556,0.0,0.0,0.0,0.0,0.0,0.0,0.0,0.0,0.0,0.0,0.0,-5.6198,-5.6198,0.0,-6.0529,-6.0946,-6.2401,-6.387,-6.5154,-6.6696,-6.8194,-6.9484,-7.1458,-7.3161,-7.4234,-7.4786,-7.498,-7.4725,-7.5084,-7.5334,-7.5421,-7.5623,-7.6032,-7.668,-7.6313,-7.6313,-7.6717,-7.5909,-7.5102,-7.4294,-7.3891,-7.3266,-7.2496,-7.2409,-7.238,-7.238,-7.2204,-7.2144,-7.2005,-7.0221,-6.8518,-6.6871,-6.4918,-6.3898,-6.3489,-6.3509,-6.326,-6.299,-6.3362,-6.326,-6.2888,-6.2516,-6.2144,-6.1637,-6.0452,-5.9844,-5.9336,-5.8186,-5.7881,-5.7881,-5.7881,-5.7881,-5.7881,-5.7881,-5.7881,-5.7881,-5.7881,-5.7881,-5.7881,-5.7881,-5.7218,-5.6459,-5.6034,-5.4902,-5.3765,-5.2981,-5.1785,-5.0716,-4.9939,-4.9136,-4.8591,-4.8593,-4.8604,-4.8604,-4.8604,-4.8276,-4.8265,-4.8553,-4.7835,-4.6783,-4.5385,-4.5413,-4.5289,-4.4959,-4.5166,-4.5454,-4.5813,-4.5813,-4.6172,-4.68,-4.6471,-4.6292,0.0,0.0,0.0,0.0,0.0,0.0,0.0,-5.3555,-5.4179,-5.4304,-5.6822,-5.8877,-5.8731,-6.0676,-6.2475,-6.2989,-6.3906,-6.4897,-6.5852,-6.7834,-6.9486,-7.044,-7.1654,-7.2783,-7.377,-7.4353,-7.4606,-7.4417,-7.5189,-7.5657,-7.5702,-7.6356,-7.6926,-7.7304,-7.7273,-7.7273,-7.7273,-7.668,-7.5946,-7.5139,-7.4301,-7.3494,-7.2695,-7.2365,-7.2233,-7.2233,-7.2024,-7.1854,-7.1508,-6.9209,-6.8073,-6.7525,-6.4634,-6.3045,-6.2415,-6.255,-6.2888,-6.3226,-6.2753,-6.2922,-6.3193,-6.2584,-6.2381,-6.211,-6.0554,-6.0114,-5.9776,-5.8321,-5.7881,-5.7881,-5.7881,-5.7881,-5.7881,-5.7881,-5.7881,-5.7881,-5.7881,-5.7881,-5.7881,-5.7881,-5.7331,-5.6806,-5.6614,-5.5312,-5.3924,-5.2909,-5.1951,-5.1054,-5.0105,-4.9339,-4.8825,-4.8624,-4.8604,-4.8604,-4.8604,-4.8594,-4.8564,-4.849,-4.8131,-4.767,-4.7067,-4.6165,-4.5687,-4.5733,-4.5687,-4.5963,-4.6459,-4.6459,-4.68,-4.7309,-4.7309,-4.7369,-4.7768,-4.8526,-4.961,-5.1336,-5.2344,-5.3518,0.0,-5.6895,-5.7666,-5.8377,-6.0505,-6.2034,-6.1337,-6.3209,-6.4677,-6.4053,-6.5228,-6.6769,-6.8274,-6.9339,-7.0513,-7.2055,-7.3141,-7.3661,-7.339,-7.4154,-7.4331,-7.3516,-7.4185,-7.4953,-7.5649,-7.5998,-7.652,-7.7273,-7.7273,-7.7273,-7.7273,-7.72,-7.679,-7.5946,-7.5025,-7.4159,-7.339,-7.2473,-7.2018,-7.2018,-7.1872,-7.1355,-7.0475,-6.8805,-6.7325,-6.5899,-6.4208,-6.3045,-6.2482,-6.3159,-6.3024,-6.2584,-6.3193,-6.299,-6.2516,-6.2415,-6.2381,-6.211,-6.0554,-6.0114,-5.9776,-5.8321,-5.7881,-5.7881,-5.7881,-5.7881,-5.7881,-5.7881,-5.7881,-5.7881,-5.7881,-5.7881,-5.7881,-5.7881,-5.7808,-5.7517,-5.6729,-5.5796,-5.4677,-5.3207,-5.2219,-5.1221,-5.0148,-4.9889,-4.9508,-4.8696,-4.8604,-4.8604,-4.8604,-4.8604,-4.8418,-4.8076,-4.7836,-4.7262,-4.6172,-4.6766,-4.68,-4.6202,-4.677,-4.713,-4.7189,-4.7189,-4.7249,-4.7309,-4.7309,-4.7608,-4.8043,-4.9627,-5.1153,-5.183,-5.3298,-5.4987,-5.6455,-5.8143,-5.9355,-5.9221,-6.19,-6.3723,-6.1924,-6.4016,-6.5742,-6.4934,-6.6145,-6.7577,-6.8752,-6.9596,-7.033,-7.1027,-7.2129,-7.2957,-7.325,-7.3628,-7.3725,-7.335,-7.4487,-7.5217,-7.5224,-7.6213,-7.6943,-7.7273,-7.7273,-7.7273,-7.7273,-7.6772,-7.6081,-7.5281,-7.4763,-7.383,-7.2625,-7.2619,-7.2278,-7.1713,-7.1656,-7.1158,-7.0237,-6.8273,-6.6811,-6.5619,-6.3621,-6.2659,-6.2415,-6.2753,-6.2956,-6.3024,-6.2888,-6.2956,-6.2956,-6.2516,-6.2381,-6.211,-6.0554,-6.0114,-5.9776,-5.8321,-5.7881,-5.7881,-5.7881,-5.7881,-5.7881,-5.7881,-5.7881,-5.7881,-5.7881,-5.7881,-5.7881,-5.7881,-5.7881,-5.7772,-5.7406,-5.6192,-5.4931,-5.3897,-5.1985,-5.0529,-5.0074,-4.9516,-4.9032,-4.8624,-4.8604,-4.8604,-4.8604,-4.8613,-4.8446,-4.8133,-4.7849,-4.7443,-4.6783,-4.71,-4.7189,-4.689,-4.716,-4.7309,-4.7309,-4.7309,-4.7309,-4.7309,-4.7698,-4.8237,-4.8632,-5.0472,-5.216,-5.2821,-5.4803,-5.6675,-5.7042,-5.8988,-6.0456,-5.9404,-6.1924,-6.3796,-6.2218,-6.4237,-6.6109,-6.5999,-6.732,-6.8568,-6.9155,-6.9926,-7.033,-7.011,-7.0897,-7.1802,-7.2653,-7.3071,-7.3246,-7.3087,-7.4579,-7.5309,-7.4918,-7.643,-7.7273,-7.7273,-7.7243,-7.7138,-7.6949,-7.6172,-7.5384,-7.4616,-7.4431,-7.364,-7.2292,-7.2471,-7.2169,-7.1494,-7.1494,-7.106,-7.0206,-6.7934,-6.6532,-6.5584,-6.3277,-6.2381,-6.2381,-6.2381,-6.2753,-6.3125,-6.2584,-6.2753,-6.3125,-6.255,-6.2381,-6.2144,-6.0825,-6.0283,-5.9844,-5.8558,-5.8051,-5.7881,-5.7881,-5.7881,-5.7881,-5.7881,-5.7881,-5.7881,-5.7881,-5.7881,-5.7881,-5.7881,-5.7881,-5.7881,-5.7881,-5.6619,-5.54,-5.4712,-5.244,-5.0531,-4.9701,-4.9021,-4.8611,-4.8593,-4.8604,-4.8604,-4.8604,-4.8613,-4.8435,-4.8079,-4.7837,-4.7581,-4.7309,-4.7309,-4.7309,-4.7309,-4.7309,-4.7309,-4.7309,-4.7309,-4.7399,-4.7578,-4.8057,-4.8745,-5.0288,-5.1353,-5.2564,-5.4935,-5.7299,-5.8891,-5.8143,-5.9832,-6.1117,-5.9515,-6.0529,-6.1924,-6.2658,-6.4163,-6.5852,-6.7357,-6.8972,-7.0036,-7.0073,-7.077,-7.0991,-7.0183,-7.0138,-7.0468,-7.1248,-7.2536,-7.3061,-7.2553,-7.403,-7.4918,-7.4918,-7.643,-7.7273,-7.7273,-7.7186,-7.6758,-7.5952,-7.5693,-7.5228,-7.4426,-7.4274,-7.3774,-7.2938,-7.1987,-7.1531,-7.1494,-7.1494,-7.106,-7.0206,-6.7934,-6.6532,-6.5584,-6.3277,-6.2381,-6.2381,-6.2381,-6.2415,-6.2415,-6.2381,-6.2415,-6.2415,-6.2381,-6.2381,-6.2245,-6.1501,-6.0723,-5.9945,-5.9201,-5.8457,-5.7881,-5.7881,-5.7881,-5.7881,-5.7881,-5.7881,-5.7881,-5.7881,-5.7881,-5.7881,-5.7881,-5.7881,-5.7881,-5.7881,-5.7181,-5.627,-5.5402,-5.393,-5.1853,-4.8998,-4.8622,-4.8593,-4.8604,-4.8604,-4.8604,-4.8604,-4.8604,-4.8366,-4.777,-4.7698,-4.7588,-4.7309,-4.7309,-4.7309,-4.7309,-4.7309,-4.7309,-4.7309,-4.7309,-4.7638,-4.8267,-4.8267,-4.8985,-5.0802,-5.2564,-5.4604,-5.539,-5.7005,-5.8327,-5.807,-5.9465,-6.0346,-5.8731,-6.0126,-6.152,-6.1263,-6.3466,-6.5852,-6.743,-6.9045,-7.0293,-7.0844,-7.066,-7.022,-6.9412,-6.9779,-7.022,-7.0477,-7.1379,-7.2134,-7.2459,-7.3487,-7.4331,-7.4882,-7.5946,-7.6692,-7.715,-7.7124,-7.6883,-7.6496,-7.5794,-7.5075,-7.4238,-7.2994,-7.2568,-7.2785,-7.1924,-7.1494,-7.1494,-7.1494,-7.077,-6.9446,-6.7722,-6.6181,-6.4813,-6.3072,-6.2381,-6.2381,-6.2381,-6.2381,-6.2381,-6.2381,-6.2381,-6.2381,-6.2381,-6.2381,-6.2245,-6.1535,-6.1129,-6.0723,-5.9945,-5.9539,-5.9235,-5.8761,-5.8626,-5.8524,-5.8017,-5.7881,-5.7881,-5.7881,-5.7881,-5.7881,-5.7881,-5.7881,-5.7881,-5.7881,-5.6729,-5.5271,-5.3793,-5.2741,-5.163,-5.0181,-4.9696,-4.9542,-4.9542,-4.9328,-4.9205,-4.9205,-4.8577,-4.8201,-4.8283,-4.789,-4.7731,-4.7938,-4.7549,-4.7309,-4.7309,-4.7309,-4.7309,-4.7309,-4.7758,-4.8057,-4.8297,-4.9194,-4.9777,-5.1977,-5.3812,-5.5743,-5.6308,-5.7446,-5.8364,-5.807,-5.8804,-5.9171,-5.785,-5.8804,-5.9905,-5.9979,-6.2181,-6.4714,-6.6916,-6.8605,-6.9853,-7.0367,-7.0513,-7.0036,-6.8641,-6.9449,-7.011,-7.011,-7.0844,-7.1651,-7.2459,-7.323,-7.4037,-7.4882,-7.5629,-7.6374,-7.7056,-7.6966,-7.6578,-7.5867,-7.5196,-7.4446,-7.3647,-7.221,-7.1929,-7.269,-7.1857,-7.1494,-7.1494,-7.1494,-7.0645,-6.9133,-6.7619,-6.6075,-6.4495,-6.2992,-6.2381,-6.2381,-6.2381,-6.2381,-6.2381,-6.2381,-6.2381,-6.2381,-6.2381,-6.2381,-6.2313,-6.1839,-6.1501,-6.1197,-6.0689,-6.0317,-5.9945,-5.9201,-5.9032,-5.8829,-5.8084,-5.7881,-5.7881,-5.7881,-5.7881,-5.7881,-5.7881,-5.7881,-5.7881,-5.7881,-5.6465,-5.4819,-5.339,-5.2551,-5.1836,-5.1128,-5.058,-5.0205,-5.0131,-4.969,-4.9463,-4.9621,-4.8883,-4.8546,-4.892,-4.8558,-4.8306,-4.8311,-4.7878,-4.7549,-4.7309,-4.7309,-4.7429,-4.7668,-4.8087,-4.8536,-4.9015,-4.9807,-5.0315,-5.3849,-5.506,-5.611,-5.7629,-5.8584,-5.8927,-5.8107,-5.7923,-5.7703,-5.6859,-5.6748,-5.7262,-5.8781,-6.0493,-6.2695,-6.5925,-6.7871,-6.8972,-6.8972,-7.033,-7.044,-6.8091,-6.9192,-7.0146,-7.0146,-7.0881,-7.1688,-7.2459,-7.3193,-7.4001,-7.4815,-7.5471,-7.6183,-7.7024,-7.6705,-7.5814,-7.4252,-7.3986,-7.3486,-7.269,-7.1893,-7.1893,-7.2617,-7.1857,-7.1494,-7.1494,-7.1494,-7.0642,-6.9122,-6.7622,-6.6069,-6.4496,-6.2969,-6.2381,-6.2381,-6.2381,-6.2381,-6.2381,-6.2381,-6.2381,-6.2381,-6.2381,-6.2381,-6.2381,-6.2381,-6.1907,-6.1366,-6.1366,-6.0825,-6.0047,-5.9268,-5.9066,-5.8863,-5.8084,-5.7881,-5.7881,-5.7881,-5.7881,-5.7881,-5.7881,-5.7881,-5.7881,-5.7845,-5.6426,-5.4994,-5.4147,-5.3258,-5.2483,-5.1836,-5.119,-5.0703,-5.0455,-4.9799,-4.9517,-4.9893,-4.9378,-4.9199,-4.9613,-4.9568,-4.9208,-4.8416,-4.8327,-4.7997,-4.7369,-4.7369,-4.7668,-4.8297,-4.8356,-4.9015,-5.0196,-5.0226,-5.0584,-5.5133,-5.6308,-5.7483,-5.7886,-5.8143,-5.8107,-5.7299,-5.7116,-5.6712,-5.5317,-5.5978,-5.6932,-5.7336,-6.0199,-6.3172,-6.5264,-6.7944,-6.9779,-6.9779,-7.066,-7.0844,-6.9633,-7.0367,-7.0991,-7.0991,-7.1725,-7.2275,-7.2496,-7.26,-7.3273,-7.4665,-7.4768,-7.5379,-7.6672,-7.6065,-7.5458,-7.4892,-7.3631,-7.2907,-7.269,-7.1893,-7.1603,-7.182,-7.1603,-7.1494,-7.1494,-7.1494,-7.035,-6.8337,-6.7411,-6.5754,-6.3698,-6.2765,-6.2381,-6.2381,-6.2381,-6.2381,-6.2381,-6.2381,-6.2381,-6.2381,-6.2381,-6.2381,-6.2381,-6.2381,-6.2245,-6.211,-6.211,-6.1975,-6.1501,-6.0182,-5.981,-5.9505,-5.8186,-5.7881,-5.7881,-5.7881,-5.7881,-5.7881,-5.7881,-5.7881,-5.7698,-5.7034,-5.6034,-5.4994,-5.4147,-5.3258,-5.2637,-5.2483,-5.2298,-5.2161,-5.2086,-5.1192,-5.0589,-5.0727,-4.9808,-4.9464,-4.9988,-4.9614,-4.9494,-4.9733,-4.8805,-4.8207,-4.8027,-4.8027,-4.8117,-4.8297,-4.9254,-4.9867,-5.0196,-5.0704,-5.105,-5.6014,-5.7042,-5.7997,-5.7997,-5.774,-5.7373,-5.6895,-5.6271,-5.55,-5.4583,-5.539,-5.6271,-5.6271,-5.9281,-6.2291,-6.3943,-6.6916,-6.9045,-6.9045,-7.066,-7.1284,-6.9743,-7.0917,-7.1688,-7.1329,-7.1961,-7.2409,-7.2409,-7.2358,-7.2848,-7.4092,-7.392,-7.4347,-7.5524,-7.5023,-7.4526,-7.4066,-7.2798,-7.2183,-7.2183,-7.1712,-7.1494,-7.1494,-7.1494,-7.1494,-7.1463,-7.0847,-6.9427,-6.7546,-6.6425,-6.4826,-6.3004,-6.2576,-6.2381,-6.2381,-6.2381,-6.2381,-6.2381,-6.2381,-6.2381,-6.2381,-6.2381,-6.2381,-6.2381,-6.2381,-6.2381,-6.2381,-6.2381,-6.2381,-6.2042,-6.0486,-6.0351,-6.0182,-5.8321,-5.8152,-5.8287,-5.7949,-5.7881,-5.7881,-5.7881,-5.7881,-5.7625,-5.6729,-5.5876,-5.4994,-5.4147,-5.3258,-5.2698,-5.2698,-5.2698,-5.2608,-5.2382,-5.1576,-5.1031,-5.1075,-5.0199,-4.9972,-5.0584,-5.0331,-5.0152,-5.0196,-4.9478,-4.9015,-4.8716,-4.876,-4.8865,-4.9134,-4.9837,-5.0345,-5.0644,-5.1003,-5.1229,-5.7079,-5.7776,-5.8327,-5.8327,-5.7703,-5.7079,-5.6859,-5.5647,-5.4509,-5.4289,-5.4876,-5.5464,-5.5596,-5.8143,-6.0823,-6.2523,-6.5485,-6.7614,-6.7834,-7.044,-7.1578,-6.9486,-7.1174,-7.2239,-7.1513,-7.1984,-7.2299,-7.2233,-7.227,-7.2569,-7.341,-7.3141,-7.3275,-7.3965,-7.3805,-7.3378,-7.2545,-7.1857,-7.1494,-7.1494,-7.1494,-7.1494,-7.1494,-7.1494,-7.1458,-7.1282,-6.9983,-6.8425,-6.6707,-6.5395,-6.3848,-6.2381,-6.2381,-6.2381,-6.2381,-6.2381,-6.2381,-6.2381,-6.2381,-6.2381,-6.2381,-6.2381,-6.2381,-6.2381,-6.2381,-6.2381,-6.2381,-6.2381,-6.2381,-6.2042,-6.0622,-6.0791,-6.0757,-5.8558,-5.8524,-5.8795,-5.8051,-5.7881,-5.7881,-5.7881,-5.7881,-5.7662,-5.6882,-5.6034,-5.519,-5.4317,-5.3434,-5.2833,-5.2698,-5.2698,-5.2518,-5.2063,-5.1486,-5.1182,-5.1263,-5.069,-5.0554,-5.1169,-5.1229,-5.096,-5.0345,-5.0255,-4.9972,-4.9449,-4.9449,-4.9673,-5.0196,-5.0285,-5.0614,-5.1229,-5.1229,-5.1229,-5.9758,-5.9869,-5.9979,-5.9979,-5.9391,-5.8414,-5.7116,-5.6051,-5.4987,-5.3702,-5.4069,-5.4803,-5.5464,-5.7703,-6.0138,-6.2413,-6.5007,-6.7173,-6.8495,-7.033,-7.1358,-7.0954,-7.1835,-7.2401,-7.2138,-7.2219,-7.2233,-7.2048,-7.1933,-7.2236,-7.3042,-7.2853,-7.283,-7.2939,-7.2907,-7.2545,-7.1712,-7.1567,-7.1494,-7.1494,-7.1494,-7.1494,-7.1494,-7.1494,-7.1168,-7.0589,-7.0314,0.0,-6.6005,-6.5724,-6.4334,-6.2381,-6.2381,-6.2381,-6.2381,-6.2381,-6.2381,-6.2381,-6.2381,-6.2381,-6.2381,-6.2381,-6.2381,-6.2381,-6.2381,-6.2381,-6.2381,-6.2381,-6.2381,-6.2178,-6.1332,-6.1197,-6.0892,-5.9235,-5.893,-5.8795,-5.8051,-5.7881,-5.7881,-5.7881,-5.7881,-5.7845,-5.7698,-5.6958,-5.6074,-5.5231,-5.4317,-5.3521,-5.2788,-5.2698,-5.2563,-5.2261,-5.2018,-5.1758,-5.1526,-5.1203,-5.1109,-5.1199,-5.1229,-5.1169,-5.1003,-5.0495,-5.0136,-5.0016,-5.0016,-5.0076,-5.0196,-5.0734,-5.1109,-5.1229,-5.1229,-5.1229,-6.0419,-6.0419,-6.0309,-5.9905,-5.8854,-5.7666,-5.6455,-5.5244,-5.4142,-5.3371,-5.4179,-5.5133,-5.5537,-5.7593,-5.9845,-6.1851,-6.3906,-6.5936,-6.7872,-6.9247,-7.0311,-7.0945,-7.1479,-7.1882,-7.2137,-7.2084,-7.1994,-7.1903,-7.1749,-7.1869,-7.2362,-7.2205,-7.2074,-7.2074,-7.2074,-7.1893,-7.1494,-7.1494,-7.1494,-7.1494,-7.1494,-7.1494,-7.1494,-7.1096,-7.0734,-7.0335,-6.9088,-6.7519,-6.5724,-6.4951,-6.373,-6.2381,-6.2381,-6.2381,-6.2381,-6.2381,-6.2381,-6.2381,-6.2381,-6.2381,-6.2381,-6.2381,-6.2381,-6.2381,-6.2381,-6.2381,-6.2381,-6.2381,-6.2381,-6.2212,-6.1501,-6.1569,-6.1467,-5.9945,-5.9302,-5.8795,-5.8051,-5.7881,-5.7881,-5.7881,-5.7881,-5.7881,-5.7881,-5.7181,-5.6459,-5.6034,-5.4861,-5.3879,-5.3434,-5.2846,-5.2427,-5.2155,-5.1926,-5.1695,-5.1386,-5.1276,-5.1229,-5.1229,-5.1229,-5.1229,-5.1229,-5.0853,-5.0704,-5.0704,-5.0704,-5.0704,-5.0704,-5.105,-5.1229,-5.1229,-5.1229,-5.1229,-6.086,-6.0933,-6.0786,-6.0138,-5.8767,-5.7336,-5.6345,-5.4876,-5.3628,-5.3298,-5.4326,-5.539,-5.5596,-5.7299,-5.9355,-6.1263,-6.2842,-6.4662,-6.7067,-6.8248,-6.9319,-7.0668,-7.0939,-7.1267,-7.1885,-7.1872,-7.1786,-7.1718,-7.1593,-7.1593,-7.1718,-7.1593,-7.1494,-7.1494,-7.1494,-7.1494,-7.1494,-7.1494,-7.1494,-7.1494,-7.1494,-7.1422,-7.1241,-7.0661,-7.0129,-6.9539,-6.7669,-6.627,-6.5233,-6.3995,-6.3045,-6.2381,-6.2381,-6.2381,-6.2381,-6.2381,-6.2381,-6.2381,-6.2381,-6.2381,-6.2381,-6.2381,-6.2381,-6.2381,-6.2381,-6.2381,-6.2381,-6.2381,-6.2381,-6.2245,-6.167,-6.1975,-6.2009,-6.0452,-5.9438,-5.8626,-5.8017,-5.7881,-5.7881,-5.7881,-5.7881,-5.7881,-5.7881,-5.7331,-5.6806,-5.6614,-5.5434,-5.4443,-5.4062,-5.3183,-5.2442,-5.2109,-5.1787,-5.1479,-5.1293,-5.1229,-5.1229,-5.1229,-5.1229,-5.1229,-5.1229,-5.1229,-5.1229,-5.1229,-5.1229,-5.1229,-5.1229,-5.1229,-5.1229,-5.1229,-5.1229,-5.1229,-6.2401,-6.256,-6.256,-6.2487,-6.1263,-5.9685,-5.8143,-5.6528,-5.495,-5.3518,-5.3922,-5.473,-5.5464,-5.6381,-5.8033,-6.108,-6.2328,-6.4002,-6.7058,-6.8201,-6.9242,-7.0602,-7.0821,-7.1089,-7.1738,-7.1816,-7.1718,-7.1526,-7.1494,-7.1494,-7.1526,-7.1494,-7.1494,-7.1494,-7.1494,-7.1494,-7.1494,-7.1494,-7.1494,-7.1494,-7.1494,-7.1132,-7.048,-7.0439,-6.9228,-6.7218,-6.701,-6.5717,0.0,-6.3568,-6.3045,-6.2381,-6.2381,-6.2381,-6.2381,-6.2381,-6.2381,-6.2381,-6.2381,-6.2381,-6.2381,-6.2381,-6.2381,-6.2381,-6.2381,-6.2381,-6.2381,-6.2381,-6.2381,-6.2381,-6.2313,-6.2347,-6.2009,-6.0452,-5.9032,-5.7983,-5.7915,-5.7881,-5.7881,-5.7881,-5.7881,-5.7881,-5.7881,-5.7845,-5.7517,-5.6729,-5.6459,-5.5796,-5.419,-5.3719,-5.3152,-5.2352,-5.1849,-5.1572,-5.1572,-5.1339,-5.1229,-5.1229,-5.1229,-5.1229,-5.1229,-5.1229,-5.1229,-5.1229,-5.1229,-5.1229,-5.1229,-5.1229,-5.1229,-5.1229,-5.1229,-5.1229,-6.1153,-6.1374,-6.1374,-6.1374,-6.0162,-5.8657,-5.7519,-5.6014,-5.4693,-5.4069,-5.4546,-5.5354,-5.6161,-5.6969,-5.8253,-6.0529,-6.1153,-6.2462,-6.5567,-6.6262,-6.7167,-6.9027,-6.9652,-7.0211,-7.0894,-7.1371,-7.1593,-7.1494,-7.1494,-7.1494,-7.1494,-7.1494,-7.1494,-7.1494,-7.1494,-7.1494,-7.1494,-7.1494,-7.1494,-7.1494,-7.106,-7.0661,-7.0372,-6.9394,-6.8223,-6.6871,-6.6407,-6.5155,0.0,-6.3531,-6.3045,-6.2381,-6.2381,-6.2381,-6.2381,-6.2381,-6.2381,-6.2381,-6.2381,-6.2381,-6.2381,-6.2381,-6.2381,-6.2381,-6.2381,-6.2381,-6.2381,-6.2381,-6.2381,-6.2381,-6.2381,-6.2076,-6.1467,-6.0351,-5.9302,-5.8457,-5.7983,-5.7881,-5.7881,-5.7881,-5.7881,-5.7881,-5.7881,-5.7881,-5.7772,-5.7443,-5.692,-5.6342,-5.5676,-5.4411,-5.3545,-5.3359,-5.2276,-5.1572,-5.1572,-5.1339,-5.1229,-5.1229,-5.1229,-5.1229,-5.1229,-5.1229,-5.1229,-5.1229,-5.1229,-5.1229,-5.1229,-5.1229,-5.1229,-5.1229,-5.1229,-5.1229,-6.0126,-6.0566,-6.075,-6.075,-5.9722,-5.8437,-5.7409,-5.6088,-5.506,-5.4803,-5.539,-5.6124,-5.6712,-5.7262,-5.818,-5.9795,-6.0236,-6.13,-6.3868,-6.4865,-6.5925,-6.7608,-6.8493,-6.937,-7.033,-7.0879,-7.1277,-7.1494,-7.1096,-7.0915,-7.1168,-7.0951,-7.1024,-7.1494,-7.1494,-7.1494,-7.1494,-7.1277,-7.1168,-7.1168,-7.0408,-6.9901,-6.9647,-6.8306,-6.7119,-6.6188,-6.5389,-6.4323,0.0,-6.3158,-6.2889,-6.2381,-6.2381,-6.2381,-6.2381,-6.2381,-6.2381,-6.2381,-6.2381,-6.2381,-6.2381,-6.2381,-6.2381,-6.2381,-6.2381,-6.2381,-6.2381,-6.2381,-6.2381,-6.2347,-6.211,-6.1501,-6.0757,-5.9979,-5.9201,-5.8524,-5.8017,-5.7881,-5.7881,-5.7881,-5.7881,-5.7881,-5.7881,-5.7881,-5.7881,-5.7881,-5.7368,-5.6882,-5.6614,-5.5117,-5.4073,-5.4019,-5.2637,-5.1741,-5.1741,-5.1463,-5.1246,-5.1229,-5.1229,-5.1229,-5.1229,-5.1229,-5.1229,-5.1229,-5.1229,-5.1229,-5.1229,-5.1229,-5.1229,-5.1229,-5.1229,-5.1229,-5.9979,-6.097,-6.1594,-6.1594,-6.097,-5.9979,-5.8364,-5.7373,-5.6565,-5.5757,-5.6235,-5.6785,-5.6822,-5.6822,-5.7336,-5.8927,-5.9905,-6.0872,-6.224,-6.4485,-6.6195,-6.6743,-6.751,-6.8633,-7.0227,-7.0439,-7.0698,-7.1458,-7.0082,-6.9569,-7.0372,-6.9678,-6.9901,-7.1458,-7.1494,-7.1494,-7.1494,-7.077,-7.0408,-7.0372,-6.9605,-6.8778,-6.7987,-6.7263,-6.6051,-6.4566,-6.3861,-6.3083,0.0,-6.242,-6.2381,-6.2381,-6.2381,-6.2381,-6.2381,-6.2381,-6.2381,-6.2381,-6.2381,-6.2381,-6.2381,-6.2381,-6.2381,-6.2381,-6.2381,-6.2381,-6.2381,-6.2381,-6.2381,-6.2212,-6.1501,-6.0723,-5.9945,-5.9201,-5.8457,-5.7915,-5.7881,-5.7881,-5.7881,-5.7881,-5.7881,-5.7881,-5.7881,-5.7881,-5.7881,-5.7881,-5.7881,-5.7554,-5.6691,-5.5836,-5.4985,-5.4105,-5.2771,-5.2002,-5.2002,-5.1741,-5.1479,-5.1229,-5.1229,-5.1229,-5.1229,-5.1229,-5.1229,-5.1229,-5.1229,-5.1229,-5.1229,-5.1229,-5.1229,-5.1229,-5.1229,-5.1229,-5.6822,-5.7299,-5.7629,-5.818,-5.8143,-5.7813,-5.7299,-5.6969,-5.6748,-5.6455,-5.6638,-5.6969,-5.7519,-5.7189,-5.7519,-5.9685,-5.9795,-6.0274,-6.226,-6.4055,-6.5414,-6.6053,-6.7715,-6.8995,-6.9533,-6.9605,-6.9678,-6.9901,-6.9497,-6.9316,-6.9569,-6.9352,-6.9424,-6.9901,-6.9901,-6.9901,-6.9901,-6.9714,-6.9605,-6.9569,-6.8742,-6.8235,-6.7951,-6.7192,-6.601,-6.4601,-6.4358,-6.3533,-6.2381,-6.2381,-6.2381,-6.2381,-6.2381,-6.2381,-6.2381,-6.2381,-6.2381,-6.2381,-6.2381,-6.2381,-6.2381,-6.2381,-6.2381,-6.2313,-6.1806,-6.2009,-6.2279,-6.1772,-6.1264,-6.0757,-6.0554,-5.9911,-5.9302,-5.9066,-5.8457,-5.7881,-5.7881,-5.7881,-5.7881,-5.7881,-5.7881,-5.7881,-5.7881,-5.7881,-5.7881,-5.7881,-5.7881,-5.7808,-5.7517,-5.6729,-5.5836,-5.4985,-5.3805,-5.2815,-5.2094,-5.1602,-5.1323,-5.1229,-5.1229,-5.1229,-5.1229,-5.1229,-5.1229,-5.1229,-5.1229,-5.1229,-5.1229,-5.1229,-5.1229,-5.1229,-5.1229,-5.1229,-5.528,-5.5794,-5.6235,-5.7042,-5.7262,-5.7262,-5.7262,-5.7262,-5.7262,-5.7262,-5.7262,-5.7409,-5.7923,-5.7033,-5.7107,-5.9551,-5.9187,-5.9408,-6.1722,-6.36,-6.5076,-6.6061,-6.7969,-6.9098,-6.8778,-6.8742,-6.885,-6.9207,-6.8633,-6.8416,-6.8706,-6.8452,-6.8271,-6.8271,-6.8881,-6.9207,-6.9207,-6.8887,-6.8584,-6.8332,-6.7788,-6.7427,-6.7112,-6.6607,-6.5728,-6.4601,-6.4288,-6.3496,0.0,-6.2381,-6.2381,-6.2381,-6.2381,-6.2381,-6.2381,-6.2381,-6.2212,-6.1975,-6.1975,-6.1772,-6.1535,-6.1535,-6.1535,-6.1434,-6.0994,-6.1163,-6.1434,-6.0994,-6.0486,-6.0047,-5.9776,-5.9336,-5.893,-5.866,-5.822,-5.7881,-5.7881,-5.7881,-5.7881,-5.7881,-5.7881,-5.7881,-5.7881,-5.7881,-5.7881,-5.7881,-5.7881,-5.7881,-5.7881,-5.7143,-5.6303,-5.5393,-5.42,-5.3095,-5.2063,-5.1602,-5.1323,-5.1229,-5.1229,-5.1229,-5.1229,-5.1229,-5.1229,-5.1229,-5.1229,-5.1229,-5.1229,-5.1229,-5.1229,-5.1229,-5.1229,-5.1229,0.0,-5.5941,-5.6712,-5.7483,-5.774,-5.7813,-5.7813,-5.7923,0.0,-5.7997,-5.7997,-5.7997,-5.7973,-5.6598,-5.6319,-5.8794,-5.8348,-5.8495,-6.0865,-6.3257,-6.5299,-6.6714,-6.8307,-6.8959,-6.8162,-6.809,-6.8416,-6.9134,-6.78,-6.7227,-6.7921,-6.7234,-6.6734,-6.6566,-6.8005,-6.8831,-6.8934,-6.8211,-6.7441,-6.6663,-6.6582,-6.6186,-6.555,-6.5621,-6.5234,-6.4496,-6.3862,-6.3121,-6.2381,-6.2381,-6.2381,-6.2381,-6.2381,-6.2347,-6.2313,-6.2313,-6.1839,-6.1231,-6.1231,-6.0723,-6.0114,-6.0114,-6.0047,-6.0013,-6.0013,-6.0013,-6.0013,-6.0013,-5.9979,-5.9776,-5.9099,-5.893,-5.8761,-5.8051,-5.7881,-5.7881,-5.7881,-5.7881,-5.7881,-5.7881,-5.7881,-5.7881,-5.7881,-5.7881,-5.7881,-5.7881,-5.7881,-5.7881,-5.7881,-5.7218,-5.6309,-5.5393,-5.4158,-5.3007,-5.2017,-5.1741,-5.1463,-5.1229,-5.1229,-5.1229,-5.1229,-5.1229,-5.1229,-5.1229,-5.1229,-5.1229,-5.1229,-5.1229,-5.1229,-5.1229,-5.1229,-5.1229,-5.2894,0.0,-5.4106,-5.4289,-5.5244,-5.6161,0.0,-5.7116,-5.7973,-5.7881,-5.7927,-5.795,-5.7703,-5.6959,-5.6872,-5.8628,-5.8665,-5.9101,-6.0809,-6.4065,-6.6634,-6.7619,-6.914,-6.9792,-6.8995,-6.8923,-6.9026,-6.9207,-6.8881,-6.8203,-6.7199,-6.6988,-6.6086,-6.4326,-6.4645,-6.5368,-6.6487,-6.6343,-6.5597,-6.4307,-6.4263,-6.4166,-6.3943,-6.4582,-6.4418,-6.3689,-6.4148,-6.3606,-6.2381,-6.2381,-6.2381,-6.2381,-6.2381,-6.2042,-6.1569,-6.1569,-6.1061,-6.0385,-6.0385,-6.025,-6.0114,-6.0114,-5.9708,-5.9268,-5.9268,-5.9268,-5.9268,-5.9268,-5.8863,-5.8355,-5.8186,-5.8152,-5.8118,-5.7915,-5.7881,-5.7881,-5.7881,-5.7881,-5.7881,-5.7881,-5.7881,-5.7881,-5.7881,-5.7881,-5.7881,-5.7881,-5.7881,-5.7881,-5.7881,-5.7735,-5.692,-5.5198,-5.4547,-5.3601,-5.1849,-5.1463,-5.1276,-5.1229,-5.1229,-5.1229,-5.1229,-5.1229,-5.1229,-5.1229,-5.1229,-5.1229,-5.1229,-5.1229,-5.1229,-5.1229,-5.1229,-5.1229,-5.2574,-5.3366,-5.4268,-5.4202,-5.5119,-5.6167,-5.6511,-5.6649,-5.6699,-5.6676,-5.6992,-5.7201,-5.7083,-5.6671,-5.7036,-5.9042,-5.8942,-5.9397,-6.1705,-6.4452,-6.6533,-6.7366,-6.885,-6.9678,-6.9243,-6.885,-6.8512,-6.8161,-6.7806,-6.6912,-6.5415,-6.5346,-6.4581,-6.3017,-6.2949,-6.3324,-6.4141,-6.4141,-6.3569,-6.2439,-6.2815,-6.2736,-6.2415,-6.3197,-6.3312,-6.2917,-6.2996,-6.2571,-6.1794,-6.1486,-6.1332,-6.1332,-6.1332,-6.1095,-6.0757,-6.0757,-6.025,-5.9607,-5.9607,-5.937,-5.9099,-5.9099,-5.8829,-5.849,-5.849,-5.849,-5.849,-5.849,-5.822,-5.7881,-5.7881,-5.7881,-5.7881,-5.7881,-5.7881,-5.7881,-5.7881,-5.7881,-5.7881,-5.7881,-5.7881,-5.7881,-5.7881,-5.7881,-5.7881,-5.7881,-5.7881,-5.7881,-5.7881,-5.7881,-5.7147,-5.5084,-5.4713,-5.3785,-5.1803,-5.1339,-5.1229,-5.1229,-5.1229,-5.1229,-5.1229,-5.1229,-5.1229,-5.1229,-5.1229,-5.1229,-5.1229,-5.1229,-5.1229,-5.1229,-5.1229,-5.1229,-5.2959,-5.4415,-5.5801,-5.5322,-5.5994,-5.6909,-5.747,-5.645,-5.5418,-5.551,-5.5975,-5.6379,-5.6356,-5.6479,-5.7328,-5.955,-5.9372,-5.9941,-6.2802,-6.4468,-6.5736,-6.6533,-6.7909,-6.8845,-6.8845,-6.8108,-6.74,-6.6793,-6.5989,-6.4885,-6.3409,-6.3306,-6.2852,-6.1806,-6.1806,-6.1736,-6.1631,-6.1942,-6.1708,-6.0871,-6.1603,-6.1568,-6.0876,-6.1736,-6.2073,-6.1943,-6.1398,0.0,-6.097,-6.0343,-6.0114,-6.0114,-6.0114,-6.0047,-5.9945,-5.9945,-5.9471,-5.8829,-5.8829,-5.8423,-5.7881,-5.7881,-5.7881,-5.7881,-5.7881,-5.7881,-5.7881,-5.7881,-5.7881,-5.7881,-5.7881,-5.7881,-5.7881,-5.7881,-5.7881,-5.7881,-5.7881,-5.7881,-5.7881,-5.7881,-5.7881,-5.7881,-5.7881,-5.7881,-5.7881,-5.7881,-5.7881,-5.7881,-5.7881,-5.7881,-5.7185,-5.5247,-5.4796,-5.3828,-5.1911,-5.1386,-5.1229,-5.1229,-5.1229,-5.1229,-5.1229,-5.1229,-5.1229,-5.1229,-5.1229,-5.1229,-5.1229,-5.1229,-5.1229,-5.1229,-5.1229,-5.1229,-5.2828,-5.5003,-5.6815,-5.4875,-5.5925,-5.7291,-5.6744,-5.6416,-5.6197,-5.6102,-5.6259,-5.6332,-5.6116,-5.7266,-5.8562,-5.9512,-6.0692,-6.186,-6.3019,-6.3997,-6.4867,-6.57,-6.6605,-6.7184,-6.7184,-6.6551,-6.6101,-6.5975,-6.5278,-6.418,-6.2646,-6.2576,-6.1632,-5.9573,-5.9502,-5.9196,-5.8585,-6.0424,-6.0698,-5.9352,-6.0113,-6.0013,-5.9288,-6.0723,-6.1039,-6.0462,0.0,-6.0861,-6.0269,-6.0152,-6.0114,-6.0114,-6.0114,-5.9708,-5.9167,-5.9167,-5.8693,-5.8051,-5.8051,-5.7983,-5.7881,-5.7881,-5.7881,-5.7881,-5.7881,-5.7881,-5.7881,-5.7881,-5.7881,-5.7881,-5.7881,-5.7881,-5.7881,-5.7881,-5.7881,-5.7881,-5.7881,-5.7881,-5.7881,-5.7881,-5.7881,-5.7881,-5.7881,-5.7881,-5.7881,-5.7881,-5.7881,-5.7881,-5.7881,-5.7881,-5.7335,-5.5889,-5.5084,-5.3999,-5.2561,-5.1681,-5.1229,-5.1229,-5.1229,-5.1229,-5.1229,-5.1229,-5.1229,-5.1229,-5.1229,-5.1229,-5.1229,-5.1229,-5.1229,-5.1229,-5.1229,-5.1229,-5.2717,-5.4672,-5.6503,-5.5507,-5.7037,-5.8553,-5.7753,-5.6855,-5.6079,-5.5643,-5.5898,-5.614,-5.6018,-5.7347,-5.8896,-6.005,-6.1218,-6.215,-6.2512,-6.3237,-6.4033,-6.4867,-6.5663,-6.6198,-6.6264,-6.5591,-6.4831,-6.4001,-6.324,-6.216,-6.0611,-6.054,-5.9879,-5.8423,-5.8423,-5.8254,-5.7881,-5.8889,-5.9276,-5.8936,-5.9288,-5.9459,-5.9513,-5.9795,-5.9969,-6.0004,0.0,-5.9413,-5.9413,-5.9081,-5.8896,-5.8896,-5.8896,-5.8693,-5.8423,-5.8423,-5.8186,-5.7881,-5.7881,-5.7881,-5.7881,-5.7881,-5.7881,-5.7881,-5.7881,-5.7881,-5.7881,-5.7881,-5.7881,-5.7881,-5.7881,-5.7881,-5.7881,-5.7881,-5.7881,-5.7881,-5.7881,-5.7881,-5.7881,-5.7881,-5.7881,-5.7881,-5.7881,-5.7881,-5.7881,-5.7881,-5.7881,-5.7881,-5.7881,-5.7808,-5.7072,-5.5369,-5.4755,-5.373,-5.2002,-5.1433,-5.1229,-5.1229,-5.1229,-5.1229,-5.1229,-5.1229,-5.1229,-5.1229,-5.1229,-5.1229,-5.1229,-5.1229,-5.1229,-5.1229,-5.1229,-5.1229,-5.2799,-5.4254,-5.58,-5.6079,-5.7665,-5.9143,-5.89,-5.7372,-5.5909,-5.5571,-5.5922,-5.621,-5.6029,-5.7623,-5.9434,-6.0846,-6.1788,-6.2223,-6.2014,-6.2549,-6.3128,-6.3744,-6.4245,-6.456,-6.4648,-6.3835,-6.2798,-6.1673,-6.0872,-5.9929,-5.8798,-5.8761,-5.849,-5.7915,-5.7881,-5.7881,-5.7881,-5.7881,-5.8244,-5.8909,-5.9079,-5.9445,-5.9966,-5.9611,-5.9511,-5.9676,-5.8598,-5.8317,-5.8599,-5.8101,-5.7881,-5.7881,-5.7881,-5.7881,-5.7881,-5.7881,-5.7881,-5.7881,-5.7881,-5.7881,-5.7881,-5.7881,-5.7881,-5.7881,-5.7881,-5.7881,-5.7881,-5.7881,-5.7881,-5.7881,-5.7881,-5.7881,-5.7881,-5.7881,-5.7881,-5.7881,-5.7881,-5.7881,-5.7881,-5.7881,-5.7881,-5.7881,-5.7881,-5.7881,-5.7881,-5.7881,-5.7881,-5.7881,-5.7845,-5.748,-5.6658,-5.5002,-5.4327,-5.3209,-5.1339,-5.1229,-5.1229,-5.1229,-5.1229,-5.1229,-5.1229,-5.1229,-5.1229,-5.1229,-5.1229,-5.1229,-5.1229,-5.1229,-5.1229,-5.1229,-5.1229,-5.1229,-5.3445,-5.4291,-5.516,-5.5837,-5.6706,-5.7757,-5.918,-5.7695,-5.6174,-5.6924,-5.708,-5.6899,-5.6138,-5.8528,-6.0892,-6.1761,-6.2585,-6.2838,-6.2087,-6.205,-6.2087,-6.2159,-6.1674,-6.1331,-6.1337,-6.0116,-5.9287,-5.9185,-5.8522,-5.809,-5.7983,-5.7983,-5.7949,-5.7881,-5.7881,-5.7881,-5.7881,-5.7881,-5.8244,-5.8943,-5.9611,-5.9934,-5.9998,-6.0595,-6.0156,-5.8943,-5.8875,-5.8493,-5.7954,-5.7918,-5.7881,-5.7881,-5.7881,-5.7881,-5.7881,-5.7881,-5.7881,-5.7881,-5.7881,-5.7881,-5.7881,-5.7881,-5.7881,-5.7881,-5.7881,-5.7881,-5.7881,-5.7881,-5.7881,-5.7881,-5.7881,-5.7881,-5.7881,-5.7881,-5.7881,-5.7881,-5.7881,-5.7881,-5.7881,-5.7881,-5.7881,-5.7881,-5.7881,-5.7881,-5.7881,-5.7881,-5.7881,-5.7845,-5.7662,-5.6849,-5.6087,-5.5603,-5.3999,-5.253,-5.1293,-5.1229,-5.1229,-5.1229,-5.1229,-5.1229,-5.1229,-5.1229,-5.1229,-5.1229,-5.1229,-5.1229,-5.1229,-5.1229,-5.1229,-5.1229,-5.1229,-5.1229,-5.2118,-5.353,-5.4979,-5.5269,-5.5884,-5.6862,-5.8492,-5.8528,-5.8347,-5.8637,-5.8709,-5.8601,-5.8311,-5.9253,-6.0339,-6.1136,-6.1933,-6.2367,-6.2014,-6.1636,-6.1372,-6.1372,-6.0807,-6.0219,-5.9739,-5.9212,-5.8737,-5.8281,-5.8029,-5.7881,-5.7881,-5.7881,-5.7881,-5.7881,-5.7881,-5.7881,-5.7881,-5.7881,-5.8458,-5.9611,-5.987,-6.0437,-6.1257,-6.1075,-6.0468,-5.9578,-5.9113,-5.8528,-5.7881,-5.7881,-5.7881,-5.7881,-5.7881,-5.7881,-5.7881,-5.7881,-5.7881,-5.7881,-5.7881,-5.7881,-5.7881,-5.7881,-5.7881,-5.7881,-5.7881,-5.7881,-5.7881,-5.7881,-5.7881,-5.7881,-5.7881,-5.7881,-5.7881,-5.7881,-5.7881,-5.7881,-5.7881,-5.7881,-5.7881,-5.7881,-5.7881,-5.7881,-5.7881,-5.7881,-5.7881,-5.7881,-5.7881,-5.7881,-5.7808,-5.6773,-5.573,-5.5043,-5.3121,-5.1681,-5.1229,-5.1229,-5.1229,-5.1229,-5.1229,-5.1229,-5.1229,-5.1229,-5.1229,-5.1229,-5.1229,-5.1229,-5.1229,-5.1229,-5.1229,-5.1229,-5.1229,-5.1229,-5.1973,-5.3277,-5.4581,-5.4834,-5.545,-5.6428,-5.8021,-5.8818,-5.9361,-5.9868,-5.9579,-5.9398,-5.9905,-5.976,-5.9941,-6.1,-6.1616,-6.1978,-6.1978,-6.143,-6.1016,-6.1016,-6.0219,-5.9445,-5.8977,-5.8703,-5.8388,-5.7918,-5.7881,-5.7881,-5.7881,-5.7881,-5.7881,-5.7881,-5.7881,-5.7881,-5.7881,-5.7881,-5.8493,-5.9676,-5.9902,-6.0717,-6.1978,-6.1515,-6.0956,-6.0282,-5.9578,-5.8841,-5.8209,-5.7991,-5.7881,-5.7881,-5.7881,-5.7881,-5.7881,-5.7881,-5.7881,-5.7881,-5.7881,-5.7881,-5.7881,-5.7881,-5.7881,-5.7881,-5.7881,-5.7881,-5.7881,-5.7881,-5.7881,-5.7881,-5.7881,-5.7881,-5.7881,-5.7881,-5.7881,-5.7881,-5.7881,-5.7881,-5.7881,-5.7881,-5.7881,-5.7881,-5.7881,-5.7881,-5.7881,-5.7881,-5.7881,-5.7881,-5.7808,-5.6696,-5.541,-5.4084,-5.2336,-5.1229,-5.1229,-5.1229,-5.1229,-5.1229,-5.1229,-5.1229,-5.1229,-5.1229,-5.1229,-5.1229,-5.1229,-5.1229,-5.1229,-5.1229,-5.1229,-5.1229,-5.1229,-5.1229,-5.3458,-5.3675,-5.3892,-5.4689,-5.545,-5.6428,-5.8021,-5.842,-5.8891,-6.0484,-5.9542,-5.8927,-6.052,-6.0158,-6.0158,-6.1725,-6.1978,-6.1978,-6.1978,-6.1401,-6.0986,-6.0986,-5.9739,-5.8909,-5.8909,-5.8281,-5.7881,-5.7881,-5.7881,-5.7881,-5.7881,-5.7881,-5.7881,-5.7881,-5.7881,-5.7881,-5.7881,-5.7881,-5.8244,-5.8943,-5.9644,-6.0686,-6.1978,-6.1978,-6.1636,-6.0986,-6.0282,-5.9578,-5.8875,-5.8173,-5.7881,-5.7881,-5.7881,-5.7881,-5.7881,-5.7881,-5.7881,-5.7881,-5.7881,-5.7881,-5.7881,-5.7881,-5.7881,-5.7881,-5.7881,-5.7881,-5.7881,-5.7881,-5.7881,-5.7881,-5.7881,-5.7881,-5.7881,-5.7881,-5.7881,-5.7881,-5.7881,-5.7881,-5.7881,-5.7881,-5.7881,-5.7881,-5.7881,-5.7881,-5.7881,-5.7881,-5.7881,-5.7808,-5.7625,-5.6619,-5.5084,-5.2843,-5.1773,-5.1229,-5.1229,-5.1229,-5.1229,-5.1229,-5.1229,-5.1229,-5.1229,-5.1229,-5.1229,-5.1229,-5.1229,-5.1229,-5.1229,-5.1229,-5.1229,-5.1229,-5.1229,-5.1229,-5.1792,-5.2408,-5.3059,-5.3856,-5.545,-5.7116,-5.8166,-5.9289,-6.0375,-6.1435,-6.0783,-6.0231,-6.0738,-6.0629,-6.0458,-6.0447,-6.0927,-6.1133,-6.0686,-5.9998,-5.9511,-5.9511,-5.8737,-5.8209,-5.8209,-5.8027,-5.7881,-5.7881,-5.7881,-5.7881,-5.7881,-5.7881,-5.7881,-5.7881,-5.7881,-5.7881,-5.7881,-5.7881,-5.8244,-5.8875,-5.9112,-5.9931,-6.1315,-6.1776,-6.1636,-6.0986,-6.0282,-5.9578,-5.8875,-5.8173,-5.7881,-5.7881,-5.7881,-5.7881,-5.7881,-5.7881,-5.7881,-5.7881,-5.7881,-5.7881,-5.7881,-5.7881,-5.7881,-5.7881,-5.7881,-5.7881,-5.7881,-5.7881,-5.7881,-5.7881,-5.7881,-5.7881,-5.7881,-5.7881,-5.7881,-5.7881,-5.7881,-5.7881,-5.7881,-5.7881,-5.7881,-5.7881,-5.7881,-5.7881,-5.7881,-5.7881,-5.7881,-5.7591,-5.6734,-5.6198,-5.5369,-5.3945,-5.2843,-5.2154,-5.2154,-5.1572,-5.1229,-5.1229,-5.1229,-5.1229,-5.1229,-5.1229,-5.1229,-5.1229,-5.1229,-5.1229,-5.1229,-5.1229,-5.1229,-5.1229,-5.1229,-5.1229,-5.2408,-5.3277,-5.4146,-5.5305,-5.6433,-5.7683,-5.9087,-6.0395,-6.1399,-6.1906,-6.1362,-6.0919,-6.1245,-6.1027,-6.0666,-6.0324,-6.0665,-6.0777,-6.0093,-5.938,-5.8909,-5.8909,-5.8281,-5.7881,-5.7881,-5.7881,-5.7881,-5.7881,-5.7611,-5.7442,-5.7442,-5.7171,-5.7036,-5.7036,-5.7036,-5.7036,-5.7036,-5.7036,-5.7252,-5.7638,-5.818,-5.8895,-5.9733,-6.1028,-6.1515,-6.1343,-6.0406,-5.9578,-5.884,-5.7867,-5.7442,-5.7442,-5.7137,-5.7036,-5.7036,-5.7036,-5.7205,-5.7442,-5.7442,-5.7645,-5.7881,-5.7881,-5.7881,-5.7881,-5.7881,-5.7881,-5.7881,-5.7881,-5.7881,-5.7881,-5.7881,-5.7881,-5.7881,-5.7881,-5.7881,-5.7881,-5.7881,-5.7881,-5.7881,-5.7881,-5.7881,-5.7881,-5.7881,-5.7881,-5.7881,-5.7881,-5.7881,-5.7591,-5.6734,-5.6198,-5.545,-5.4285,-5.324,-5.2471,-5.2094,-5.1526,-5.1229,-5.1229,-5.1229,-5.1229,-5.1229,-5.1229,-5.1229,-5.1229,-5.1229,-5.1229,-5.1229,-5.1229,-5.1229,-5.1229,-5.1229,-5.1229,-5.4255,-5.5171,-5.6024,-5.7686,-5.7801,-5.8125,-6.0362,-6.1372,-6.1868,-6.1978,-6.1399,-6.1109,-6.1778,-6.1308,-6.0799,-6.0814,-6.0766,-6.0453,-5.9797,-5.9074,-5.86,-5.86,-5.8075,-5.7679,-5.7679,-5.7679,-5.7679,-5.7679,-5.707,-5.6697,-5.6697,-5.6089,-5.5681,-5.5681,-5.5681,-5.5681,-5.5681,-5.5681,-5.5681,-5.5716,-5.6992,-5.7653,-5.775,-5.9888,-6.1186,-6.1623,-6.0316,-5.9369,-5.8565,-5.7254,-5.6697,-5.663,-5.5987,-5.5681,-5.5681,-5.5681,-5.6122,-5.6697,-5.6697,-5.7171,-5.778,-5.778,-5.7848,-5.7881,-5.7881,-5.7881,-5.7881,-5.7881,-5.7881,-5.7881,-5.7881,-5.7881,-5.7881,-5.7881,-5.7881,-5.7881,-5.7881,-5.7881,-5.7881,-5.7881,-5.7881,-5.7881,-5.7881,-5.7881,-5.7881,-5.7881,-5.7881,-5.7698,-5.7256,-5.6426,-5.5369,-5.4147,-5.3152,-5.2245,-5.1386,-5.1246,-5.1229,-5.1229,-5.1229,-5.1229,-5.1229,-5.1229,-5.1229,-5.1229,-5.1229,-5.1229,-5.1229,-5.1229,-5.1229,-5.1229,-5.1229,-5.1229,-5.2609,-5.2927,-5.325,-5.5405,-5.7222,-5.8818,-5.9941,-6.0313,-6.0747,-6.1776,-6.1833,-6.1623,-6.1279,-6.1048,-6.0624,-5.9509,-5.8859,-5.8246,-5.7568,-5.6847,-5.6402,-5.6402,-5.6262,-5.619,-5.619,-5.619,-5.619,-5.619,-5.6055,-5.5953,-5.5953,-5.5818,-5.5681,-5.5681,-5.5681,-5.5681,-5.5681,-5.5681,-5.5681,-5.5716,-5.6469,-5.7118,-5.7745,-5.9251,-5.9708,-5.9281,-5.8512,-5.7799,-5.7016,-5.6267,-5.5953,-5.5919,-5.5784,-5.5681,-5.5681,-5.5681,-5.5818,-5.5953,-5.5953,-5.6427,-5.7036,-5.7036,-5.7408,-5.7881,-5.7881,-5.7881,-5.7881,-5.7881,-5.7881,-5.7881,-5.7881,-5.7881,-5.7881,-5.7881,-5.7881,-5.7881,-5.7881,-5.7881,-5.7881,-5.7881,-5.7881,-5.7881,-5.7881,-5.7881,-5.7881,-5.7881,-5.7772,-5.7368,-5.6547,-5.6001,-5.532,-5.4327,-5.324,-5.2516,-5.229,-5.1618,-5.1229,-5.1229,-5.1229,-5.1229,-5.1229,-5.1229,-5.1229,-5.1229,-5.1229,-5.1229,-5.1229,-5.1229,-5.1229,-5.1229,-5.1229,-5.1229,-5.1722,-5.2727,-5.3789,-5.5883,-5.7618,-5.8959,-5.9375,-5.948,-5.9774,-6.0837,-6.1016,-6.0927,-6.0595,-6.021,-5.9589,-5.8559,-5.7736,-5.7054,-5.6364,-5.5953,-5.5681,-5.5681,-5.5681,-5.5681,-5.5681,-5.5681,-5.5681,-5.5681,-5.5378,-5.5175,-5.5175,-5.4837,-5.4668,-5.4668,-5.4668,-5.4668,-5.4668,-5.4668,-5.4668,-5.4668,-5.5566,-5.6531,-5.7497,-5.8952,-5.9393,-5.9031,-5.8107,-5.7499,-5.7054,-5.5724,-5.5175,-5.5141,-5.4803,-5.4668,-5.4668,-5.4668,-5.4871,-5.5175,-5.5175,-5.5683,-5.6292,-5.6292,-5.6528,-5.6867,-5.6867,-5.6867,-5.6867,-5.6867,-5.6867,-5.6867,-5.6867,-5.7103,-5.7374,-5.7374,-5.7645,-5.7881,-5.7881,-5.7881,-5.7881,-5.7881,-5.7881,-5.7881,-5.7881,-5.7881,-5.7881,-5.7881,-5.7735,-5.7256,-5.6165,-5.577,-5.5076,-5.3644,-5.2931,-5.2426,-5.1957,-5.1479,-5.1229,-5.1229,-5.1229,-5.1229,-5.1229,-5.1229,-5.1229,-5.1229,-5.1229,-5.1229,-5.1229,-5.1229,-5.1229,-5.1229,-5.1229,-5.1229,-5.0878,-5.2935,-5.5245,-5.7127,-5.8261,-5.8906,-5.9078,-5.8908,-5.8871,-5.9499,-5.9797,-5.9966,-5.9838,-5.9141,-5.8392,-5.7738,-5.6915,-5.6164,-5.5583,-5.5412,-5.5309,-5.5309,-5.5309,-5.5309,-5.5309,-5.5309,-5.5309,-5.5309,-5.4769,-5.4397,-5.4397,-5.3822,-5.345,-5.3315,-5.3281,-5.3247,-5.3112,-5.3112,-5.3112,-5.3112,-5.4522,-5.5814,-5.7043,-5.8528,-5.918,-5.9128,-5.7981,-5.7419,-5.7167,-5.5306,-5.45,-5.4329,-5.3754,-5.3518,-5.3518,-5.3518,-5.389,-5.4397,-5.4397,-5.4905,-5.5513,-5.5513,-5.5615,-5.5681,-5.5681,-5.5681,-5.5681,-5.5681,-5.5681,-5.5681,-5.5681,-5.6156,-5.663,-5.663,-5.7171,-5.7746,-5.7848,-5.7881,-5.7881,-5.7881,-5.7881,-5.7881,-5.7881,-5.7881,-5.7881,-5.7845,-5.7662,-5.7072,-5.577,-5.5442,-5.4579,-5.2561,-5.2336,-5.2048,-5.1276,-5.1229,-5.1229,-5.1229,-5.1229,-5.1229,-5.1229,-5.1229,-5.1229,-5.1229,-5.1229,-5.1229,-5.1229,-5.1229,-5.1229,-5.1229,-5.1229,-5.1229,-4.9031,-5.1794,-5.4752,-5.7057,-5.8227,-5.9001,-5.9698,-5.8859,-5.7977,-5.8077,-5.9125,-5.9806,-5.9145,-5.8456,-5.7738,-5.7049,-5.5789,-5.4873,-5.477,-5.4194,-5.3788,-5.3788,-5.3788,-5.3788,-5.3788,-5.3788,-5.3788,-5.3788,-5.3721,-5.3653,-5.3653,-5.3551,-5.3179,-5.2469,-5.2469,-5.2164,-5.1489,-5.1522,-5.1522,-5.1522,-5.3445,-5.4997,-5.6174,-5.708,-5.7514,-5.7489,-5.6796,-5.6177,-5.5624,-5.4787,-5.4115,-5.3653,-5.3551,-5.3518,-5.3518,-5.3518,-5.3551,-5.3653,-5.3653,-5.4126,-5.4735,-5.4735,-5.5175,-5.5681,-5.5681,-5.5681,-5.5681,-5.5681,-5.5681,-5.5681,-5.5681,-5.5749,-5.5852,-5.5852,-5.6427,-5.7137,-5.7746,-5.7881,-5.7881,-5.7881,-5.7881,-5.7881,-5.7881,-5.7881,-5.7845,-5.7662,-5.7476,-5.6652,-5.4787,-5.4327,-5.3502,-5.1618,-5.1386,-5.1339,-5.1229,-5.1229,-5.1229,-5.1229,-5.1229,-5.1229,-5.1229,-5.1229,-5.1229,-5.1229,-5.1229,-5.1229,-5.1229,-5.1229,-5.1229,-5.1229,-5.1229,-5.1229,-4.8974,-5.1205,-5.3462,-5.626,-5.7868,-5.8927,-5.9306,-5.8869,-5.8288,-5.7874,-5.8014,-5.7981,-5.7226,-5.6474,-5.5928,-5.5617,-5.4668,-5.3991,-5.3991,-5.3687,-5.3518,-5.3518,-5.3518,-5.3518,-5.3518,-5.3518,-5.3518,-5.3518,-5.3518,-5.3315,-5.2841,-5.2841,-5.2469,-5.1725,-5.1691,-5.1555,-5.1185,-5.1185,-5.1566,-5.2205,-5.3108,-5.4188,-5.5414,-5.574,-5.618,-5.6661,-5.642,-5.5744,-5.4826,-5.4516,-5.4009,-5.3518,-5.3518,-5.3518,-5.3518,-5.3518,-5.3518,-5.3518,-5.3518,-5.3721,-5.3991,-5.3991,-5.4194,-5.4465,-5.4465,-5.4465,-5.4465,-5.4465,-5.4465,-5.4465,-5.4465,-5.4769,-5.5074,-5.5074,-5.5649,-5.6292,-5.6596,-5.7306,-5.7881,-5.7881,-5.7881,-5.7881,-5.7881,-5.7881,-5.7746,-5.7232,-5.7245,-5.6448,-5.4159,-5.3936,-5.3284,-5.1386,-5.1229,-5.1229,-5.1229,-5.1229,-5.1229,-5.1229,-5.1229,-5.1229,-5.1229,-5.1229,-5.1229,-5.1229,-5.1229,-5.1229,-5.1229,-5.1229,-5.0973,-5.0614,-5.0614,-5.0481,-4.8677,-5.0247,-5.1767,-5.4732,-5.6705,-5.7996,-5.8479,-5.8319,-5.7977,-5.7597,-5.6679,-5.5784,-5.5243,-5.4837,-5.46,-5.46,-5.3991,-5.3518,-5.3518,-5.3518,-5.3518,-5.3518,-5.3518,-5.3518,-5.3518,-5.3518,-5.3416,-5.3213,-5.3213,-5.2841,-5.2063,-5.2029,-5.1691,-5.0947,-5.0913,-5.0845,-5.0642,-5.0642,-5.1172,-5.2228,-5.2544,-5.3318,-5.4386,-5.4725,-5.5188,-5.5678,-5.5705,-5.5107,-5.4115,-5.4115,-5.3873,-5.3518,-5.3518,-5.3518,-5.3518,-5.3518,-5.3518,-5.3518,-5.3518,-5.3518,-5.3518,-5.3518,-5.3518,-5.3518,-5.3518,-5.3518,-5.3518,-5.3518,-5.3518,-5.3518,-5.3518,-5.3923,-5.4329,-5.4329,-5.4871,-5.548,-5.5683,-5.6562,-5.734,-5.734,-5.734,-5.734,-5.734,-5.734,-5.7101,-5.6453,-5.6389,-5.5622,-5.3373,-5.3123,-5.2492,-5.0906,-5.087,-5.0913,-5.0913,-5.1109,-5.1229,-5.1229,-5.1229,-5.1229,-5.1229,-5.1229,-5.1229,-5.1229,-5.1003,-5.105,-5.1229,-5.105,-5.0674,-5.0196,-5.0016,-4.9733,-4.7156,-4.8417,-4.9686,-5.2355,-5.4153,-5.5735,-5.7384,-5.6729,-5.5973,-5.6631,-5.5109,-5.3653,-5.3619,-5.416,-5.46,-5.46,-5.3991,-5.3518,-5.3518,-5.3518,-5.3518,-5.3518,-5.3518,-5.3518,-5.3518,-5.3518,-5.3179,-5.2435,-5.2367,-5.2063,-5.1319,-5.1285,-5.0913,-5.0168,-5.0135,-4.983,-4.912,-4.912,-4.9422,-5.0068,-5.1354,-5.228,-5.2962,-5.4289,-5.4575,-5.4037,-5.4089,-5.383,-5.3387,-5.3387,-5.3393,-5.3518,-5.3518,-5.3518,-5.3518,-5.3518,-5.3518,-5.3518,-5.3518,-5.3518,-5.3518,-5.3518,-5.3518,-5.3518,-5.3518,-5.3518,-5.3518,-5.3518,-5.3518,-5.3518,-5.3518,-5.3551,-5.3551,-5.3551,-5.4126,-5.4837,-5.5547,-5.5784,-5.5818,-5.5818,-5.5818,-5.5818,-5.5818,-5.5818,-5.5677,-5.5219,-5.449,-5.3506,-5.2159,-5.1245,-5.0406,-4.9509,-4.9912,-5.0255,-5.0255,-5.0823,-5.1229,-5.1229,-5.1229,-5.1229,-5.1229,-5.1229,-5.1229,-5.1229,-5.0554,-5.0554,-5.1229,-5.0554,-5.0226,-5.0196,-4.9613,-4.9329,-4.5635,-4.712,-4.864,-5.0838,-5.2919,-5.474,-5.6051,-5.5958,-5.5662,-5.5939,-5.5039,-5.4059,-5.3585,-5.3721,-5.389,-5.389,-5.3687,-5.3518,-5.3518,-5.3518,-5.3518,-5.3518,-5.3518,-5.3518,-5.3518,-5.3518,-5.3179,-5.2367,-5.23,-5.1758,-5.0574,-5.0473,-5.0168,-4.9424,-4.939,-4.9255,-4.9018,-4.9018,-4.9496,-5.0432,-5.0897,-5.166,-5.2618,-5.3134,-5.3026,-5.2396,-5.2024,-5.2418,-5.3222,-5.3287,-5.3359,-5.3518,-5.3518,-5.3518,-5.3518,-5.3518,-5.3518,-5.3518,-5.3518,-5.3518,-5.3518,-5.3518,-5.3518,-5.3518,-5.3518,-5.3518,-5.3518,-5.3518,-5.3518,-5.3518,-5.3518,-5.3518,-5.3518,-5.3518,-5.3687,-5.3957,-5.4228,-5.504,-5.5681,-5.5681,-5.5681,-5.5681,-5.5681,-5.5681,-5.5442,-5.469,-5.4634,-5.3851,-5.1694,-5.1401,-5.0917,-4.9434,-4.9853,-5.0196,-5.0196,-5.0794,-5.1229,-5.1229,-5.1229,-5.1229,-5.1229,-5.1229,-5.102,-5.0554,-5.0315,-5.0315,-5.0554,-4.9942,-4.9404,-4.8985,-4.8745,-4.8416,-4.4512,-4.5671,-4.7017,-4.9195,-5.0716,-5.2183,-5.4013,-5.4092,-5.3967,-5.4756,-5.4327,-5.3754,-5.3551,-5.3518,-5.3518,-5.3518,-5.3518,-5.3518,-5.3518,-5.3518,-5.3518,-5.3518,-5.3518,-5.3518,-5.3518,-5.3518,-5.3179,-5.2367,-5.2063,-5.1386,-5.0168,-4.9864,-4.9492,-4.9018,-4.9018,-4.9018,-4.9018,-4.9199,-4.9669,-5.0425,-5.0805,-5.1414,-5.2186,-5.241,-5.2257,-5.186,-5.1043,-5.1492,-5.2812,-5.266,-5.2961,-5.3518,-5.3518,-5.3518,-5.3518,-5.3518,-5.3518,-5.3518,-5.3518,-5.3518,-5.3518,-5.3518,-5.3518,-5.3518,-5.3518,-5.3518,-5.3518,-5.3518,-5.3518,-5.3518,-5.3518,-5.3518,-5.3518,-5.3518,-5.3518,-5.3518,-5.3518,-5.4262,-5.4972,-5.4972,-5.4972,-5.4972,-5.4972,-5.4903,-5.463,-5.3917,-5.3864,-5.3165,-5.1346,-5.0911,-5.0454,-4.9486,-4.9674,-5.0002,-5.0166,-5.0794,-5.1229,-5.1229,-5.102,-5.0853,-5.0853,-5.069,-5.0361,-4.9912,-4.9703,-4.9583,-4.9583,-4.9164,-4.876,-4.8267,-4.8057,-4.7728,0.0,0.0,0.0,-4.728,-4.7544,-4.8041,-5.1272,-5.0943,-5.0674,-5.2942,-5.2773,-5.2469,-5.3281,-5.345,-5.345,-5.345,-5.3484,-5.3518,-5.3518,-5.3518,-5.3518,-5.3518,-5.3518,-5.3518,-5.3518,-5.3518,-5.3179,-5.2367,-5.1623,-5.0879,-5.0135,-4.939,-4.9018,-4.9018,-4.9018,-4.9018,-4.9049,-4.9615,-4.9902,-4.9959,-5.1087,-5.1601,-5.1626,-5.2233,-5.248,-5.2434,-5.126,-5.1242,-5.2054,-5.1405,-5.2063,-5.345,-5.345,-5.345,-5.345,-5.345,-5.3484,-5.3518,-5.3518,-5.3518,-5.3518,-5.3518,-5.3518,-5.3518,-5.3518,-5.3518,-5.3518,-5.3518,-5.3518,-5.3518,-5.3518,-5.3518,-5.3518,-5.3518,-5.3518,-5.3518,-5.3518,-5.3518,-5.3518,-5.3518,-5.3518,-5.3518,-5.3518,-5.3348,-5.3144,-5.2938,-5.2059,-5.1364,-5.1102,-4.9638,-4.8861,-4.9424,-4.9381,-4.9523,-5.0076,-5.0764,-5.1169,-5.1169,-5.0524,-5.0166,-5.0166,-4.9613,-4.9299,-4.9269,-4.8626,-4.8267,-4.8267,-4.8267,-4.8267,-4.8237,-4.7608,-4.7309,-4.3191,0.0,0.0,0.0,0.0,0.0,-4.9214,-4.8913,-4.8758,-5.067,-5.0845,-5.0947,-5.1725,-5.2266,-5.2638,-5.2638,-5.3112,-5.3518,-5.3518,-5.3518,-5.3518,-5.3518,-5.3518,-5.3518,-5.3518,-5.3518,-5.3179,0.0,-5.1623,-5.0879,-5.0135,-4.939,-4.9018,-4.9018,-4.9018,-4.9199,-4.9644,-4.982,-5.0328,-5.114,-5.1449,-5.1835,-5.2269,-5.241,-5.248,-5.2457,-5.1676,-5.1564,-5.1876,-5.0841,-5.098,-5.186,-5.186,-5.2164,-5.2638,-5.2638,-5.301,-5.3518,-5.3518,-5.3518,-5.3518,-5.3518,-5.3518,-5.3518,-5.3518,-5.3518,-5.3518,-5.3518,-5.3518,-5.3518,-5.3518,-5.3518,-5.3518,-5.3518,-5.3518,-5.3518,-5.3518,-5.3518,-5.3518,-5.3518,-5.3518,-5.3518,-5.3518,-5.345,-5.3314,-5.2938,-5.2661,-5.2164,-5.1215,-5.0151,-4.93,-4.8903,-4.9109,-4.9179,-4.8835,-4.9853,-5.0301,-4.9823,-4.9643,-4.9523,-4.9523,-4.9419,-4.909,-4.8566,-4.8386,-4.8057,-4.7578,-4.7578,-4.7578,-4.7578,-4.7399,-4.7309,-4.3389,-4.4077,-4.4995,-4.5767,0.0,0.0,-4.7797,-4.7568,-4.7483,-4.8904,-4.9424,-4.9864,-5.0608,-5.1352,-5.1961,-5.2266,-5.2706,-5.3112,-5.345,-5.3518,-5.3619,-5.3923,-5.3957,-5.3957,-5.3957,-5.3957,-5.3653,-5.2875,-5.1826,-5.0744,-4.9695,-4.9221,-4.9018,-4.9018,-4.9018,-4.929,-4.9873,-5.0096,-5.0706,-5.1601,-5.186,-5.2162,-5.248,-5.248,-5.2364,-5.209,-5.15,-5.114,-5.0989,-5.0025,-5.027,-5.1185,-5.1185,-5.1488,-5.1894,-5.2198,-5.2604,-5.3044,-5.3382,-5.3518,-5.3518,-5.3518,-5.3518,-5.3518,-5.3518,-5.3518,-5.3518,-5.3518,-5.3518,-5.3518,-5.3518,-5.3518,-5.3518,-5.3518,-5.3518,-5.3518,-5.3518,-5.3518,-5.3518,-5.3518,-5.3518,-5.3518,-5.3518,-5.3416,-5.328,-5.2938,-5.2834,-5.2343,-5.1215,-5.0345,-4.9613,-4.9026,-4.8927,-4.885,-4.876,-4.9404,-4.9673,-4.9329,-4.906,-4.8865,-4.8865,-4.8596,-4.8267,-4.7878,-4.7878,-4.7698,-4.7309,-4.7309,-4.7309,-4.7309,-4.7309,-4.7309,-4.4222,-4.4295,-4.4693,-4.6033,-4.6082,0.0,-4.6727,-4.6551,-4.6453,-4.7432,-4.8101,-4.8748,-4.956,-5.0338,-5.1082,-5.1691,-5.1961,-5.2401,-5.3382,-5.3518,-5.3754,-5.4397,-5.4532,-5.4566,-5.4465,-5.4532,-5.4296,-5.3551,-5.2097,-5.0574,-4.9086,-4.9018,-4.9018,-4.9018,-4.9018,-4.932,-4.9988,-5.0452,-5.1052,-5.1712,-5.2233,-5.248,-5.248,-5.2434,-5.2114,-5.1576,-5.0938,-5.0404,-4.9844,-4.932,-4.9825,-5.0948,-5.0948,-5.1014,-5.1183,-5.1928,-5.2232,-5.2435,-5.3213,-5.3518,-5.3518,-5.3518,-5.3518,-5.3518,-5.3518,-5.3518,-5.3518,-5.3518,-5.3518,-5.3518,-5.3518,-5.3518,-5.3518,-5.3518,-5.3518,-5.3518,-5.3518,-5.3518,-5.3518,-5.3518,-5.3518,-5.3518,-5.3518,-5.3348,-5.3144,-5.2938,-5.2659,-5.2128,-5.1247,-5.0267,-4.9618,-4.9416,-4.8732,-4.8506,-4.906,-4.9179,-4.9179,-4.909,-4.8506,-4.8177,-4.8177,-4.7608,-4.7309,-4.7309,-4.7309,-4.7309,-4.7309,-4.7309,-4.7309,-4.7309,-4.7309,-4.7309,-4.5055,-4.5526,-4.5961,-4.5635,-4.5936,0.0,-4.5218,-4.4671,-4.46,-4.5601,-4.5642,-4.5872,-4.7192,-4.8037,-4.8582,-4.8717,-4.9763,-5.1217,-5.3213,-5.3518,-5.3551,-5.3687,-5.4228,-5.4363,-5.3788,-5.4262,-5.4296,-5.3551,-5.2097,-5.0574,-4.9086,-4.9018,-4.9018,-4.9018,-4.9018,-4.9526,-5.0535,-5.0643,-5.126,-5.234,-5.2434,-5.248,-5.248,-5.2018,-5.1736,-5.1576,-5.0938,-5.0404,-4.9873,-4.9756,-4.9607,-4.9424,-4.9424,-4.9796,-5.0405,-5.115,-5.1792,-5.2435,-5.3213,-5.3518,-5.3518,-5.3518,-5.3518,-5.3518,-5.3518,-5.3518,-5.3518,-5.3518,-5.3518,-5.3518,-5.3518,-5.3518,-5.3518,-5.3518,-5.3518,-5.3518,-5.3518,-5.3518,-5.3518,-5.3518,-5.3518,-5.3518,-5.3518,-5.3348,-5.3144,-5.2938,-5.22,-5.1512,-5.114,-4.9757,-4.8811,-4.88,-4.8503,-4.8117,-4.7728,-4.8177,-4.8237,-4.7728,-4.7578,-4.7489,-4.7489,-4.7369,-4.7309,-4.7309,-4.7309,-4.7309,-4.7309,-4.7309,-4.7309,-4.7309,-4.7309,-4.7309,-4.6504,-4.6504,-4.6395,-4.5997,-4.6504,0.0,0.0,-4.4542,-4.4488,-4.4856,-4.4442,-4.435,-4.5495,-4.6312,-4.6921,-4.7293,-4.8274,-4.9526,-5.1048,-5.2198,-5.3179,-5.3957,-5.4363,-5.4431,-5.4093,-5.4363,-5.3957,-5.2469,-5.1657,-5.0574,-4.9086,-4.9018,-4.9018,-4.9018,-4.929,-4.9873,-5.0697,-5.0991,-5.1601,-5.248,-5.248,-5.248,-5.2457,-5.1884,-5.1449,-5.1131,-5.057,-4.9988,-4.9436,-4.9436,-4.929,-4.9018,-4.9018,-4.9221,-4.9627,-5.0371,-5.0879,-5.1352,-5.2503,-5.2909,-5.2976,-5.3382,-5.3518,-5.3518,-5.3518,-5.3518,-5.3518,-5.3518,-5.3518,-5.3518,-5.3518,-5.3518,-5.3518,-5.3518,-5.3518,-5.3518,-5.3518,-5.3518,-5.3518,-5.3518,-5.3518,-5.3518,-5.3518,-5.3416,-5.328,-5.3076,-5.252,-5.1769,-5.0697,-4.9765,-4.8872,-4.8061,-4.7882,-4.7668,-4.7339,-4.7608,-4.7668,-4.7339,-4.7309,-4.7309,-4.7309,-4.7309,-4.7309,-4.7309,-4.7309,-4.7309,-4.7309,-4.7309,-4.7309,-4.7309,-4.7309,-4.7309,-4.7714,-4.7228,-4.6649,-4.6359,-4.6866,-4.6924,0.0,0.0,0.0,-4.419,-4.3722,-4.3572,-4.4045,-4.4756,-4.5399,-4.5838,-4.6684,-4.7496,-4.8071,-5.0067,-5.1961,-5.3348,-5.3754,-5.389,-5.3754,-5.3721,-5.301,-5.1352,-5.0947,-5.027,-4.9052,-4.9018,-4.9018,-4.9018,-4.9448,-4.9916,-5.0452,-5.0931,-5.1442,-5.2045,-5.2045,-5.2118,-5.2263,-5.1633,-5.1118,-5.067,-5.0124,-4.9555,-4.9018,-4.9018,-4.9018,-4.9018,-4.9018,-4.9018,-4.9086,-4.983,-5.0101,-5.027,-5.1623,-5.2198,-5.2401,-5.3078,-5.3382,-5.3518,-5.3518,-5.3518,-5.3518,-5.3518,-5.3518,-5.3518,-5.3518,-5.3518,-5.3518,-5.3518,-5.3518,-5.3518,-5.3518,-5.3518,-5.3518,-5.3518,-5.3518,-5.3518,-5.3518,-5.345,-5.3382,-5.3213,-5.2868,-5.2023,-5.032,-4.9805,-4.8994,-4.7452,-4.7309,-4.7309,-4.7309,-4.7309,-4.7309,-4.7309,-4.7309,-4.7309,-4.7309,-4.7309,-4.7309,-4.7309,-4.7309,-4.7309,-4.7309,-4.7309,-4.7309,-4.7309,-4.7309,-4.7309,-4.7895,-4.7627,-4.7228,-4.578,-4.6033,-4.591,-4.315,0.0,-4.3617,-4.2447,0.0,-4.3234,-4.2658,0.0,0.0,-4.2895,-4.4012,-4.5021,-4.5089,-4.6989,-4.8714,-4.956,-5.0811,-5.1352,-5.0676,-5.0608,-5.0777,-5.1183,-4.9999,-4.9187,-4.9018,-4.9018,-4.9018,-4.9018,-4.8905,-4.9091,-4.9626,-4.9558,-4.9769,-5.0365,-5.0365,-5.0764,-5.143,-5.082,-5.0622,-5.067,-5.0124,-4.9555,-4.9018,-4.9018,-4.9018,-4.9018,-4.9018,-4.9018,-4.9086,-4.983,-5.0101,-5.0202,-5.1048,-5.1758,-5.2334,-5.2401,-5.2909,-5.3518,-5.3518,-5.3518,-5.3518,-5.3518,-5.3518,-5.3518,-5.3518,-5.3518,-5.3518,-5.3518,-5.3518,-5.3518,-5.3518,-5.3518,-5.3518,-5.3518,-5.3518,-5.3518,-5.3518,-5.3348,-5.3213,-5.3179,-5.2274,-5.122,-5.0242,-4.9287,-4.8366,-4.7396,-4.7309,-4.7309,-4.7309,-4.7309,-4.7309,-4.7309,-4.7309,-4.7309,-4.7309,-4.7309,-4.7309,-4.7309,-4.7309,-4.7309,-4.7309,-4.7309,-4.7309,-4.7309,-4.7309,-4.7309,-4.8475,-4.804,-4.7446,-4.6287,-4.625,-4.5983,-4.3978,-4.3346,-4.3045,-4.26,0.0,0.0,0.0,0.0,0.0,0.0,-4.2557,-4.3295,-4.3295,-4.4045,-4.5568,-4.8071,-4.9289,-4.9965,-5.0067,-5.0101,-5.0236,-5.0541,-4.9593,-4.9018,-4.9018,-4.9018,-4.9018,-4.9018,-4.8836,-4.8987,-4.9521,-4.9334,-4.9541,-5.0112,-5.0112,-5.0293,-5.0574,-4.9673,-4.929,-4.9346,-4.8931,-4.8583,-4.8409,-4.8815,-4.9018,-4.9018,-4.9018,-4.9018,-4.9052,-4.9357,-4.9458,-4.956,-5.0304,-5.0744,-5.115,-5.2029,-5.2536,-5.2875,-5.3382,-5.3518,-5.3518,-5.3518,-5.3518,-5.3518,-5.3518,-5.3518,-5.3518,-5.3518,-5.3518,-5.3518,-5.3518,-5.3518,-5.3518,-5.3518,-5.3518,-5.3518,-5.3518,-5.3416,-5.3382,-5.3382,-5.2835,-5.1918,-5.0435,-4.9813,-4.8882,-4.7452,-4.7309,-4.7309,-4.7309,-4.7309,-4.7309,-4.7309,-4.7309,-4.7309,-4.7309,-4.7309,-4.7309,-4.7309,-4.7309,-4.7309,-4.7309,-4.7309,-4.7309,-4.7309,-4.7309,-4.7309,-4.8619,-4.8149,-4.7446,-4.6432,-4.6178,-4.5766,-4.4228,-4.3417,-4.2905,-4.2738,-4.1963,0.0,0.0,0.0,-4.1677,-4.1271,0.0,-4.2151,-4.1745,-4.2049,-4.3301,-4.6041,-4.7225,-4.8173,-4.9086,-4.8815,-4.8815,-4.9458,-4.8443,-4.8071,-4.868,-4.8714,-4.8714,-4.8714,-4.8557,-4.855,-4.8687,-4.8498,-4.8697,-4.9225,-4.9225,-4.9436,-4.9742,-4.8781,-4.8358,-4.8364,-4.802,-4.7848,-4.7939,-4.8477,-4.8815,-4.9018,-4.9018,-4.9018,-4.9018,-4.9018,-4.9018,-4.9086,-4.9593,-4.9932,-5.0338,-5.1826,-5.23,-5.2469,-5.3281,-5.3518,-5.3518,-5.3518,-5.3518,-5.3518,-5.3518,-5.3518,-5.3518,-5.3518,-5.3518,-5.3518,-5.3518,-5.3518,-5.3518,-5.3518,-5.3518,-5.3518,-5.3518,-5.3518,-5.3416,-5.3212,-5.3007,-5.217,-5.0313,-4.9923,-4.9125,-4.7452,-4.7309,-4.7309,-4.7309,-4.7309,-4.7309,-4.7309,-4.7309,-4.7309,-4.7309,-4.7309,-4.7309,-4.7309,-4.7309,-4.7309,-4.7309,-4.7309,-4.7309,-4.7309,-4.7309,-4.7309,-4.7953,-4.7735,-4.7337,-4.5743,-4.5345,-4.4811,-4.2747,-4.2984,-4.3325,-4.2175,-4.3295,-4.4005,-4.2523,-4.2861,-4.2834,-4.1441,-4.1813,0.0,0.0,-4.1399,-4.232,-4.2455,-4.3836,-4.5326,-4.6752,-4.5602,-4.5635,-4.7804,-4.594,-4.5669,-4.7804,-4.7939,-4.7939,-4.7939,-4.774,-4.7293,-4.6596,-4.6339,-4.6495,-4.702,-4.702,-4.7698,-4.8945,-4.8348,-4.8245,-4.8355,-4.7835,-4.774,-4.7906,-4.7906,-4.8376,-4.9018,-4.9018,-4.9018,-4.9018,-4.9018,-4.9018,-4.9018,-4.9018,-4.9492,-5.0338,-5.1826,-5.23,-5.2469,-5.3281,-5.3518,-5.3518,-5.3518,-5.3518,-5.3518,-5.3518,-5.3518,-5.3518,-5.3518,-5.3518,-5.3518,-5.3518,-5.3518,-5.3518,-5.3518,-5.3518,-5.3518,-5.3518,-5.3518,-5.3246,-5.2449,-5.22,-5.1369,-4.9479,-4.9035,-4.8532,-4.7439,-4.7309,-4.7309,-4.7309,-4.7309,-4.7309,-4.7309,-4.7309,-4.7309,-4.7309,-4.7309,-4.7309,-4.7309,-4.7309,-4.7309,-4.7309,-4.7309,-4.7309,-4.7309,-4.7309,-4.7309,0.0,0.0,-4.7446,-4.6359,-4.5707,-4.4979,-4.372,-4.3477,-4.3289,-4.2509,-4.3039,-4.3339,-4.2468,-4.2489,-4.2354,-4.1373,-4.1407,-4.1238,0.0,-4.0519,-4.0857,-4.0857,-4.2591,-4.4012,-4.4519,-4.4113,-4.4553,-4.6312,-4.5297,0.0,-4.709,-4.7158,-4.7158,-4.7158,-4.6651,-4.639,-4.65,-4.5884,-4.5825,-4.6365,-4.673,-4.716,-4.7546,-4.7027,-4.6797,-4.6856,-4.6502,-4.6379,-4.6515,-4.75,-4.8041,-4.8342,-4.8815,-4.9018,-4.9018,-4.9018,-4.9018,-4.9018,-4.9018,-4.9154,-4.9627,-5.1116,-5.1589,-5.1826,-5.3112,-5.3518,-5.3518,-5.3518,-5.3518,-5.3518,-5.3518,-5.3518,-5.3518,-5.3518,-5.3518,-5.3518,-5.3518,-5.3518,-5.3518,-5.3518,-5.3518,-5.3518,-5.3518,-5.3518,-5.3382,-5.3144,-5.2416,-5.1447,-5.0158,-4.9327,-4.8418,-4.7409,-4.7309,-4.7309,-4.7309,-4.7309,-4.7309,-4.7309,-4.7309,-4.7309,-4.7309,-4.7309,-4.7309,-4.7309,-4.7309,-4.7309,-4.7309,-4.7309,-4.7309,-4.7309,-4.7309,-4.7309,-4.7699,-4.7699,0.0,-4.6721,-4.6106,-4.5526,-4.4693,-4.4351,-4.4062,-4.3534,-4.3691,-4.3718,-4.3233,-4.2861,-4.2455,-4.1711,-4.1373,-4.0933,0.0,-4.0113,-4.0113,-4.0113,-4.1576,-4.2598,-4.2598,-4.2598,-4.3267,-4.479,-4.4181,-4.4553,0.0,-4.6413,-4.6413,-4.6413,-4.594,-4.5739,-4.5823,-4.5336,-4.5294,-4.5825,-4.6147,-4.6448,-4.6613,-4.6049,-4.58,-4.5784,-4.5446,-4.5466,-4.5805,-4.7022,-4.7665,-4.7973,-4.8714,-4.9018,-4.9018,-4.9018,-4.9018,-4.9018,-4.9018,-4.9018,-4.9221,-5.0405,-5.1014,-5.1454,-5.2706,-5.3281,-5.3518,-5.3518,-5.3518,-5.3518,-5.3518,-5.3518,-5.3518,-5.3518,-5.3518,-5.3518,-5.3518,-5.3518,-5.3518,-5.3518,-5.3518,-5.3518,-5.3518,-5.3518,-5.3382,-5.3144,-5.2416,-5.1447,-5.0158,-4.9327,-4.8418,-4.7409,-4.7309,-4.7309,-4.7309,-4.7309,-4.7309,-4.7309,-4.7309,-4.7309,-4.7309,-4.7309,-4.7309,-4.7309,-4.7309,-4.7309,-4.7309,-4.7309,-4.7309,-4.7309,-4.7309,-4.7309]},{"header":{"parameterUnit":"m.s-1","parameterCategory":1,"la1":30.6,"la2":29.2853,"lo1":-89.7004,"lo2":-87.6739,"dy":0.0162,"dx":0.0183,"nx":112,"ny":82,"refTime":"2024-05-23T12:00:00:Z","depth":0,"parameterNumber":3,"parameterNumberName":"V-component_of_WINDS"},"data":[0.0,0.0,0.0,0.0,0.0,0.0,0.0,0.0,0.0,0.0,0.0,0.0,0.0,0.0,0.0,0.0,0.0,0.0,0.0,0.0,0.0,0.0,0.0,0.0,0.0,0.0,0.0,0.0,0.0,0.0,0.0,0.0,0.0,0.0,0.0,0.0,0.0,0.0,0.0,0.0,0.0,0.0,0.0,0.0,0.0,0.0,0.0,0.0,0.0,0.0,0.0,0.0,0.0,0.0,0.0,0.0,0.0,0.0,0.0,0.0,0.0,0.0,0.0,0.0,0.0,0.0,0.0,0.0,0.0,0.0,0.0,0.0,0.0,0.0,0.0,0.0,0.0,0.0,0.0,0.0,0.0,0.0,0.0,0.0,0.0,0.0,0.0,0.0,0.0,0.0,-3.1797,-3.4121,-3.5371,-3.6016,-3.6016,-3.5957,-3.4844,-3.2324,0.0,0.0,0.0,0.0,0.0,0.0,0.0,0.0,0.0,0.0,0.0,0.0,0.0,0.0,0.0,0.0,0.0,0.0,0.0,0.0,0.0,0.0,0.0,0.0,0.0,0.0,0.0,0.0,0.0,0.0,0.0,0.0,0.0,0.0,0.0,0.0,0.0,0.0,0.0,0.0,0.0,0.0,0.0,0.0,0.0,0.0,0.0,0.0,0.0,0.0,0.0,0.0,0.0,0.0,0.0,0.0,0.0,0.0,0.0,0.0,0.0,0.0,0.0,0.0,0.0,0.0,0.0,0.0,0.0,0.0,0.0,0.0,0.0,0.0,0.0,0.0,0.0,0.0,0.0,0.0,0.0,0.0,0.0,0.0,0.0,0.0,0.0,0.0,0.0,0.0,0.0,0.0,0.0,0.0,0.0,0.0,0.0,0.0,0.0,0.0,0.0,0.0,0.0,0.0,-3.2129,-3.5371,-3.5898,-3.6016,-3.6016,-3.5703,-3.4531,-3.2366,0.0,0.0,0.0,0.0,0.0,0.0,0.0,0.0,0.0,0.0,0.0,0.0,0.0,0.0,0.0,0.0,0.0,0.0,0.0,0.0,0.0,0.0,0.0,0.0,0.0,0.0,0.0,0.0,0.0,0.0,0.0,0.0,0.0,0.0,0.0,0.0,0.0,0.0,0.0,0.0,0.0,0.0,0.0,0.0,0.0,0.0,0.0,0.0,0.0,0.0,0.0,0.0,0.0,0.0,0.0,0.0,0.0,0.0,0.0,0.0,0.0,0.0,0.0,0.0,0.0,0.0,0.0,0.0,0.0,0.0,0.0,0.0,0.0,0.0,0.0,0.0,0.0,0.0,0.0,0.0,0.0,0.0,0.0,0.0,0.0,0.0,0.0,0.0,0.0,0.0,0.0,0.0,0.0,0.0,0.0,0.0,0.0,0.0,0.0,0.0,0.0,0.0,0.0,-3.1191,-3.2988,-3.5723,-3.6016,-3.6016,-3.6016,-3.5625,-3.4473,-3.2366,-3.1133,0.0,0.0,0.0,0.0,0.0,0.0,0.0,0.0,0.0,0.0,0.0,0.0,0.0,0.0,0.0,0.0,0.0,0.0,0.0,0.0,0.0,0.0,0.0,0.0,0.0,0.0,0.0,0.0,0.0,0.0,0.0,0.0,0.0,0.0,0.0,0.0,0.0,0.0,0.0,0.0,0.0,0.0,0.0,0.0,0.0,0.0,0.0,0.0,0.0,0.0,0.0,0.0,0.0,0.0,0.0,0.0,0.0,0.0,0.0,0.0,0.0,0.0,0.0,0.0,0.0,0.0,0.0,0.0,0.0,0.0,0.0,0.0,0.0,0.0,0.0,0.0,0.0,0.0,0.0,0.0,0.0,0.0,0.0,0.0,0.0,0.0,0.0,0.0,0.0,0.0,0.0,0.0,0.0,0.0,0.0,0.0,0.0,0.0,0.0,0.0,0.0,0.0,-3.2695,-3.373,-3.5801,-3.6016,-3.6016,-3.6016,-3.5351,-3.4101,-3.2129,-3.0817,0.0,0.0,0.0,0.0,0.0,0.0,0.0,0.0,0.0,0.0,0.0,0.0,0.0,0.0,0.0,0.0,0.0,0.0,0.0,0.0,0.0,0.0,0.0,0.0,0.0,0.0,0.0,0.0,0.0,0.0,0.0,0.0,0.0,0.0,0.0,0.0,0.0,0.0,0.0,0.0,0.0,0.0,0.0,0.0,0.0,0.0,0.0,0.0,0.0,0.0,0.0,0.0,0.0,0.0,0.0,0.0,0.0,0.0,0.0,0.0,0.0,0.0,0.0,0.0,0.0,0.0,0.0,0.0,0.0,0.0,0.0,0.0,0.0,0.0,0.0,0.0,0.0,0.0,0.0,0.0,0.0,0.0,0.0,0.0,0.0,0.0,0.0,0.0,0.0,0.0,0.0,0.0,0.0,0.0,0.0,0.0,0.0,0.0,0.0,0.0,0.0,0.0,-3.2402,-3.4062,-3.582,-3.6016,-3.6016,-3.6016,-3.4512,-3.2988,-3.1641,-3.046,0.0,0.0,0.0,0.0,0.0,0.0,0.0,0.0,0.0,0.0,0.0,0.0,0.0,0.0,0.0,0.0,0.0,0.0,0.0,0.0,0.0,0.0,0.0,0.0,0.0,0.0,0.0,0.0,0.0,0.0,0.0,0.0,0.0,0.0,0.0,0.0,0.0,0.0,0.0,0.0,0.0,0.0,0.0,0.0,0.0,0.0,0.0,0.0,0.0,0.0,0.0,0.0,0.0,0.0,0.0,0.0,0.0,0.0,0.0,0.0,0.0,0.0,0.0,0.0,0.0,0.0,0.0,0.0,0.0,0.0,0.0,0.0,0.0,0.0,0.0,0.0,0.0,0.0,0.0,0.0,0.0,0.0,0.0,0.0,0.0,0.0,0.0,0.0,0.0,0.0,0.0,0.0,0.0,0.0,0.0,0.0,0.0,0.0,0.0,0.0,0.0,0.0,-3.2148,-3.3809,-3.5801,-3.5781,-3.5625,-3.5625,-3.4277,-3.2871,-3.1601,0.0,0.0,0.0,0.0,0.0,0.0,0.0,0.0,0.0,0.0,0.0,0.0,0.0,0.0,0.0,0.0,0.0,0.0,0.0,0.0,0.0,0.0,0.0,0.0,0.0,0.0,0.0,0.0,0.0,0.0,0.0,0.0,0.0,0.0,0.0,0.0,0.0,0.0,0.0,0.0,0.0,0.0,0.0,0.0,0.0,0.0,0.0,0.0,0.0,0.0,0.0,0.0,0.0,0.0,0.0,0.0,0.0,0.0,0.0,0.0,0.0,0.0,0.0,0.0,0.0,0.0,0.0,0.0,0.0,0.0,0.0,0.0,0.0,0.0,0.0,0.0,0.0,0.0,0.0,0.0,0.0,0.0,0.0,0.0,0.0,0.0,0.0,0.0,0.0,0.0,0.0,0.0,0.0,0.0,0.0,0.0,0.0,0.0,0.0,0.0,0.0,0.0,-3.0312,-3.1914,-3.3516,-3.5391,-3.5351,-3.5176,-3.5176,-3.4092,-3.2852,-3.1622,0.0,0.0,0.0,0.0,0.0,0.0,0.0,0.0,0.0,0.0,0.0,0.0,0.0,0.0,0.0,0.0,0.0,0.0,0.0,0.0,0.0,0.0,0.0,0.0,0.0,0.0,0.0,0.0,0.0,0.0,0.0,0.0,0.0,0.0,0.0,0.0,0.0,0.0,0.0,0.0,0.0,0.0,0.0,0.0,0.0,0.0,0.0,0.0,0.0,0.0,0.0,0.0,0.0,0.0,0.0,0.0,0.0,0.0,0.0,0.0,0.0,0.0,0.0,0.0,0.0,0.0,0.0,0.0,0.0,0.0,0.0,0.0,0.0,0.0,0.0,0.0,0.0,0.0,0.0,0.0,0.0,0.0,0.0,0.0,0.0,0.0,0.0,0.0,0.0,0.0,0.0,0.0,0.0,0.0,0.0,0.0,0.0,0.0,0.0,0.0,0.0,0.0,-2.9922,-3.1719,-3.3281,-3.4551,-3.4687,-3.4687,-3.4687,-3.3821,-3.2839,0.0,0.0,0.0,0.0,0.0,0.0,0.0,0.0,0.0,0.0,0.0,0.0,0.0,0.0,0.0,0.0,0.0,0.0,0.0,0.0,0.0,0.0,0.0,0.0,0.0,0.0,0.0,0.0,0.0,0.0,0.0,0.0,0.0,0.0,0.0,0.0,0.0,0.0,0.0,0.0,0.0,0.0,0.0,0.0,0.0,0.0,0.0,0.0,0.0,0.0,0.0,0.0,0.0,0.0,0.0,0.0,0.0,0.0,0.0,0.0,0.0,0.0,0.0,0.0,0.0,0.0,0.0,0.0,0.0,0.0,0.0,0.0,0.0,0.0,0.0,0.0,0.0,0.0,0.0,0.0,0.0,0.0,0.0,0.0,0.0,0.0,0.0,0.0,0.0,0.0,0.0,0.0,0.0,0.0,0.0,0.0,0.0,0.0,0.0,0.0,0.0,0.0,0.0,-2.9961,-3.1973,-3.3613,-3.459,-3.4434,-3.4258,-3.4258,-3.3922,-3.2967,-3.1257,0.0,0.0,0.0,0.0,0.0,0.0,0.0,0.0,0.0,0.0,0.0,0.0,0.0,0.0,0.0,0.0,0.0,0.0,0.0,0.0,0.0,0.0,0.0,0.0,0.0,0.0,0.0,0.0,0.0,0.0,0.0,0.0,0.0,0.0,0.0,0.0,0.0,0.0,0.0,0.0,0.0,0.0,0.0,0.0,0.0,0.0,0.0,0.0,0.0,0.0,0.0,0.0,0.0,0.0,0.0,0.0,0.0,0.0,0.0,0.0,0.0,0.0,0.0,0.0,0.0,0.0,0.0,0.0,0.0,0.0,0.0,0.0,0.0,0.0,0.0,0.0,0.0,0.0,0.0,0.0,0.0,0.0,0.0,0.0,0.0,0.0,0.0,0.0,0.0,0.0,0.0,0.0,0.0,0.0,0.0,0.0,0.0,0.0,0.0,0.0,0.0,0.0,-2.9726,-3.168,-3.3242,-3.4101,-3.3965,-3.4064,-3.4552,-3.4632,-3.3974,-3.2415,0.0,0.0,0.0,0.0,0.0,0.0,0.0,0.0,0.0,0.0,0.0,0.0,0.0,0.0,0.0,0.0,0.0,0.0,0.0,0.0,0.0,0.0,0.0,0.0,0.0,0.0,0.0,0.0,0.0,0.0,0.0,0.0,0.0,0.0,0.0,0.0,0.0,0.0,0.0,0.0,0.0,0.0,0.0,0.0,0.0,0.0,0.0,0.0,0.0,0.0,0.0,0.0,0.0,0.0,0.0,0.0,0.0,0.0,0.0,0.0,0.0,0.0,0.0,0.0,0.0,0.0,0.0,0.0,0.0,0.0,0.0,0.0,0.0,0.0,0.0,0.0,0.0,0.0,0.0,0.0,0.0,0.0,0.0,0.0,0.0,0.0,0.0,0.0,0.0,0.0,0.0,0.0,0.0,0.0,0.0,0.0,0.0,0.0,0.0,0.0,0.0,0.0,-2.9411,-3.1152,-3.25,-3.332,-3.3418,-3.3902,-3.5314,-3.5606,-3.5342,-3.4569,0.0,0.0,0.0,0.0,0.0,0.0,0.0,0.0,0.0,0.0,0.0,0.0,0.0,0.0,0.0,0.0,0.0,0.0,0.0,0.0,0.0,0.0,0.0,0.0,0.0,0.0,0.0,0.0,0.0,0.0,0.0,0.0,0.0,0.0,0.0,0.0,0.0,0.0,0.0,0.0,0.0,0.0,0.0,0.0,0.0,0.0,0.0,0.0,0.0,0.0,0.0,0.0,0.0,0.0,0.0,0.0,0.0,0.0,0.0,0.0,-2.0241,-1.9773,0.0,0.0,0.0,0.0,0.0,0.0,0.0,0.0,0.0,0.0,0.0,0.0,0.0,0.0,0.0,0.0,0.0,0.0,0.0,0.0,0.0,0.0,0.0,0.0,0.0,0.0,0.0,0.0,0.0,0.0,0.0,0.0,0.0,0.0,0.0,0.0,0.0,0.0,0.0,0.0,-2.9411,-3.1152,-3.25,-3.332,-3.3418,-3.3902,-3.5314,-3.5606,-3.5342,-3.4569,-3.4091,0.0,0.0,0.0,0.0,0.0,0.0,0.0,0.0,0.0,0.0,0.0,0.0,0.0,0.0,0.0,0.0,0.0,0.0,0.0,0.0,0.0,0.0,0.0,0.0,0.0,0.0,0.0,0.0,0.0,0.0,0.0,0.0,0.0,0.0,0.0,0.0,0.0,0.0,0.0,0.0,0.0,0.0,0.0,0.0,0.0,0.0,0.0,0.0,0.0,0.0,0.0,0.0,0.0,0.0,0.0,0.0,0.0,0.0,0.0,-2.1309,-2.0855,0.0,0.0,0.0,0.0,0.0,0.0,0.0,0.0,0.0,0.0,0.0,0.0,0.0,0.0,0.0,0.0,0.0,0.0,0.0,0.0,0.0,0.0,0.0,0.0,0.0,0.0,0.0,0.0,0.0,0.0,0.0,0.0,0.0,0.0,0.0,0.0,0.0,0.0,0.0,0.0,-2.9062,-3.1283,-3.2975,-3.3576,-3.4187,-3.5077,-3.6394,-3.636,-3.616,-3.5806,-3.4934,0.0,0.0,0.0,0.0,0.0,0.0,0.0,0.0,0.0,0.0,0.0,0.0,0.0,0.0,0.0,0.0,0.0,0.0,0.0,0.0,0.0,0.0,0.0,0.0,0.0,0.0,0.0,0.0,0.0,0.0,0.0,0.0,0.0,0.0,0.0,0.0,0.0,0.0,0.0,0.0,0.0,0.0,0.0,0.0,0.0,0.0,0.0,0.0,0.0,0.0,0.0,0.0,0.0,-2.2217,-2.2191,-2.2098,-2.2445,-2.2726,-2.2939,-2.2699,-2.2258,-2.1683,-2.139,0.0,0.0,0.0,0.0,0.0,0.0,0.0,0.0,0.0,0.0,0.0,0.0,0.0,0.0,0.0,0.0,0.0,0.0,0.0,0.0,0.0,0.0,-2.9922,-3.0,-3.0586,-3.041,-2.7832,0.0,0.0,0.0,0.0,0.0,0.0,0.0,0.0,0.0,0.0,0.0,-2.9139,-3.1649,-3.3513,-3.4146,-3.5109,-3.6236,-3.7577,-3.7232,-3.7037,-3.7344,-3.5833,-3.4102,0.0,0.0,0.0,0.0,0.0,0.0,0.0,0.0,0.0,0.0,0.0,0.0,0.0,0.0,0.0,0.0,0.0,0.0,0.0,0.0,0.0,0.0,0.0,0.0,0.0,0.0,0.0,0.0,0.0,0.0,0.0,0.0,-1.7981,-1.7025,0.0,0.0,0.0,0.0,0.0,0.0,0.0,0.0,0.0,0.0,0.0,0.0,0.0,-2.2616,-2.3033,-2.3834,-2.3981,-2.3487,-2.4502,-2.4716,-2.4249,-2.4796,-2.5064,-2.5104,-2.5064,0.0,-2.2285,-2.1991,0.0,0.0,0.0,0.0,0.0,0.0,0.0,0.0,0.0,0.0,0.0,0.0,0.0,0.0,0.0,0.0,0.0,0.0,0.0,0.0,0.0,0.0,-3.1348,-3.1738,-3.1974,-3.1797,-3.1016,-2.9453,-2.8027,-2.7493,-2.6777,-2.6133,0.0,0.0,0.0,0.0,0.0,0.0,-3.0799,-3.2401,-3.3863,-3.53,-3.5576,-3.6236,-3.7577,-3.7232,-3.72,-3.7873,-3.6386,-3.4968,-3.3718,-3.1817,0.0,0.0,0.0,0.0,0.0,0.0,0.0,0.0,0.0,0.0,0.0,0.0,0.0,0.0,0.0,0.0,0.0,0.0,0.0,0.0,0.0,0.0,0.0,0.0,0.0,0.0,0.0,0.0,0.0,-1.6051,-1.5478,-1.4924,-1.4231,-1.3487,0.0,0.0,0.0,0.0,0.0,0.0,0.0,0.0,0.0,-2.1378,-2.2301,-2.3125,-2.3989,-2.4449,-2.4516,-2.4262,-2.4783,-2.489,-2.4649,-2.5077,-2.5277,-2.5264,-2.509,-2.4409,-2.3407,-2.3287,-2.2686,-2.1817,0.0,0.0,0.0,0.0,-2.6679,-2.8578,-3.0303,-3.0757,-3.0566,-3.0684,0.0,0.0,0.0,0.0,0.0,0.0,0.0,-3.041,-3.084,-3.1406,-3.1992,-3.2422,-3.2695,-3.2812,-3.2617,-3.166,-3.041,-2.9059,-2.8633,-2.8086,-2.6699,-2.625,0.0,0.0,0.0,-2.9807,-3.1228,-3.348,-3.5178,-3.5904,-3.6597,-3.7206,-3.7833,-3.7644,-3.7678,-3.7998,-3.6771,-3.5713,-3.4895,-3.3188,-3.1841,0.0,0.0,0.0,0.0,0.0,0.0,0.0,0.0,0.0,0.0,0.0,0.0,0.0,0.0,0.0,0.0,0.0,0.0,0.0,0.0,0.0,0.0,0.0,0.0,0.0,0.0,0.0,0.0,-1.4945,-1.4067,-1.3498,-1.3314,-1.2917,0.0,0.0,0.0,0.0,0.0,0.0,-1.6658,-1.8287,-2.0071,-2.1998,-2.294,-2.3982,-2.497,-2.505,-2.509,-2.509,-2.509,-2.509,-2.509,-2.5317,-2.5411,-2.5398,-2.5104,-2.485,-2.4636,-2.4409,-2.3701,-2.2739,-2.2525,-2.3299,-2.4741,-2.6214,-2.7798,-2.9653,-3.1965,-3.2536,-3.239,-3.2594,-3.1758,-3.0664,-3.0449,0.0,0.0,0.0,0.0,-3.1309,-3.1738,-3.209,-3.2441,-3.2851,-3.3184,-3.3418,-3.3418,-3.3184,-3.2422,-3.0586,-3.0391,-2.9961,-2.8144,-2.7578,0.0,-2.8034,-2.9533,-3.1072,-3.2286,-3.4677,-3.6332,-3.6611,-3.7441,-3.7974,-3.7974,-3.7882,-3.781,-3.781,-3.6771,-3.6026,-3.5641,-3.4246,-3.3092,-3.2274,0.0,0.0,0.0,0.0,0.0,0.0,0.0,0.0,0.0,0.0,0.0,0.0,0.0,0.0,0.0,0.0,0.0,0.0,0.0,0.0,0.0,0.0,0.0,0.0,0.0,0.0,0.0,0.0,0.0,-1.4323,-1.494,0.0,0.0,0.0,0.0,-1.3518,-1.3828,-1.5498,-1.8921,-1.9615,-2.1499,-2.4807,-2.5495,-2.5892,-2.597,-2.6159,-2.6306,-2.6306,-2.6306,-2.6306,-2.6306,-2.6319,-2.6319,-2.6306,-2.6012,-2.5879,-2.5798,-2.4957,-2.4249,-2.3701,-2.3688,-2.3557,-2.379,-2.6953,-2.8428,-2.9309,-3.2784,-3.4004,-3.3965,-3.3984,-3.3105,-3.2148,-3.2519,-3.207,0.0,0.0,-3.1758,-3.2207,-3.2617,-3.2754,-3.2871,-3.3281,-3.3398,-3.3418,-3.3418,-3.3398,-3.3125,-3.2207,-3.1719,-3.1152,-3.0195,0.0,-3.0257,-3.1052,-3.1602,-3.2742,-3.5085,-3.5839,-3.6642,-3.7785,-3.7974,-3.7974,-3.7974,-3.7549,-3.7263,-3.7263,-3.6245,-3.5641,-3.5617,-3.4534,-3.3934,-3.3886,-3.2067,0.0,0.0,0.0,0.0,0.0,0.0,0.0,0.0,0.0,0.0,0.0,0.0,0.0,0.0,0.0,0.0,0.0,0.0,0.0,0.0,0.0,0.0,0.0,0.0,0.0,0.0,0.0,0.0,-1.505,-1.5506,0.0,-1.3678,-1.4936,-1.553,-1.4555,-1.6665,-1.8546,-1.9984,-2.1386,-2.3251,-2.5638,-2.6026,-2.6239,-2.6239,-2.6146,-2.6106,-2.6106,-2.6106,-2.6106,-2.6106,-2.6106,-2.6106,-2.6092,-2.5798,-2.5558,-2.5384,-2.5251,-2.4863,-2.4302,-2.4404,-2.5584,-2.7377,-2.8734,-3.0728,-3.2881,-3.4093,-3.4473,-3.4375,-3.3828,-3.334,-3.291,-3.2519,-3.2363,-3.2344,-3.2344,-3.2656,-3.3008,-3.3164,-3.3203,-3.3242,-3.3379,-3.3418,-3.3418,-3.3418,-3.3418,-3.334,-3.3027,-3.2637,-3.2293,-3.2264,-3.1994,-3.2205,-3.3304,-3.3923,-3.4728,-3.5856,-3.6811,-3.7542,-3.7921,-3.7974,-3.7974,-3.7974,-3.7503,-3.7183,-3.7183,-3.621,-3.5613,-3.5613,-3.4919,-3.4342,-3.4006,-3.2817,-3.1723,0.0,0.0,0.0,0.0,0.0,0.0,0.0,0.0,0.0,0.0,0.0,0.0,0.0,0.0,0.0,0.0,0.0,0.0,0.0,0.0,0.0,0.0,0.0,0.0,0.0,-1.6879,-1.6283,-1.5788,-1.5701,-1.534,-1.4408,-1.5728,-1.6239,-1.5216,-1.795,-1.9688,-1.9755,-2.2201,-2.4103,-2.523,-2.5964,-2.6386,-2.6386,-2.6199,-2.6106,-2.6106,-2.6106,-2.6106,-2.6106,-2.6106,-2.6106,-2.6092,-2.5785,-2.5558,-2.5371,-2.5371,-2.5144,-2.477,-2.485,-2.6199,-2.8299,-2.9539,-3.1512,-3.3731,-3.4767,-3.5059,-3.4844,-3.4277,-3.3887,-3.3535,-3.2988,-3.291,-3.3008,-3.3008,-3.3203,-3.3418,-3.3418,-3.3418,-3.3418,-3.3418,-3.3418,-3.3418,-3.3418,-3.3418,-3.3418,-3.3418,-3.3203,-3.3186,-3.3749,-3.3613,-3.3686,-3.4666,-3.5508,-3.611,-3.6187,-3.724,-3.7974,-3.7974,-3.7974,-3.793,-3.7722,-3.7248,-3.6829,-3.6689,-3.5803,-3.5349,-3.5349,-3.4847,-3.4342,-3.4006,-3.3101,-3.2049,-3.0935,0.0,0.0,0.0,0.0,0.0,0.0,0.0,0.0,0.0,0.0,0.0,0.0,0.0,0.0,0.0,0.0,0.0,0.0,0.0,0.0,0.0,0.0,0.0,-1.7382,-1.6465,-1.6218,-1.6649,-1.5768,-1.5053,-1.5069,-1.5396,-1.5528,-1.5536,-1.728,-1.8423,-1.8503,-2.1825,-2.3736,-2.3908,-2.5502,-2.6386,-2.64,-2.6386,-2.6386,-2.6386,-2.6386,-2.6386,-2.6386,-2.6386,-2.6386,-2.6373,-2.6092,-2.6037,-2.5919,-2.5331,-2.5166,-2.5152,-2.5139,-2.5452,-2.622,-2.9242,-3.061,-3.1544,-3.4902,-3.5762,-3.541,-3.5391,-3.4805,-3.4082,-3.4082,-3.3769,-3.3418,-3.3418,-3.3418,-3.3418,-3.3418,-3.3418,-3.3418,-3.3418,-3.3418,-3.3418,-3.3418,-3.3418,-3.3418,-3.3418,-3.3418,-3.3701,-3.4614,-3.4754,-3.4858,-3.5238,-3.6285,0.0,-3.6337,-3.7287,-3.7974,-3.7974,-3.7974,-3.7794,-3.728,-3.6743,-3.6158,-3.5649,-3.509,-3.4775,-3.4775,-3.4318,-3.4028,-3.403,-3.2897,-3.2031,-3.1436,0.0,0.0,0.0,0.0,0.0,0.0,0.0,0.0,0.0,0.0,0.0,0.0,0.0,0.0,0.0,0.0,0.0,0.0,0.0,0.0,0.0,-2.0388,-2.1091,-2.0656,-1.9816,-1.9023,-1.8519,-1.7483,-1.6502,-1.5688,-1.6868,-1.726,-1.5975,-1.7548,-1.9108,-2.0401,-2.1351,-2.3165,-2.5879,-2.6255,-2.6493,-2.6694,-2.6493,-2.6386,-2.6386,-2.6386,-2.6386,-2.6386,-2.6386,-2.6386,-2.6386,-2.6306,-2.6146,-2.601,-2.5864,-2.5731,-2.5514,-2.5579,-2.7203,-2.9679,-3.076,-3.2613,-3.4784,-3.6092,-3.6211,-3.5801,-3.5488,-3.5,-3.4473,-3.416,-3.3769,-3.3418,-3.3418,-3.3418,-3.3418,-3.3418,-3.3418,-3.3418,-3.3418,-3.3418,-3.3418,-3.3418,-3.3418,-3.3418,-3.3418,-3.4215,-3.4902,-3.5149,-3.5628,-3.6252,-3.6883,-3.7725,-3.8122,-3.7583,-3.7796,-3.7974,-3.7974,-3.7974,-3.793,-3.7819,-3.6931,-3.6375,-3.6201,-3.5329,-3.4775,-3.4775,-3.4824,-3.4773,-3.4574,-3.4019,-3.3256,0.0,0.0,0.0,0.0,0.0,0.0,0.0,0.0,0.0,0.0,0.0,0.0,0.0,0.0,0.0,0.0,0.0,0.0,0.0,0.0,0.0,0.0,-2.1203,-2.2017,-2.2311,-2.1427,-2.0698,-2.062,-1.8774,-1.7437,-1.7045,-1.7267,-1.7091,-1.6048,-1.7574,-1.9072,-2.0303,-2.1687,-2.3515,-2.5839,-2.6518,-2.6841,-2.7001,-2.672,-2.6573,-2.6573,-2.6453,-2.6386,-2.6386,-2.6386,-2.6386,-2.6386,-2.6386,-2.6293,-2.6197,-2.6057,-2.599,0.0,0.0,0.0,0.0,0.0,-3.3969,-3.6055,-3.6309,-3.623,-3.5976,-3.5742,-3.5351,-3.4902,-3.4473,-3.4043,-3.3652,-3.3476,-3.3418,-3.3418,-3.3418,-3.3418,-3.3418,-3.3418,-3.3418,-3.3418,-3.3418,-3.3418,-3.3418,-3.3418,-3.4465,0.0,-3.5376,-3.6648,-3.7722,-3.8034,-3.8704,-3.8759,-3.7732,-3.7833,-3.7974,-3.7974,-3.7974,-3.7902,-3.7661,-3.7067,0.0,0.0,0.0,-3.509,-3.4678,-3.4872,0.0,0.0,0.0,0.0,0.0,0.0,0.0,0.0,-3.4299,-3.4274,0.0,0.0,0.0,0.0,0.0,0.0,0.0,0.0,0.0,0.0,0.0,0.0,0.0,0.0,0.0,0.0,-2.2071,-2.2579,-2.2913,-2.209,-2.1618,-2.2063,-1.9573,-1.7993,-1.8569,-1.7018,-1.604,-1.6287,-1.7737,-1.8793,-1.9333,-2.2479,0.0,0.0,0.0,-2.7281,-2.7308,-2.7028,-2.6854,-2.6814,-2.656,-2.6426,-2.6386,-2.6386,-2.6386,-2.6386,-2.6465,-2.6465,-2.6439,-2.6313,-2.6452,-2.6914,-2.7964,-2.8644,-2.9449,-3.2947,-3.4978,-3.6035,-3.6133,0.0,0.0,-3.6016,-3.5742,-3.5312,-3.4844,-3.4394,-3.3984,-3.3535,-3.3418,-3.3418,-3.3418,-3.3418,-3.3418,-3.3418,-3.3418,-3.3418,-3.3418,-3.3418,-3.3418,-3.3418,-3.4465,-3.5438,-3.5623,-3.761,-3.9033,-3.8655,-3.9146,-3.9022,-3.7426,-3.7661,-3.7974,-3.7974,0.0,0.0,-3.7324,-3.7228,-3.6777,-3.5843,-3.5966,-3.5649,-3.4655,-3.4942,-3.4881,-3.4385,-3.5112,-3.5868,-3.6606,-3.7036,-3.7563,-3.804,-3.5529,-3.5152,0.0,0.0,0.0,0.0,0.0,0.0,0.0,0.0,0.0,0.0,0.0,0.0,0.0,0.0,0.0,-2.1574,-2.2311,-2.2966,-2.3514,-2.3633,-2.2714,-2.036,-1.8993,-1.8314,-1.8598,-1.7018,-1.6607,-1.7983,-1.8381,-1.9365,-2.1063,-2.3132,-2.5087,-2.7092,-2.7224,-2.7375,-2.7615,-2.7321,-2.7054,-2.6827,-2.676,0.0,-2.6386,-2.6386,-2.6386,-2.6386,-2.6716,-2.6874,-2.6925,-2.7325,-2.8792,-3.0825,-3.0524,-3.0626,-3.1435,-3.5201,-3.6325,-3.6113,-3.6816,-3.6601,-3.6016,-3.6016,-3.5742,-3.5312,-3.4844,-3.4394,0.0,-3.3535,-3.3418,-3.3418,-3.3418,-3.3418,-3.3418,-3.3418,-3.3418,-3.3418,-3.3418,-3.3418,-3.3418,-3.3418,-3.4465,-3.5746,-3.6764,-3.8209,-3.9055,-3.8527,-3.9113,-3.9338,-3.8574,-3.8179,-3.7974,-3.7974,-3.7974,-3.795,-3.7829,-3.7445,-3.7076,-3.6868,-3.6726,-3.6454,-3.6051,-3.6699,-3.6921,-3.6566,-3.7139,-3.7539,-3.7688,-3.7789,-3.814,-3.8668,-3.7688,-3.7387,0.0,0.0,0.0,0.0,0.0,0.0,0.0,0.0,0.0,0.0,0.0,-2.0454,-2.0454,0.0,-2.2031,-2.2258,-2.2712,-2.3247,-2.3714,-2.4275,-2.4149,-2.2661,-2.1591,-2.0634,-1.9978,-1.83,-1.7656,-1.8545,-1.8721,-2.0098,-2.3058,-2.4116,-2.5625,-2.7909,-2.7776,-2.7776,-2.7923,-2.7629,-2.7335,-2.7041,-2.6894,-2.6667,-2.6386,-2.6623,-2.6702,-2.6702,-2.7175,-2.7333,-2.737,-2.8282,-2.9526,-3.0916,-3.1926,-3.291,-3.4024,-3.5931,-3.6523,-3.6367,-3.6582,-3.6523,-3.6309,-3.6094,-3.5879,-3.5586,-3.4902,-3.4551,-3.4258,-3.3594,-3.3418,-3.3418,-3.3418,-3.3418,-3.3418,-3.3418,-3.3418,-3.3418,-3.3418,-3.3418,-3.3418,-3.3418,-3.4465,-3.5623,-3.6215,-3.791,-3.9242,-3.9383,-3.9736,-3.9713,-3.8929,-3.8562,-3.8306,-3.8051,-3.7974,-3.7974,-3.7974,-3.7632,-3.7455,-3.7594,-3.7372,-3.713,-3.6998,-3.7518,-3.7667,-3.7392,-3.7815,-3.814,-3.8442,-3.8442,-3.8743,-3.927,-3.8994,-3.8843,0.0,0.0,0.0,0.0,0.0,0.0,0.0,-1.9492,-1.972,-1.9832,-2.0681,-2.143,-2.1376,-2.2084,-2.2739,-2.2926,-2.326,-2.3621,-2.3968,-2.469,-2.5291,-2.5638,-2.4062,-2.26,-2.1764,-1.9836,-1.8861,-1.9592,-1.9883,-2.1427,-2.4506,-2.5271,-2.6394,-2.8136,-2.8221,-2.8221,-2.8221,-2.7909,-2.7642,-2.7348,-2.7135,-2.6841,-2.6638,-2.6966,-2.7097,-2.7097,-2.7647,-2.7762,-2.7898,-2.92,-2.9864,-3.0329,-3.2844,-3.4677,-3.6035,-3.6113,-3.6309,-3.6504,-3.623,-3.6328,-3.6484,-3.6133,-3.6016,-3.5859,-3.4961,-3.4707,-3.4512,-3.3672,-3.3418,-3.3418,-3.3418,-3.3418,-3.3418,-3.3418,-3.3418,-3.3418,-3.3418,-3.3418,-3.3418,-3.3418,-3.4278,-3.5067,-3.5376,-3.7309,-3.9089,-3.987,-4.0224,-3.9977,-3.8971,-3.8809,-3.8577,-3.8075,-3.7974,-3.7974,-3.7974,-3.7796,-3.7772,-3.8056,-3.7944,-3.7834,-3.7775,-3.814,-3.8166,-3.7867,-3.8166,-3.8567,-3.907,-3.907,-3.927,-3.9697,-3.9697,-3.9747,-1.78,-1.7662,-1.7995,-1.8621,-1.9052,-1.9479,0.0,-2.0708,-2.0989,-2.132,-2.2097,-2.2579,-2.2325,-2.3006,-2.3541,-2.3313,-2.3741,-2.4302,-2.485,-2.5237,-2.5665,-2.6226,-2.3413,-2.1994,-2.3404,-2.0565,-1.9917,-2.3003,-2.348,-2.3902,-2.4671,-2.6447,-2.7662,-2.8221,-2.8221,-2.8221,-2.8221,-2.8194,-2.7949,-2.7642,-2.7771,-2.7635,-2.7348,-2.7457,-2.7555,-2.7555,-2.804,-2.8288,-2.8384,-2.965,-3.077,-3.1875,-3.3247,-3.4677,-3.6074,-3.6465,-3.6387,-3.6133,-3.6484,-3.6367,-3.6094,-3.6035,-3.6016,-3.5859,-3.4961,-3.4707,-3.4512,-3.3672,-3.3418,-3.3418,-3.3418,-3.3418,-3.3418,-3.3418,-3.3418,-3.3418,-3.3418,-3.3418,-3.3418,-3.3418,-3.3544,-3.3965,-3.5191,-3.6581,-3.7754,-3.848,-3.9618,-4.0018,-3.8916,-3.8803,-3.8593,-3.8046,-3.7974,-3.7974,-3.7974,-3.7974,-3.8084,-3.8327,-3.8564,-3.8529,-3.8316,-3.9068,-3.927,-3.8768,-3.9245,-3.9546,-3.9597,-3.9597,-3.9647,-3.9697,-3.9697,-3.9948,-1.7843,-1.8063,-1.8555,-1.8865,-1.9399,-2.0013,-2.0548,-2.1162,-2.1603,-2.1628,-2.2606,-2.3193,-2.2539,-2.33,-2.3928,-2.3634,-2.4075,-2.4596,-2.5024,-2.5331,-2.5598,-2.5852,-2.3872,-2.2828,-2.3712,-2.251,-2.2189,-2.3656,-2.4202,-2.4985,-2.6177,-2.7363,-2.81,-2.8221,-2.8221,-2.8221,-2.8221,-2.8227,-2.8068,-2.7866,-2.8139,-2.8064,-2.7606,-2.8058,-2.8289,-2.8339,-2.8588,-2.8569,-2.8556,-3.0665,-3.1689,-3.2182,-3.4274,-3.5451,-3.6035,-3.623,-3.6348,-3.6387,-3.6309,-3.6348,-3.6348,-3.6094,-3.6016,-3.5859,-3.4961,-3.4707,-3.4512,-3.3672,-3.3418,-3.3418,-3.3418,-3.3418,-3.3418,-3.3418,-3.3418,-3.3418,-3.3418,-3.3418,-3.3418,-3.3418,-3.3418,-3.3607,-3.4153,-3.5971,-3.7314,-3.7303,-3.9085,-4.0013,-3.8947,-3.8773,-3.8567,-3.8075,-3.7974,-3.7974,-3.7974,-3.8152,-3.8364,-3.8631,-3.8921,-3.9109,-3.9169,-3.9521,-3.9597,-3.9346,-3.9572,-3.9697,-3.9697,-3.9697,-3.9697,-3.9697,-4.0023,-4.0475,-1.7941,-1.837,-1.8985,-1.9225,-1.9947,-2.0628,-2.0762,-2.147,-2.2004,-2.1695,-2.2539,-2.322,-2.2645,-2.338,-2.4062,-2.4022,-2.4502,-2.4957,-2.517,-2.5451,-2.5598,-2.5518,-2.4585,-2.4112,-2.4398,-2.4007,-2.3976,-2.4455,-2.5044,-2.5931,-2.7268,-2.7913,-2.8221,-2.8221,-2.8305,-2.8362,-2.8197,-2.8385,-2.8373,-2.8084,-2.8571,-2.8452,-2.7931,-2.8547,-2.8884,-2.8886,-2.8886,-2.871,-2.8633,-3.1408,-3.227,-3.2253,-3.4985,-3.6016,-3.6016,-3.6016,-3.623,-3.6445,-3.6133,-3.623,-3.6445,-3.6113,-3.6016,-3.5879,-3.5117,-3.4805,-3.4551,-3.3809,-3.3516,-3.3418,-3.3418,-3.3418,-3.3418,-3.3418,-3.3418,-3.3418,-3.3418,-3.3418,-3.3418,-3.3418,-3.3418,-3.3418,-3.3418,-3.5294,-3.6756,-3.6731,-3.8538,-3.9568,-3.8918,-3.8645,-3.8408,-3.8051,-3.7974,-3.7974,-3.7974,-3.8152,-3.8441,-3.8761,-3.8998,-3.931,-3.9697,-3.9697,-3.9697,-3.9697,-3.9697,-3.9697,-3.9697,-3.9697,-3.9772,-3.9923,-4.0325,-4.0902,-1.8303,-1.8691,-1.9132,-1.9927,-2.0855,-2.1507,-2.1162,-2.1777,-2.2245,-2.1735,-2.2031,-2.2539,-2.2806,-2.3354,-2.3968,-2.4516,-2.5104,-2.5491,-2.5504,-2.5758,-2.5838,-2.5545,-2.5441,-2.5561,-2.5932,-2.4623,-2.4534,-2.6228,-2.6853,-2.7268,-2.7268,-2.7913,-2.8221,-2.8221,-2.8571,-2.8603,-2.8303,-2.8772,-2.8783,-2.8476,-2.8977,-2.8968,-2.8639,-2.8811,-2.89,-2.8886,-2.8886,-2.871,-2.8633,-3.1408,-3.227,-3.2253,-3.4985,-3.6016,-3.6016,-3.6016,-3.6035,-3.6035,-3.6016,-3.6035,-3.6035,-3.6016,-3.6016,-3.5937,-3.5508,-3.5059,-3.4609,-3.418,-3.375,-3.3418,-3.3418,-3.3418,-3.3418,-3.3418,-3.3418,-3.3418,-3.3418,-3.3418,-3.3418,-3.3418,-3.3418,-3.3418,-3.3418,-3.4528,-3.5848,-3.7106,-3.7938,-3.8544,-3.88,-3.8331,-3.8051,-3.7974,-3.7974,-3.7974,-3.7974,-3.7974,-3.8214,-3.877,-3.8797,-3.9055,-3.9697,-3.9697,-3.9697,-3.9697,-3.9697,-3.9697,-3.9697,-3.9697,-3.9973,-4.0501,-4.0501,-4.1103,-1.849,-1.9132,-1.9807,-2.016,-2.0748,-2.1229,-2.1136,-2.1643,-2.1964,-2.1376,-2.1884,-2.2392,-2.2298,-2.31,-2.3968,-2.4543,-2.513,-2.5585,-2.5785,-2.5718,-2.5558,-2.5264,-2.5398,-2.5558,-2.5651,-2.5452,-2.5544,-2.6373,-2.6747,-2.7054,-2.7255,-2.7642,-2.8103,-2.8558,-2.874,-2.8937,-2.9077,-2.938,-2.9289,-2.8963,-2.9029,-2.9043,-2.913,-2.8968,-2.8886,-2.8886,-2.8886,-2.8593,-2.8323,-3.131,-3.2189,-3.1962,-3.4872,-3.6016,-3.6016,-3.6016,-3.6016,-3.6016,-3.6016,-3.6016,-3.6016,-3.6016,-3.6016,-3.5937,-3.5527,-3.5293,-3.5059,-3.4609,-3.4375,-3.4199,-3.3926,-3.3848,-3.3789,-3.3496,-3.3418,-3.3418,-3.3418,-3.3418,-3.3418,-3.3418,-3.3418,-3.3418,-3.3418,-3.5191,-3.7369,-3.9533,-3.9834,-3.9617,-3.9382,-3.9177,-3.9056,-3.9056,-3.8887,-3.879,-3.879,-3.864,-3.8859,-3.9625,-3.9303,-3.9434,-4.0224,-3.9898,-3.9697,-3.9697,-3.9697,-3.9697,-3.9697,-4.0074,-4.0325,-4.0526,-4.1279,-4.1861,-1.8918,-1.9586,-2.022,-2.0494,-2.0909,-2.1243,-2.1136,-2.1403,-2.1537,-2.1056,-2.1403,-2.1804,-2.183,-2.2632,-2.3554,-2.4356,-2.497,-2.5424,-2.5611,-2.5665,-2.5491,-2.4983,-2.5277,-2.5518,-2.5518,-2.5785,-2.6079,-2.6373,-2.6653,-2.6947,-2.7255,-2.7714,-2.8176,-2.881,-2.916,-2.93,-2.9408,-2.9621,-2.9607,-2.9289,-2.8992,-2.9061,-2.9369,-2.9032,-2.8886,-2.8886,-2.8886,-2.8901,-2.9079,-3.1531,-3.2495,-3.2685,-3.5097,-3.6016,-3.6016,-3.6016,-3.6016,-3.6016,-3.6016,-3.6016,-3.6016,-3.6016,-3.6016,-3.5976,-3.5703,-3.5508,-3.5332,-3.5039,-3.4824,-3.4609,-3.418,-3.4082,-3.3965,-3.3535,-3.3418,-3.3418,-3.3418,-3.3418,-3.3418,-3.3418,-3.3418,-3.3418,-3.3418,-3.554,-3.8029,-4.0141,-4.0598,-4.0499,-3.9946,-3.9695,-3.9667,-3.9698,-3.9437,-3.9345,-3.9648,-3.932,-3.9488,-4.0326,-4.0028,-4.0087,-4.0448,-4.0174,-3.9898,-3.9697,-3.9697,-3.9798,-3.9998,-4.035,-4.0727,-4.1128,-4.1886,-4.2313,-1.9599,-2.004,-2.0353,-2.0975,-2.1323,-2.1521,-2.1149,-2.1082,-2.1002,-2.0695,-2.0655,-2.0842,-2.1467,-2.2017,-2.2819,-2.3995,-2.4703,-2.5104,-2.5104,-2.5598,-2.5638,-2.4783,-2.5184,-2.5531,-2.5531,-2.5798,-2.6092,-2.6373,-2.664,-2.6934,-2.7323,-2.803,-2.8578,-2.8894,-2.9732,-2.9864,-2.9248,-2.9705,-2.969,-2.9369,-2.9047,-2.9047,-2.9339,-2.9032,-2.8886,-2.8886,-2.8886,-2.9623,-3.0775,-3.1983,-3.3121,-3.4293,-3.5536,-3.6016,-3.6016,-3.6016,-3.6016,-3.6016,-3.6016,-3.6016,-3.6016,-3.6016,-3.6016,-3.6016,-3.6016,-3.5742,-3.543,-3.543,-3.5117,-3.4668,-3.4219,-3.4101,-3.3984,-3.3535,-3.3418,-3.3418,-3.3418,-3.3418,-3.3418,-3.3418,-3.3418,-3.3418,-3.3481,-3.5602,-3.7708,-3.898,-4.0316,-4.1004,-4.0499,-3.9994,-3.9792,-4.0044,-3.9612,-3.9653,-4.0493,-4.0075,-4.0108,-4.0898,-4.0952,-4.0835,-4.0626,-4.0551,-4.0275,-3.9747,-3.9747,-3.9998,-4.0526,-4.0576,-4.1128,-4.2213,-4.2238,-4.2539,-2.0067,-2.0494,-2.0922,-2.1069,-2.1162,-2.1149,-2.0855,-2.0788,-2.0641,-2.0134,-2.0374,-2.0722,-2.0869,-2.1911,-2.2993,-2.3754,-2.473,-2.5398,-2.5398,-2.5718,-2.5785,-2.5344,-2.5611,-2.5838,-2.5838,-2.6106,-2.6306,-2.6386,-2.6783,-2.7214,-2.7731,-2.8234,-2.8935,-2.9816,-2.9867,-2.9914,-3.0069,-2.9749,-2.9456,-2.9369,-2.9047,-2.893,-2.9017,-2.893,-2.8886,-2.8886,-2.8886,-2.941,-3.0426,-3.1883,-3.3053,-3.4047,-3.5421,-3.6016,-3.6016,-3.6016,-3.6016,-3.6016,-3.6016,-3.6016,-3.6016,-3.6016,-3.6016,-3.6016,-3.6016,-3.5937,-3.5859,-3.5859,-3.5781,-3.5508,-3.4746,-3.4531,-3.4355,-3.3594,-3.3418,-3.3418,-3.3418,-3.3418,-3.3418,-3.3418,-3.3418,-3.3733,-3.4694,-3.6215,-3.7708,-3.898,-4.0316,-4.1124,-4.1004,-4.086,-4.0844,-4.0877,-4.0811,-4.0875,-4.1078,-4.0968,-4.1139,-4.1852,-4.1447,-4.1347,-4.1731,-4.0953,-4.045,-4.03,-4.03,-4.0375,-4.0526,-4.1329,-4.1936,-4.2213,-4.264,-4.2836,-2.0388,-2.0762,-2.1109,-2.1109,-2.1015,-2.0882,-2.0708,-2.0481,-2.0201,-1.9867,-2.016,-2.0481,-2.0481,-2.1577,-2.2672,-2.3273,-2.4356,-2.513,-2.513,-2.5718,-2.5945,-2.5384,-2.5812,-2.6092,-2.605,-2.637,-2.6623,-2.6623,-2.6874,-2.7237,-2.7702,-2.8375,-2.9005,-2.975,-2.9741,-2.9827,-2.9925,-2.9412,-2.9164,-2.9164,-2.8973,-2.8886,-2.8886,-2.8886,-2.8886,-2.8964,-2.9436,-3.0278,-3.1318,-3.2667,-3.3836,-3.4834,-3.5675,-3.6016,-3.6016,-3.6016,-3.6016,-3.6016,-3.6016,-3.6016,-3.6016,-3.6016,-3.6016,-3.6016,-3.6016,-3.6016,-3.6016,-3.6016,-3.6016,-3.582,-3.4922,-3.4844,-3.4746,-3.3672,-3.3574,-3.3652,-3.3457,-3.3418,-3.3418,-3.3418,-3.3418,-3.3859,-3.5191,-3.646,-3.7708,-3.898,-4.0316,-4.1172,-4.1172,-4.1172,-4.1287,-4.1573,-4.1394,-4.1509,-4.201,-4.1843,-4.1932,-4.2539,-4.2233,-4.2082,-4.2213,-4.1609,-4.1128,-4.0877,-4.0824,-4.1003,-4.1229,-4.1911,-4.2338,-4.259,-4.2891,-4.2986,-2.0775,-2.1029,-2.1229,-2.1229,-2.1002,-2.0775,-2.0695,-2.0254,-1.984,-1.976,-1.9973,-2.0187,-2.0167,-2.1162,-2.2138,-2.2834,-2.3834,-2.4609,-2.469,-2.5638,-2.6052,-2.5291,-2.5905,-2.6293,-2.6117,-2.6646,-2.7032,-2.7097,-2.711,-2.7313,-2.763,-2.8443,-2.8956,-2.9229,-2.9632,-2.9647,-2.931,-2.9032,-2.8886,-2.8886,-2.8886,-2.8886,-2.8886,-2.8886,-2.8871,-2.889,-2.9977,-3.1183,-3.2535,-3.35,-3.4757,-3.6016,-3.6016,-3.6016,-3.6016,-3.6016,-3.6016,-3.6016,-3.6016,-3.6016,-3.6016,-3.6016,-3.6016,-3.6016,-3.6016,-3.6016,-3.6016,-3.6016,-3.6016,-3.582,-3.5,-3.5098,-3.5078,-3.3809,-3.3789,-3.3945,-3.3516,-3.3418,-3.3418,-3.3418,-3.3418,-3.3796,-3.4943,-3.6215,-3.7489,-3.8744,-4.0083,-4.1,-4.1172,-4.1172,-4.1402,-4.1972,-4.1692,-4.1818,-4.2824,-4.2534,-4.2514,-4.2936,-4.2986,-4.276,-4.2338,-4.2263,-4.1932,-4.1401,-4.1401,-4.1681,-4.2213,-4.2288,-4.2564,-4.2986,-4.2986,-4.2986,-2.175,-2.179,-2.183,-2.183,-2.1617,-2.1333,-2.0788,-2.0401,-2.0013,-1.9546,-1.9679,-1.9947,-2.0187,-2.1002,-2.1963,-2.2794,-2.3661,-2.4449,-2.493,-2.5598,-2.5972,-2.5825,-2.6146,-2.6531,-2.6792,-2.6912,-2.7097,-2.7476,-2.7883,-2.8182,-2.8588,-2.9066,-2.9333,-2.9377,-2.9456,-2.931,-2.8973,-2.8915,-2.8886,-2.8886,-2.8886,-2.8886,-2.8886,-2.8886,-2.8754,-2.852,-2.8677,0.0,-3.2104,-3.2322,-3.3848,-3.6016,-3.6016,-3.6016,-3.6016,-3.6016,-3.6016,-3.6016,-3.6016,-3.6016,-3.6016,-3.6016,-3.6016,-3.6016,-3.6016,-3.6016,-3.6016,-3.6016,-3.6016,-3.5898,-3.541,-3.5332,-3.5156,-3.4199,-3.4023,-3.3945,-3.3516,-3.3418,-3.3418,-3.3418,-3.3418,-3.3481,-3.3733,-3.4819,-3.6154,-3.7429,-3.8744,-3.9966,-4.1057,-4.1172,-4.1344,-4.1663,-4.1842,-4.21,-4.2569,-4.2774,-4.2886,-4.2961,-4.2986,-4.2936,-4.2891,-4.2464,-4.2162,-4.2062,-4.2062,-4.2112,-4.2213,-4.2665,-4.2886,-4.2986,-4.2986,-4.2986,-2.1991,-2.1991,-2.1951,-2.1804,-2.1494,-2.0989,-2.0548,-2.0107,-1.9706,-1.9426,-1.972,-2.0067,-2.0214,-2.0962,-2.1856,-2.2512,-2.326,-2.408,-2.5039,-2.5375,-2.5765,-2.6525,-2.6547,-2.6697,-2.724,-2.749,-2.7726,-2.7961,-2.8353,-2.8582,-2.8504,-2.8898,-2.912,-2.912,-2.912,-2.9047,-2.8886,-2.8886,-2.8886,-2.8886,-2.8886,-2.8886,-2.8886,-2.8725,-2.8578,-2.8417,-2.8883,-3.015,-3.2056,-3.2649,-3.4154,-3.6016,-3.6016,-3.6016,-3.6016,-3.6016,-3.6016,-3.6016,-3.6016,-3.6016,-3.6016,-3.6016,-3.6016,-3.6016,-3.6016,-3.6016,-3.6016,-3.6016,-3.6016,-3.5918,-3.5508,-3.5547,-3.5488,-3.4609,-3.4238,-3.3945,-3.3516,-3.3418,-3.3418,-3.3418,-3.3418,-3.3418,-3.3418,-3.4528,-3.5623,-3.6215,-3.797,-3.9416,-4.0083,-4.0918,-4.1516,-4.1859,-4.2142,-4.2425,-4.2737,-4.293,-4.2986,-4.2986,-4.2986,-4.2986,-4.2986,-4.2766,-4.264,-4.264,-4.264,-4.264,-4.264,-4.2836,-4.2986,-4.2986,-4.2986,-4.2986,-2.2151,-2.2178,-2.2124,-2.1963,-2.139,-2.0869,-2.0508,-1.9973,-1.9519,-1.9399,-1.9773,-2.016,-2.0167,-2.0855,-2.1603,-2.2298,-2.2873,-2.3695,-2.5075,-2.5263,-2.5745,-2.7038,-2.6876,-2.7001,-2.7684,-2.804,-2.8368,-2.8431,-2.8744,-2.8744,-2.8431,-2.8744,-2.8886,-2.8886,-2.8886,-2.8886,-2.8886,-2.8886,-2.8886,-2.8886,-2.8886,-2.8856,-2.8783,-2.8549,-2.8512,-2.8715,-2.9423,-3.0726,-3.2435,-3.3402,-3.4677,-3.6016,-3.6016,-3.6016,-3.6016,-3.6016,-3.6016,-3.6016,-3.6016,-3.6016,-3.6016,-3.6016,-3.6016,-3.6016,-3.6016,-3.6016,-3.6016,-3.6016,-3.6016,-3.5937,-3.5605,-3.5781,-3.5801,-3.4902,-3.4316,-3.3848,-3.3496,-3.3418,-3.3418,-3.3418,-3.3418,-3.3418,-3.3418,-3.4278,-3.5067,-3.5376,-3.7127,-3.8566,-3.9098,-4.035,-4.1435,-4.1915,-4.2312,-4.2625,-4.2849,-4.2986,-4.2986,-4.2986,-4.2986,-4.2986,-4.2986,-4.2986,-4.2986,-4.2986,-4.2986,-4.2986,-4.2986,-4.2986,-4.2986,-4.2986,-4.2986,-4.2986,-2.2712,-2.2847,-2.2847,-2.282,-2.2298,-2.1724,-2.1162,-2.0575,-2.0,-1.9479,-1.9626,-1.992,-2.0187,-2.0521,-2.1122,-2.2231,-2.2686,-2.3453,-2.4989,-2.5499,-2.6061,-2.7102,-2.7186,-2.7467,-2.8168,-2.8289,-2.8431,-2.8808,-2.8886,-2.8886,-2.8808,-2.8886,-2.8886,-2.8886,-2.8886,-2.8886,-2.8886,-2.8886,-2.8886,-2.8886,-2.8886,-2.8739,-2.8476,-2.837,-2.8852,-2.9577,-2.966,-3.117,0.0,-3.3711,-3.4677,-3.6016,-3.6016,-3.6016,-3.6016,-3.6016,-3.6016,-3.6016,-3.6016,-3.6016,-3.6016,-3.6016,-3.6016,-3.6016,-3.6016,-3.6016,-3.6016,-3.6016,-3.6016,-3.6016,-3.5976,-3.5996,-3.5801,-3.4902,-3.4082,-3.3476,-3.3437,-3.3418,-3.3418,-3.3418,-3.3418,-3.3418,-3.3418,-3.3481,-3.3965,-3.5191,-3.5623,-3.6581,-3.8921,-3.9569,-4.0326,-4.1549,-4.2174,-4.2513,-4.2513,-4.2793,-4.2986,-4.2986,-4.2986,-4.2986,-4.2986,-4.2986,-4.2986,-4.2986,-4.2986,-4.2986,-4.2986,-4.2986,-4.2986,-4.2986,-4.2986,-4.2986,-2.2258,-2.2338,-2.2338,-2.2338,-2.1897,-2.1349,-2.0935,-2.0388,-1.9907,-1.9679,-1.9853,-2.0147,-2.0441,-2.0735,-2.1203,-2.2031,-2.2258,-2.2889,-2.4514,-2.4774,-2.5364,-2.6843,-2.7174,-2.7568,-2.8284,-2.8564,-2.8744,-2.8886,-2.8886,-2.8886,-2.8886,-2.8886,-2.8886,-2.8886,-2.8886,-2.8886,-2.8886,-2.8886,-2.8886,-2.8886,-2.871,-2.8549,-2.8432,-2.8037,-2.8521,-2.9686,-2.9479,-3.1077,0.0,-3.378,-3.4677,-3.6016,-3.6016,-3.6016,-3.6016,-3.6016,-3.6016,-3.6016,-3.6016,-3.6016,-3.6016,-3.6016,-3.6016,-3.6016,-3.6016,-3.6016,-3.6016,-3.6016,-3.6016,-3.6016,-3.6016,-3.584,-3.5488,-3.4844,-3.4238,-3.375,-3.3476,-3.3418,-3.3418,-3.3418,-3.3418,-3.3418,-3.3418,-3.3418,-3.3607,-3.409,-3.4881,-3.5807,-3.6764,-3.8543,-3.9803,-4.0118,-4.1582,-4.2513,-4.2513,-4.2793,-4.2986,-4.2986,-4.2986,-4.2986,-4.2986,-4.2986,-4.2986,-4.2986,-4.2986,-4.2986,-4.2986,-4.2986,-4.2986,-4.2986,-4.2986,-4.2986,-2.1884,-2.2044,-2.2111,-2.2111,-2.1737,-2.1269,-2.0895,-2.0414,-2.004,-1.9947,-2.016,-2.0428,-2.0641,-2.0842,-2.1176,-2.1764,-2.1924,-2.2539,-2.4038,-2.4494,-2.5224,-2.6717,-2.7239,-2.7676,-2.8326,-2.8637,-2.8798,-2.8886,-2.8725,-2.8651,-2.8754,-2.8666,-2.8695,-2.8886,-2.8886,-2.8886,-2.8886,-2.8798,-2.8754,-2.8754,-2.8447,-2.8242,-2.8139,-2.8119,-2.8923,-3.0251,-3.0491,-3.207,0.0,-3.4471,-3.504,-3.6016,-3.6016,-3.6016,-3.6016,-3.6016,-3.6016,-3.6016,-3.6016,-3.6016,-3.6016,-3.6016,-3.6016,-3.6016,-3.6016,-3.6016,-3.6016,-3.6016,-3.6016,-3.5996,-3.5859,-3.5508,-3.5078,-3.4629,-3.418,-3.3789,-3.3496,-3.3418,-3.3418,-3.3418,-3.3418,-3.3418,-3.3418,-3.3418,-3.3418,-3.3418,-3.4215,-3.4943,-3.5376,-3.7528,-3.9017,-3.9157,-4.1124,-4.2369,-4.2369,-4.2706,-4.2905,-4.2986,-4.2986,-4.2986,-4.2986,-4.2986,-4.2986,-4.2986,-4.2986,-4.2986,-4.2986,-4.2986,-4.2986,-4.2986,-4.2986,-4.2986,-2.183,-2.2191,-2.2418,-2.2418,-2.2191,-2.183,-2.1243,-2.0882,-2.0588,-2.0294,-2.0468,-2.0668,-2.0681,-2.0681,-2.0869,-2.1521,-2.1804,-2.2457,-2.3814,-2.4834,-2.5825,-2.6881,-2.7276,-2.773,-2.8373,-2.837,-2.8564,-2.8871,-2.8315,-2.802,-2.8432,-2.8063,-2.8242,-2.8871,-2.8886,-2.8886,-2.8886,-2.8593,-2.8447,-2.8432,-2.8034,-2.7788,-2.7555,-2.8985,-3.0362,-3.1578,-3.3067,-3.4609,0.0,-3.5947,-3.6016,-3.6016,-3.6016,-3.6016,-3.6016,-3.6016,-3.6016,-3.6016,-3.6016,-3.6016,-3.6016,-3.6016,-3.6016,-3.6016,-3.6016,-3.6016,-3.6016,-3.6016,-3.6016,-3.5918,-3.5508,-3.5059,-3.4609,-3.418,-3.375,-3.3437,-3.3418,-3.3418,-3.3418,-3.3418,-3.3418,-3.3418,-3.3418,-3.3418,-3.3418,-3.3418,-3.3418,-3.3902,-3.5253,-3.652,-3.779,-3.9039,-4.0952,-4.211,-4.211,-4.2369,-4.2625,-4.2986,-4.2986,-4.2986,-4.2986,-4.2986,-4.2986,-4.2986,-4.2986,-4.2986,-4.2986,-4.2986,-4.2986,-4.2986,-4.2986,-4.2986,-2.0681,-2.0855,-2.0975,-2.1176,-2.1162,-2.1042,-2.0855,-2.0735,-2.0655,-2.0548,-2.0615,-2.0735,-2.0935,-2.0815,-2.0935,-2.1724,-2.1764,-2.2161,-2.3433,-2.4428,-2.5356,-2.6186,-2.7187,-2.7876,-2.8005,-2.8034,-2.8063,-2.8242,-2.799,-2.7917,-2.802,-2.7932,-2.7961,-2.8242,-2.8242,-2.8242,-2.8242,-2.8078,-2.8034,-2.802,-2.7773,-2.7569,-2.754,-2.7746,-2.9217,-3.1508,-3.2,-3.3692,-3.6016,-3.6016,-3.6016,-3.6016,-3.6016,-3.6016,-3.6016,-3.6016,-3.6016,-3.6016,-3.6016,-3.6016,-3.6016,-3.6016,-3.6016,-3.5976,-3.5684,-3.5801,-3.5957,-3.5664,-3.5371,-3.5078,-3.4961,-3.459,-3.4238,-3.4101,-3.375,-3.3418,-3.3418,-3.3418,-3.3418,-3.3418,-3.3418,-3.3418,-3.3418,-3.3418,-3.3418,-3.3418,-3.3418,-3.3544,-3.3965,-3.5191,-3.652,-3.779,-3.9451,-4.0894,-4.1997,-4.2538,-4.2874,-4.2986,-4.2986,-4.2986,-4.2986,-4.2986,-4.2986,-4.2986,-4.2986,-4.2986,-4.2986,-4.2986,-4.2986,-4.2986,-4.2986,-4.2986,-2.012,-2.0307,-2.0468,-2.0762,-2.0842,-2.0842,-2.0842,-2.0842,-2.0842,-2.0842,-2.0842,-2.0895,-2.1082,-2.0899,-2.0926,-2.1748,-2.1835,-2.2138,-2.3308,-2.4414,-2.547,-2.6272,-2.7289,-2.783,-2.7788,-2.7773,-2.7817,-2.7874,-2.773,-2.7642,-2.7759,-2.7656,-2.7583,-2.7583,-2.7742,-2.7874,-2.7874,-2.7832,-2.8058,-2.8566,-2.7733,-2.7585,-2.8142,-2.7931,-2.9178,-3.1508,-3.2141,-3.3762,0.0,-3.6016,-3.6016,-3.6016,-3.6016,-3.6016,-3.6016,-3.6016,-3.5918,-3.5781,-3.5781,-3.5664,-3.5527,-3.5527,-3.5527,-3.5469,-3.5215,-3.5312,-3.5469,-3.5215,-3.4922,-3.4668,-3.4512,-3.4258,-3.4023,-3.3867,-3.3613,-3.3418,-3.3418,-3.3418,-3.3418,-3.3418,-3.3418,-3.3418,-3.3418,-3.3418,-3.3418,-3.3418,-3.3418,-3.3418,-3.3418,-3.459,-3.5869,-3.7188,-3.8839,-4.0466,-4.1972,-4.2538,-4.2874,-4.2986,-4.2986,-4.2986,-4.2986,-4.2986,-4.2986,-4.2986,-4.2986,-4.2986,-4.2986,-4.2986,-4.2986,-4.2986,-4.2986,-4.2986,0.0,-2.0361,-2.0641,-2.0922,-2.1015,-2.1042,-2.1042,-2.1082,0.0,-2.1109,-2.1109,-2.1109,-2.1172,-2.095,-2.0917,-2.1545,-2.1961,-2.2454,-2.3364,-2.4758,-2.5969,-2.6954,-2.7598,-2.7861,-2.7539,-2.751,-2.7642,-2.7844,-2.7393,-2.7247,-2.7614,-2.7335,-2.7216,-2.7318,-2.7822,-2.8072,-2.8026,-2.7732,-2.8367,-2.9768,-2.8091,-2.7924,-2.9099,-2.9131,-2.9987,-3.1544,-3.2979,-3.454,-3.6016,-3.6016,-3.6016,-3.6016,-3.6016,-3.5996,-3.5976,-3.5976,-3.5703,-3.5351,-3.5351,-3.5059,-3.4707,-3.4707,-3.4668,-3.4648,-3.4648,-3.4648,-3.4648,-3.4648,-3.4629,-3.4512,-3.4121,-3.4023,-3.3926,-3.3516,-3.3418,-3.3418,-3.3418,-3.3418,-3.3418,-3.3418,-3.3418,-3.3418,-3.3418,-3.3418,-3.3418,-3.3418,-3.3418,-3.3418,-3.3418,-3.4465,-3.5786,-3.7188,-3.8898,-4.0582,-4.2029,-4.2369,-4.2706,-4.2986,-4.2986,-4.2986,-4.2986,-4.2986,-4.2986,-4.2986,-4.2986,-4.2986,-4.2986,-4.2986,-4.2986,-4.2986,-4.2986,-4.2986,-1.9252,0.0,-1.9693,-1.976,-2.0107,-2.0441,0.0,-2.0788,-2.1172,-2.1425,-2.1299,-2.1235,-2.179,-2.1438,-2.1334,-2.2212,-2.2446,-2.2835,-2.3724,-2.5478,-2.6837,-2.732,-2.7934,-2.8198,-2.7876,-2.7847,-2.7801,-2.7874,-2.7742,-2.8163,-2.9132,-2.9127,-2.9337,-2.9996,-3.0144,-2.979,-2.8909,-2.8847,-2.9377,-3.0587,-3.0223,-2.9412,-2.8386,-2.8585,-2.9612,-3.1149,-3.1809,-3.3554,-3.6016,-3.6016,-3.6016,-3.6016,-3.6016,-3.582,-3.5547,-3.5547,-3.5254,-3.4863,-3.4863,-3.4785,-3.4707,-3.4707,-3.4473,-3.4219,-3.4219,-3.4219,-3.4219,-3.4219,-3.3984,-3.3691,-3.3594,-3.3574,-3.3555,-3.3437,-3.3418,-3.3418,-3.3418,-3.3418,-3.3418,-3.3418,-3.3418,-3.3418,-3.3418,-3.3418,-3.3418,-3.3418,-3.3418,-3.3418,-3.3418,-3.367,-3.4881,-3.7407,-3.8283,-3.9663,-4.2174,-4.2706,-4.293,-4.2986,-4.2986,-4.2986,-4.2986,-4.2986,-4.2986,-4.2986,-4.2986,-4.2986,-4.2986,-4.2986,-4.2986,-4.2986,-4.2986,-4.2986,-1.9331,-1.9555,-1.9819,-1.9996,-2.0334,-2.0652,-2.0848,-2.1039,-2.1128,-2.119,-2.1238,-2.1458,-2.177,-2.1754,-2.1894,-2.2664,-2.2921,-2.3472,-2.454,-2.5877,-2.6881,-2.7217,-2.7817,-2.8063,-2.7888,-2.7817,-2.8029,-2.867,-2.8607,-2.9008,-3.0157,-3.0211,-3.0373,-3.0566,-3.0617,-3.0289,-2.9654,-2.9654,-3.0321,-3.1643,-3.0892,-3.0429,-3.0106,-2.9553,-2.986,-3.0772,-3.158,-3.292,-3.4518,-3.5142,-3.541,-3.541,-3.541,-3.5273,-3.5078,-3.5078,-3.4785,-3.4414,-3.4414,-3.4277,-3.4121,-3.4121,-3.3965,-3.3769,-3.3769,-3.3769,-3.3769,-3.3769,-3.3613,-3.3418,-3.3418,-3.3418,-3.3418,-3.3418,-3.3418,-3.3418,-3.3418,-3.3418,-3.3418,-3.3418,-3.3418,-3.3418,-3.3418,-3.3418,-3.3418,-3.3418,-3.3418,-3.3418,-3.3418,-3.3418,-3.4507,-3.7506,-3.8045,-3.9347,-4.2231,-4.2793,-4.2986,-4.2986,-4.2986,-4.2986,-4.2986,-4.2986,-4.2986,-4.2986,-4.2986,-4.2986,-4.2986,-4.2986,-4.2986,-4.2986,-4.2986,-4.2986,-1.9866,-2.021,-2.0517,-2.0684,-2.1005,-2.1348,-2.163,-2.1457,-2.1204,-2.0962,-2.1277,-2.1642,-2.1704,-2.2034,-2.2438,-2.3083,-2.3537,-2.4218,-2.5374,-2.6047,-2.6559,-2.6881,-2.7437,-2.7728,-2.7728,-2.7777,-2.8263,-2.9476,-2.9553,-2.9998,-3.1098,-3.1219,-3.1081,-3.0815,-3.0815,-3.0781,-3.0728,-3.063,-3.1272,-3.2707,-3.1219,-3.1117,-3.2283,-3.0781,-3.0275,-3.0715,-3.1962,0.0,-3.3018,-3.4228,-3.4707,-3.4707,-3.4707,-3.4668,-3.4609,-3.4609,-3.4336,-3.3965,-3.3965,-3.373,-3.3418,-3.3418,-3.3418,-3.3418,-3.3418,-3.3418,-3.3418,-3.3418,-3.3418,-3.3418,-3.3418,-3.3418,-3.3418,-3.3418,-3.3418,-3.3418,-3.3418,-3.3418,-3.3418,-3.3418,-3.3418,-3.3418,-3.3418,-3.3418,-3.3418,-3.3418,-3.3418,-3.3418,-3.3418,-3.3418,-3.4445,-3.7265,-3.7925,-3.9288,-4.2037,-4.2737,-4.2986,-4.2986,-4.2986,-4.2986,-4.2986,-4.2986,-4.2986,-4.2986,-4.2986,-4.2986,-4.2986,-4.2986,-4.2986,-4.2986,-4.2986,-4.2986,-2.0213,-2.0976,-2.1596,-2.0653,-2.1188,-2.1992,-2.1782,-2.1656,-2.1572,-2.1817,-2.1737,-2.1765,-2.2317,-2.2702,-2.3142,-2.3818,-2.4444,-2.4993,-2.5461,-2.5857,-2.6208,-2.6544,-2.691,-2.7144,-2.7144,-2.8164,-2.8913,-2.9201,-3.0266,-3.139,-3.2525,-3.2575,-3.2857,-3.3448,-3.3493,-3.3321,-3.2893,-3.2382,-3.2699,-3.3837,-3.2384,-3.1658,-3.1441,-3.0275,-3.0516,-3.1811,0.0,-3.3217,-3.4359,-3.4641,-3.4707,-3.4707,-3.4707,-3.4473,-3.416,-3.416,-3.3887,-3.3516,-3.3516,-3.3476,-3.3418,-3.3418,-3.3418,-3.3418,-3.3418,-3.3418,-3.3418,-3.3418,-3.3418,-3.3418,-3.3418,-3.3418,-3.3418,-3.3418,-3.3418,-3.3418,-3.3418,-3.3418,-3.3418,-3.3418,-3.3418,-3.3418,-3.3418,-3.3418,-3.3418,-3.3418,-3.3418,-3.3418,-3.3418,-3.3418,-3.4195,-3.6295,-3.7506,-3.9053,-4.1157,-4.2319,-4.2986,-4.2986,-4.2986,-4.2986,-4.2986,-4.2986,-4.2986,-4.2986,-4.2986,-4.2986,-4.2986,-4.2986,-4.2986,-4.2986,-4.2986,-4.2986,-2.05,-2.1398,-2.2186,-2.1516,-2.2109,-2.2844,-2.2531,-2.2253,-2.209,-2.1918,-2.2019,-2.2256,-2.2562,-2.3024,-2.3571,-2.4262,-2.4811,-2.511,-2.5257,-2.5549,-2.5871,-2.6208,-2.653,-2.7082,-2.8042,-2.852,-2.946,-3.1043,-3.1617,-3.2358,-3.3511,-3.3558,-3.362,-3.373,-3.373,-3.3633,-3.3418,-3.3149,-3.2857,-3.2585,-3.194,-3.1117,-3.016,-3.0467,-3.0556,-3.0573,0.0,-3.2933,-3.2933,-3.3682,-3.4004,-3.4004,-3.4004,-3.3887,-3.373,-3.373,-3.3594,-3.3418,-3.3418,-3.3418,-3.3418,-3.3418,-3.3418,-3.3418,-3.3418,-3.3418,-3.3418,-3.3418,-3.3418,-3.3418,-3.3418,-3.3418,-3.3418,-3.3418,-3.3418,-3.3418,-3.3418,-3.3418,-3.3418,-3.3418,-3.3418,-3.3418,-3.3418,-3.3418,-3.3418,-3.3418,-3.3418,-3.3418,-3.3418,-3.3544,-3.4632,-3.7084,-3.7985,-3.9487,-4.1923,-4.2681,-4.2986,-4.2986,-4.2986,-4.2986,-4.2986,-4.2986,-4.2986,-4.2986,-4.2986,-4.2986,-4.2986,-4.2986,-4.2986,-4.2986,-4.2986,-4.2986,-2.0931,-2.1714,-2.2474,-2.2303,-2.286,-2.3372,-2.335,-2.2962,-2.2518,-2.21,-2.2381,-2.271,-2.2637,-2.3281,-2.4013,-2.4583,-2.4964,-2.514,-2.5134,-2.5271,-2.5505,-2.5754,-2.6283,-2.7155,-2.853,-2.9007,-3.0121,-3.2362,-3.2622,-3.3048,-3.3862,-3.3926,-3.3769,-3.3437,-3.3418,-3.3418,-3.3418,-3.3418,-3.2702,-3.1322,-3.1001,-3.0207,-2.9248,-2.9965,-3.0077,-2.9835,-3.1982,-3.2492,-3.1899,-3.2956,-3.3418,-3.3418,-3.3418,-3.3418,-3.3418,-3.3418,-3.3418,-3.3418,-3.3418,-3.3418,-3.3418,-3.3418,-3.3418,-3.3418,-3.3418,-3.3418,-3.3418,-3.3418,-3.3418,-3.3418,-3.3418,-3.3418,-3.3418,-3.3418,-3.3418,-3.3418,-3.3418,-3.3418,-3.3418,-3.3418,-3.3418,-3.3418,-3.3418,-3.3418,-3.3418,-3.3418,-3.3418,-3.3418,-3.3481,-3.4027,-3.5232,-3.7626,-3.8662,-4.0187,-4.2793,-4.2986,-4.2986,-4.2986,-4.2986,-4.2986,-4.2986,-4.2986,-4.2986,-4.2986,-4.2986,-4.2986,-4.2986,-4.2986,-4.2986,-4.2986,-4.2986,-4.2986,-2.1525,-2.1935,-2.2286,-2.2489,-2.2839,-2.3262,-2.391,-2.331,-2.2696,-2.2926,-2.3062,-2.2988,-2.2681,-2.3647,-2.4679,-2.5031,-2.5286,-2.5388,-2.5163,-2.5149,-2.5163,-2.5193,-2.6258,-2.7146,-2.7229,-2.9564,-3.1192,-3.1386,-3.2606,-3.3369,-3.3476,-3.3476,-3.3457,-3.3418,-3.3418,-3.3418,-3.3418,-3.3418,-3.2702,-3.1258,-2.9965,-2.9313,-2.9182,-2.8015,-2.8854,-3.1176,-3.1387,-3.2174,-3.3292,-3.3355,-3.3418,-3.3418,-3.3418,-3.3418,-3.3418,-3.3418,-3.3418,-3.3418,-3.3418,-3.3418,-3.3418,-3.3418,-3.3418,-3.3418,-3.3418,-3.3418,-3.3418,-3.3418,-3.3418,-3.3418,-3.3418,-3.3418,-3.3418,-3.3418,-3.3418,-3.3418,-3.3418,-3.3418,-3.3418,-3.3418,-3.3418,-3.3418,-3.3418,-3.3418,-3.3418,-3.3418,-3.3418,-3.3481,-3.3796,-3.4922,-3.599,-3.6803,-3.9053,-4.1133,-4.2849,-4.2986,-4.2986,-4.2986,-4.2986,-4.2986,-4.2986,-4.2986,-4.2986,-4.2986,-4.2986,-4.2986,-4.2986,-4.2986,-4.2986,-4.2986,-4.2986,-4.2986,-2.1057,-2.1628,-2.2213,-2.233,-2.2579,-2.2974,-2.3632,-2.3647,-2.3574,-2.3691,-2.372,-2.3676,-2.3559,-2.394,-2.4379,-2.4701,-2.5022,-2.5198,-2.5134,-2.5846,-2.6368,-2.6368,-2.7551,-2.8723,-2.9622,-3.066,-3.1643,-3.2556,-3.3082,-3.3418,-3.3418,-3.3418,-3.3418,-3.3418,-3.3418,-3.3418,-3.3418,-3.3418,-3.2237,-2.9965,-2.9444,-2.8262,-2.6635,-2.6953,-2.8196,-3.003,-3.0936,-3.211,-3.3418,-3.3418,-3.3418,-3.3418,-3.3418,-3.3418,-3.3418,-3.3418,-3.3418,-3.3418,-3.3418,-3.3418,-3.3418,-3.3418,-3.3418,-3.3418,-3.3418,-3.3418,-3.3418,-3.3418,-3.3418,-3.3418,-3.3418,-3.3418,-3.3418,-3.3418,-3.3418,-3.3418,-3.3418,-3.3418,-3.3418,-3.3418,-3.3418,-3.3418,-3.3418,-3.3418,-3.3418,-3.3418,-3.3418,-3.3418,-3.3544,-3.5046,-3.6539,-3.7566,-4.0303,-4.2319,-4.2986,-4.2986,-4.2986,-4.2986,-4.2986,-4.2986,-4.2986,-4.2986,-4.2986,-4.2986,-4.2986,-4.2986,-4.2986,-4.2986,-4.2986,-4.2986,-4.2986,-4.2986,-2.0998,-2.1525,-2.2052,-2.2154,-2.2403,-2.2798,-2.3442,-2.3764,-2.3984,-2.4188,-2.4071,-2.3998,-2.4203,-2.4145,-2.4218,-2.4723,-2.4973,-2.5119,-2.5119,-2.6234,-2.7086,-2.7086,-2.8723,-3.0207,-3.1194,-3.1707,-3.2365,-3.3355,-3.3418,-3.3418,-3.3418,-3.3418,-3.3418,-3.3418,-3.3418,-3.3418,-3.3418,-3.3418,-3.2174,-2.9835,-2.9378,-2.775,-2.5119,-2.6032,-2.7219,-2.8592,-3.003,-3.1451,-3.2765,-3.3228,-3.3418,-3.3418,-3.3418,-3.3418,-3.3418,-3.3418,-3.3418,-3.3418,-3.3418,-3.3418,-3.3418,-3.3418,-3.3418,-3.3418,-3.3418,-3.3418,-3.3418,-3.3418,-3.3418,-3.3418,-3.3418,-3.3418,-3.3418,-3.3418,-3.3418,-3.3418,-3.3418,-3.3418,-3.3418,-3.3418,-3.3418,-3.3418,-3.3418,-3.3418,-3.3418,-3.3418,-3.3418,-3.3418,-3.3544,-3.517,-3.7023,-3.8935,-4.1444,-4.2986,-4.2986,-4.2986,-4.2986,-4.2986,-4.2986,-4.2986,-4.2986,-4.2986,-4.2986,-4.2986,-4.2986,-4.2986,-4.2986,-4.2986,-4.2986,-4.2986,-4.2986,-4.2986,-2.1598,-2.1686,-2.1774,-2.2096,-2.2403,-2.2798,-2.3442,-2.3603,-2.3793,-2.4437,-2.4057,-2.3808,-2.4452,-2.4305,-2.4305,-2.5017,-2.5119,-2.5119,-2.5119,-2.6301,-2.7153,-2.7153,-2.9622,-3.1322,-3.1322,-3.2556,-3.3418,-3.3418,-3.3418,-3.3418,-3.3418,-3.3418,-3.3418,-3.3418,-3.3418,-3.3418,-3.3418,-3.3418,-3.2702,-3.1258,-2.99,-2.7816,-2.5119,-2.5119,-2.5846,-2.7153,-2.8592,-3.003,-3.1387,-3.2829,-3.3418,-3.3418,-3.3418,-3.3418,-3.3418,-3.3418,-3.3418,-3.3418,-3.3418,-3.3418,-3.3418,-3.3418,-3.3418,-3.3418,-3.3418,-3.3418,-3.3418,-3.3418,-3.3418,-3.3418,-3.3418,-3.3418,-3.3418,-3.3418,-3.3418,-3.3418,-3.3418,-3.3418,-3.3418,-3.3418,-3.3418,-3.3418,-3.3418,-3.3418,-3.3418,-3.3418,-3.3418,-3.3544,-3.3859,-3.5294,-3.7506,-4.0731,-4.2206,-4.2986,-4.2986,-4.2986,-4.2986,-4.2986,-4.2986,-4.2986,-4.2986,-4.2986,-4.2986,-4.2986,-4.2986,-4.2986,-4.2986,-4.2986,-4.2986,-4.2986,-4.2986,-4.2986,-2.0925,-2.1174,-2.1437,-2.1759,-2.2403,-2.3076,-2.3501,-2.3954,-2.4393,-2.4899,-2.4635,-2.4335,-2.454,-2.4496,-2.4811,-2.6048,-2.6413,-2.682,-2.7816,-2.9182,-3.0077,-3.0077,-3.1643,-3.2765,-3.2765,-3.3165,-3.3418,-3.3418,-3.3418,-3.3418,-3.3418,-3.3418,-3.3418,-3.3418,-3.3418,-3.3418,-3.3418,-3.3418,-3.2702,-3.1304,-3.0854,-2.923,-2.6501,-2.551,-2.5846,-2.7153,-2.8592,-3.003,-3.1387,-3.2829,-3.3418,-3.3418,-3.3418,-3.3418,-3.3418,-3.3418,-3.3418,-3.3418,-3.3418,-3.3418,-3.3418,-3.3418,-3.3418,-3.3418,-3.3418,-3.3418,-3.3418,-3.3418,-3.3418,-3.3418,-3.3418,-3.3418,-3.3418,-3.3418,-3.3418,-3.3418,-3.3418,-3.3418,-3.3418,-3.3418,-3.3418,-3.3418,-3.3418,-3.3418,-3.3418,-3.3418,-3.3418,-3.3839,-3.5108,-3.5888,-3.7084,-3.9193,-4.0731,-4.1672,-4.1672,-4.2513,-4.2986,-4.2986,-4.2986,-4.2986,-4.2986,-4.2986,-4.2986,-4.2986,-4.2986,-4.2986,-4.2986,-4.2986,-4.2986,-4.2986,-4.2986,-4.2986,-2.1174,-2.1525,-2.1876,-2.2345,-2.3303,-2.4263,-2.4853,-2.4862,-2.4885,-2.509,-2.487,-2.4613,-2.4744,-2.4657,-2.5128,-2.6622,-2.701,-2.7618,-2.8986,-3.0419,-3.1322,-3.1322,-3.2556,-3.3418,-3.3418,-3.3418,-3.3418,-3.3418,-3.3262,-3.3164,-3.3164,-3.3008,-3.293,-3.293,-3.293,-3.293,-3.293,-3.293,-3.2474,-3.1621,-3.0529,-2.9124,-2.7458,-2.6377,-2.6032,-2.6435,-2.8328,-3.003,-3.1368,-3.2656,-3.3164,-3.3164,-3.2988,-3.293,-3.293,-3.293,-3.3027,-3.3164,-3.3164,-3.3281,-3.3418,-3.3418,-3.3418,-3.3418,-3.3418,-3.3418,-3.3418,-3.3418,-3.3418,-3.3418,-3.3418,-3.3418,-3.3418,-3.3418,-3.3418,-3.3418,-3.3418,-3.3418,-3.3418,-3.3418,-3.3418,-3.3418,-3.3418,-3.3418,-3.3418,-3.3418,-3.3418,-3.3839,-3.5108,-3.5888,-3.6963,-3.8721,-4.021,-4.1272,-4.181,-4.2569,-4.2986,-4.2986,-4.2986,-4.2986,-4.2986,-4.2986,-4.2986,-4.2986,-4.2986,-4.2986,-4.2986,-4.2986,-4.2986,-4.2986,-4.2986,-4.2986,-2.2127,-2.2571,-2.3063,-2.3747,-2.4983,-2.6183,-2.7112,-2.6368,-2.539,-2.5119,-2.4885,-2.4767,-2.5196,-2.5004,-2.5417,-2.7156,-2.7453,-2.7949,-2.9327,-3.0588,-3.1404,-3.1404,-3.2524,-3.3301,-3.3301,-3.3301,-3.3301,-3.3301,-3.2949,-3.2734,-3.2734,-3.2383,-3.2229,-3.2229,-3.2229,-3.2229,-3.2229,-3.2229,-3.2229,-3.2168,-2.9511,-2.8197,-2.8089,-2.7214,-2.6208,-2.5368,-2.7966,-2.9924,-3.1304,-3.231,-3.2734,-3.2695,-3.2324,-3.2229,-3.2229,-3.2229,-3.2402,-3.2734,-3.2734,-3.3008,-3.3359,-3.3359,-3.3398,-3.3418,-3.3418,-3.3418,-3.3418,-3.3418,-3.3418,-3.3418,-3.3418,-3.3418,-3.3418,-3.3418,-3.3418,-3.3418,-3.3418,-3.3418,-3.3418,-3.3418,-3.3418,-3.3418,-3.3418,-3.3418,-3.3418,-3.3418,-3.3418,-3.3733,-3.4403,-3.5602,-3.7084,-3.898,-4.0326,-4.1558,-4.2737,-4.2905,-4.2986,-4.2986,-4.2986,-4.2986,-4.2986,-4.2986,-4.2986,-4.2986,-4.2986,-4.2986,-4.2986,-4.2986,-4.2986,-4.2986,-4.2986,-4.2986,-2.3012,-2.412,-2.5186,-2.6204,-2.7294,-2.8212,-2.8671,-2.8526,-2.7684,-2.551,-2.5061,-2.5368,-2.6486,-2.6624,-2.7389,-2.9995,-3.0152,-3.0402,-3.1829,-3.1999,-3.1992,-3.1992,-3.2238,-3.2441,-3.2441,-3.2441,-3.2441,-3.2441,-3.2363,-3.2305,-3.2305,-3.2226,-3.2229,-3.2229,-3.2229,-3.2229,-3.2229,-3.2229,-3.2229,-3.2168,-3.0501,-2.9181,-2.8009,-2.5763,-2.5191,-2.6084,-2.7674,-2.9133,-3.0556,-3.1834,-3.2305,-3.2285,-3.2207,-3.2229,-3.2229,-3.2229,-3.2226,-3.2305,-3.2305,-3.2578,-3.293,-3.293,-3.3144,-3.3418,-3.3418,-3.3418,-3.3418,-3.3418,-3.3418,-3.3418,-3.3418,-3.3418,-3.3418,-3.3418,-3.3418,-3.3418,-3.3418,-3.3418,-3.3418,-3.3418,-3.3418,-3.3418,-3.3418,-3.3418,-3.3418,-3.3418,-3.3607,-3.4215,-3.5335,-3.6194,-3.7226,-3.8662,-4.021,-4.1215,-4.1501,-4.2457,-4.2986,-4.2986,-4.2986,-4.2986,-4.2986,-4.2986,-4.2986,-4.2986,-4.2986,-4.2986,-4.2986,-4.2986,-4.2986,-4.2986,-4.2986,-4.2986,-2.2893,-2.3614,-2.4584,-2.7105,-2.8885,-3.0041,-3.0172,-3.0225,-2.9639,-2.7485,-2.7086,-2.7286,-2.8015,-2.7917,-2.8502,-3.0646,-3.0699,-3.0897,-3.2296,-3.2305,-3.2229,-3.2229,-3.2229,-3.2229,-3.2229,-3.2229,-3.2229,-3.2229,-3.1973,-3.1855,-3.1855,-3.166,-3.1562,-3.1562,-3.1562,-3.1562,-3.1562,-3.1562,-3.1562,-3.1562,-2.9623,-2.7648,-2.5674,-2.457,-2.4526,-2.5286,-2.725,-2.8511,-2.9306,-3.1127,-3.1855,-3.1836,-3.1641,-3.1562,-3.1562,-3.1562,-3.168,-3.1855,-3.1855,-3.2148,-3.25,-3.25,-3.2637,-3.2832,-3.2832,-3.2832,-3.2832,-3.2832,-3.2832,-3.2832,-3.2832,-3.2969,-3.3125,-3.3125,-3.3281,-3.3418,-3.3418,-3.3418,-3.3418,-3.3418,-3.3418,-3.3418,-3.3418,-3.3418,-3.3418,-3.3418,-3.367,-3.4403,-3.5867,-3.6478,-3.7588,-3.9604,-4.0616,-4.1329,-4.198,-4.2625,-4.2986,-4.2986,-4.2986,-4.2986,-4.2986,-4.2986,-4.2986,-4.2986,-4.2986,-4.2986,-4.2986,-4.2986,-4.2986,-4.2986,-4.2986,-4.2986,-2.2387,-2.2948,-2.3807,-2.7402,-2.9605,-3.091,-3.0918,-3.1075,-3.0892,-2.9665,-2.9327,-2.9248,-2.9509,-2.9245,-2.9432,-3.0862,-3.0661,-3.0733,-3.193,-3.1992,-3.2013,-3.2013,-3.2013,-3.2013,-3.2013,-3.2013,-3.2013,-3.2013,-3.1621,-3.1406,-3.1406,-3.1074,-3.0859,-3.0781,-3.0762,-3.0742,-3.0664,-3.0664,-3.0664,-3.0664,-2.808,-2.5509,-2.3047,-2.3647,-2.391,-2.4039,-2.65,-2.7696,-2.8037,-3.0185,-3.1228,-3.1367,-3.1035,-3.0898,-3.0898,-3.0898,-3.1113,-3.1406,-3.1406,-3.1699,-3.2051,-3.2051,-3.2109,-3.2229,-3.2229,-3.2229,-3.2229,-3.2229,-3.2229,-3.2229,-3.2229,-3.2422,-3.2695,-3.2695,-3.3008,-3.334,-3.3398,-3.3418,-3.3418,-3.3418,-3.3418,-3.3418,-3.3418,-3.3418,-3.3418,-3.3481,-3.3796,-3.4632,-3.6478,-3.7045,-3.8305,-4.1157,-4.1444,-4.1866,-4.293,-4.2986,-4.2986,-4.2986,-4.2986,-4.2986,-4.2986,-4.2986,-4.2986,-4.2986,-4.2986,-4.2986,-4.2986,-4.2986,-4.2986,-4.2986,-4.2986,-4.2986,-2.2023,-2.4152,-2.6483,-2.7906,-2.8714,-2.9176,-2.944,-3.0152,-3.0746,-3.0556,-2.9801,-2.9574,-3.0789,-3.0674,-3.0862,-3.2277,-3.1805,-3.1362,-3.1542,-3.1289,-3.1055,-3.1055,-3.1055,-3.1055,-3.1055,-3.1055,-3.1055,-3.1055,-3.1016,-3.0976,-3.0976,-3.0918,-3.0703,-3.0293,-3.0293,-3.0117,-2.9802,-2.9746,-2.9746,-2.9746,-2.7526,-2.5136,-2.2696,-2.3062,-2.3237,-2.33,-2.4843,-2.6121,-2.728,-2.8672,-2.992,-3.0976,-3.0918,-3.0898,-3.0898,-3.0898,-3.0918,-3.0976,-3.0976,-3.125,-3.1601,-3.1601,-3.1855,-3.2229,-3.2229,-3.2229,-3.2229,-3.2229,-3.2229,-3.2229,-3.2229,-3.2268,-3.2246,-3.2246,-3.2578,-3.2988,-3.334,-3.3418,-3.3418,-3.3418,-3.3418,-3.3418,-3.3418,-3.3418,-3.3481,-3.3796,-3.411,-3.5314,-3.8007,-3.8662,-3.9861,-4.2457,-4.2737,-4.2793,-4.2986,-4.2986,-4.2986,-4.2986,-4.2986,-4.2986,-4.2986,-4.2986,-4.2986,-4.2986,-4.2986,-4.2986,-4.2986,-4.2986,-4.2986,-4.2986,-4.2986,-4.2986,-2.0788,-2.3471,-2.6364,-2.7668,-2.8381,-2.906,-3.0136,-3.0727,-3.0992,-3.0772,-3.1009,-3.1318,-3.1721,-3.1465,-3.1321,-3.1949,-3.1562,-3.1172,-3.1172,-3.0996,-3.0898,-3.0898,-3.0898,-3.0898,-3.0898,-3.0898,-3.0898,-3.0898,-3.0898,-3.0781,-3.0508,-3.0508,-3.0293,-2.9863,-2.9844,-2.9766,-2.9626,-2.9626,-2.8878,-2.7539,-2.6551,-2.4838,-2.2389,-2.252,-2.3199,-2.427,-2.4826,-2.6216,-2.8086,-2.8683,-2.9707,-3.0898,-3.0898,-3.0898,-3.0898,-3.0898,-3.0898,-3.0898,-3.0898,-3.1016,-3.1172,-3.1172,-3.1289,-3.1445,-3.1445,-3.1445,-3.1445,-3.1445,-3.1445,-3.1445,-3.1445,-3.1621,-3.1797,-3.1797,-3.2129,-3.25,-3.2676,-3.3086,-3.3418,-3.3418,-3.3418,-3.3418,-3.3418,-3.3418,-3.334,-3.3293,-3.3888,-3.5273,-3.7747,-3.8739,-4.0152,-4.2737,-4.2986,-4.2986,-4.2986,-4.2986,-4.2986,-4.2986,-4.2986,-4.2986,-4.2986,-4.2986,-4.2986,-4.2986,-4.2986,-4.2986,-4.2986,-4.2986,-4.2866,-4.2564,-4.2564,-4.2359,-1.9667,-2.1979,-2.4484,-2.6253,-2.7199,-2.8208,-3.0038,-3.0683,-3.0746,-3.0544,-3.1499,-3.2207,-3.1894,-3.166,-3.1523,-3.1523,-3.1172,-3.0898,-3.0898,-3.0898,-3.0898,-3.0898,-3.0898,-3.0898,-3.0898,-3.0898,-3.084,-3.0723,-3.0723,-3.0508,-3.0059,-3.0039,-2.9844,-2.9414,-2.9394,-2.9355,-2.9238,-2.9238,-2.8219,-2.604,-2.5841,-2.458,-2.2527,-2.2319,-2.3142,-2.4862,-2.4801,-2.6285,-2.8773,-2.8773,-2.9632,-3.0898,-3.0898,-3.0898,-3.0898,-3.0898,-3.0898,-3.0898,-3.0898,-3.0898,-3.0898,-3.0898,-3.0898,-3.0898,-3.0898,-3.0898,-3.0898,-3.0898,-3.0898,-3.0898,-3.0898,-3.1133,-3.1367,-3.1367,-3.168,-3.2031,-3.2148,-3.2656,-3.3105,-3.3105,-3.3105,-3.3105,-3.3105,-3.3105,-3.3051,-3.2922,-3.3798,-3.5265,-3.7372,-3.8596,-4.0097,-4.2338,-4.2685,-4.2816,-4.2816,-4.2886,-4.2986,-4.2986,-4.2986,-4.2986,-4.2986,-4.2986,-4.2986,-4.2986,-4.2891,-4.2836,-4.2986,-4.2836,-4.2615,-4.2213,-4.2062,-4.1731,-1.9052,-1.9685,-2.0708,-2.3105,-2.4252,-2.54,-2.7679,-2.8827,-2.9605,-3.0032,-3.0626,-3.0976,-3.0957,-3.1269,-3.1523,-3.1523,-3.1172,-3.0898,-3.0898,-3.0898,-3.0898,-3.0898,-3.0898,-3.0898,-3.0898,-3.0898,-3.0703,-3.0273,-3.0234,-3.0059,-2.9629,-2.9609,-2.9394,-2.8965,-2.8945,-2.8769,-2.8359,-2.8359,-2.7749,-2.6482,-2.5604,-2.4587,-2.3373,-2.2557,-2.2885,-2.4129,-2.4012,-2.5604,-2.8312,-2.8312,-2.9368,-3.0898,-3.0898,-3.0898,-3.0898,-3.0898,-3.0898,-3.0898,-3.0898,-3.0898,-3.0898,-3.0898,-3.0898,-3.0898,-3.0898,-3.0898,-3.0898,-3.0898,-3.0898,-3.0898,-3.0898,-3.0918,-3.0918,-3.0918,-3.125,-3.166,-3.207,-3.2207,-3.2226,-3.2226,-3.2226,-3.2226,-3.2226,-3.2226,-3.247,-3.3015,-3.4132,-3.5583,-3.7463,-3.8704,-3.9916,-4.1268,-4.1882,-4.2263,-4.2263,-4.274,-4.2986,-4.2986,-4.2986,-4.2986,-4.2986,-4.2986,-4.2986,-4.2986,-4.2514,-4.2514,-4.2986,-4.2514,-4.2238,-4.2213,-4.163,-4.13,-1.8438,-1.9038,-2.0272,-2.3706,-2.4326,-2.4946,-2.8175,-2.913,-2.9441,-2.9587,-3.0509,-3.1211,-3.0937,-3.1016,-3.1113,-3.1113,-3.0996,-3.0898,-3.0898,-3.0898,-3.0898,-3.0898,-3.0898,-3.0898,-3.0898,-3.0898,-3.0703,-3.0234,-3.0195,-2.9883,-2.9199,-2.9141,-2.8965,-2.8535,-2.8516,-2.8437,-2.8301,-2.8301,-2.7295,-2.5351,-2.503,-2.3884,-2.1997,-2.167,-2.2236,-2.3397,-2.4121,-2.5921,-2.8373,-2.8333,-2.935,-3.0898,-3.0898,-3.0898,-3.0898,-3.0898,-3.0898,-3.0898,-3.0898,-3.0898,-3.0898,-3.0898,-3.0898,-3.0898,-3.0898,-3.0898,-3.0898,-3.0898,-3.0898,-3.0898,-3.0898,-3.0898,-3.0898,-3.0898,-3.0996,-3.1152,-3.1309,-3.1777,-3.2229,-3.2229,-3.2229,-3.2229,-3.2229,-3.2229,-3.2252,-3.2376,-3.3153,-3.4555,-3.6703,-3.7775,-3.907,-4.1114,-4.1831,-4.2213,-4.2213,-4.2715,-4.2986,-4.2986,-4.2986,-4.2986,-4.2986,-4.2986,-4.2811,-4.2514,-4.2313,-4.2313,-4.2514,-4.1907,-4.1455,-4.1103,-4.0902,-4.0626,-1.7984,-1.8452,-1.9596,-2.3071,-2.3784,-2.4611,-2.8043,-2.9065,-2.9378,-2.9808,-3.0503,-3.1035,-3.0918,-3.0898,-3.0898,-3.0898,-3.0898,-3.0898,-3.0898,-3.0898,-3.0898,-3.0898,-3.0898,-3.0898,-3.0898,-3.0898,-3.0703,-3.0234,-3.0059,-2.9668,-2.8965,-2.8789,-2.8574,-2.8301,-2.8301,-2.8301,-2.8301,-2.7906,-2.6898,-2.5278,-2.4505,-2.3295,-2.1816,-2.1375,-2.1645,-2.2482,-2.4005,-2.6025,-2.8228,-2.8592,-2.9584,-3.0898,-3.0898,-3.0898,-3.0898,-3.0898,-3.0898,-3.0898,-3.0898,-3.0898,-3.0898,-3.0898,-3.0898,-3.0898,-3.0898,-3.0898,-3.0898,-3.0898,-3.0898,-3.0898,-3.0898,-3.0898,-3.0898,-3.0898,-3.0898,-3.0898,-3.0898,-3.1328,-3.1738,-3.1738,-3.1738,-3.1738,-3.1738,-3.1858,-3.1939,-3.1918,-3.2766,-3.4033,-3.5703,-3.6989,-3.8453,-4.0252,-4.1314,-4.1957,-4.2187,-4.2715,-4.2986,-4.2986,-4.2811,-4.2766,-4.2766,-4.2534,-4.2258,-4.1882,-4.1706,-4.1605,-4.1605,-4.1254,-4.0824,-4.0501,-4.0325,-4.0049,0.0,0.0,0.0,-2.0865,-2.236,-2.4018,-2.7047,-2.8311,-2.9183,-3.0566,-3.0469,-3.0293,-3.0762,-3.0859,-3.0859,-3.0859,-3.0879,-3.0898,-3.0898,-3.0898,-3.0898,-3.0898,-3.0898,-3.0898,-3.0898,-3.0898,-3.0703,-3.0234,-2.9805,-2.9375,-2.8945,-2.8516,-2.8301,-2.8301,-2.8301,-2.8301,-2.8247,-2.7079,-2.6463,-2.6354,-2.4094,-2.2974,-2.2918,-2.1702,-2.1203,-2.1318,-2.3631,-2.5828,-2.7823,-2.9084,-3.0059,-3.0859,-3.0859,-3.0859,-3.0859,-3.0859,-3.0879,-3.0898,-3.0898,-3.0898,-3.0898,-3.0898,-3.0898,-3.0898,-3.0898,-3.0898,-3.0898,-3.0898,-3.0898,-3.0898,-3.0898,-3.0898,-3.0898,-3.0898,-3.0898,-3.0898,-3.0898,-3.0898,-3.0898,-3.0898,-3.0898,-3.0898,-3.0898,-3.1112,-3.1383,-3.173,-3.3006,-3.4078,-3.4469,-3.648,-3.8089,-3.8701,-4.0256,-4.1555,-4.2112,-4.269,-4.2936,-4.2936,-4.2489,-4.2187,-4.2187,-4.163,-4.1275,-4.125,-4.0802,-4.0501,-4.0501,-4.0501,-4.0501,-4.0475,-3.9948,-3.9697,-1.7395,0.0,0.0,0.0,0.0,0.0,-2.5756,-2.6489,-2.7096,-2.9033,-2.9355,-2.9414,-2.9863,-3.0176,-3.0391,-3.0391,-3.0664,-3.0898,-3.0898,-3.0898,-3.0898,-3.0898,-3.0898,-3.0898,-3.0898,-3.0898,-3.0703,0.0,-2.9805,-2.9375,-2.8945,-2.8516,-2.8301,-2.8301,-2.8301,-2.7906,-2.7025,-2.6699,-2.5643,-2.3983,-2.3311,-2.2539,-2.1717,-2.1375,-2.1203,-2.1261,-2.2805,-2.4457,-2.6219,-2.8254,-2.9434,-2.9941,-2.9941,-3.0117,-3.0391,-3.0391,-3.0605,-3.0898,-3.0898,-3.0898,-3.0898,-3.0898,-3.0898,-3.0898,-3.0898,-3.0898,-3.0898,-3.0898,-3.0898,-3.0898,-3.0898,-3.0898,-3.0898,-3.0898,-3.0898,-3.0898,-3.0898,-3.0898,-3.0898,-3.0898,-3.0898,-3.0898,-3.0898,-3.0937,-3.117,-3.173,-3.2113,-3.2913,-3.4302,-3.5772,-3.7066,-3.8035,-4.0034,-4.1175,-4.0978,-4.1831,-4.2208,-4.1806,-4.1656,-4.1555,-4.1555,-4.1376,-4.11,-4.0752,-4.0601,-4.0325,-3.9923,-3.9923,-3.9923,-3.9923,-3.9772,-3.9697,-1.753,-1.7808,-1.8351,-1.9545,0.0,0.0,-2.4157,-2.5027,-2.5848,-2.7951,-2.8535,-2.8789,-2.9219,-2.9648,-3.0,-3.0176,-3.043,-3.0664,-3.0859,-3.0898,-3.0957,-3.1133,-3.1152,-3.1152,-3.1152,-3.1152,-3.0976,-3.0527,-2.9922,-2.9297,-2.8691,-2.8418,-2.8301,-2.8301,-2.8301,-2.7745,-2.6518,-2.6009,-2.4799,-2.2974,-2.2482,-2.1873,-2.1203,-2.1203,-2.1489,-2.2044,-2.3199,-2.453,-2.598,-2.7872,-2.9023,-2.9626,-2.9626,-2.9726,-2.9961,-3.0137,-3.0371,-3.0625,-3.082,-3.0898,-3.0898,-3.0898,-3.0898,-3.0898,-3.0898,-3.0898,-3.0898,-3.0898,-3.0898,-3.0898,-3.0898,-3.0898,-3.0898,-3.0898,-3.0898,-3.0898,-3.0898,-3.0898,-3.0898,-3.0898,-3.0898,-3.0898,-3.0898,-3.0995,-3.1228,-3.173,-3.1903,-3.2628,-3.4302,-3.5498,-3.6712,-3.8131,-3.9886,-4.0899,-4.0824,-4.1455,-4.1681,-4.13,-4.1075,-4.1003,-4.1003,-4.0777,-4.0501,-4.0174,-4.0174,-4.0023,-3.9697,-3.9697,-3.9697,-3.9697,-3.9697,-3.9697,-1.7867,-1.7896,-1.8057,-1.8599,-1.9502,0.0,-2.235,-2.3591,-2.496,-2.6904,-2.7701,-2.8144,-2.8613,-2.9062,-2.9492,-2.9844,-3.0,-3.0254,-3.082,-3.0898,-3.1035,-3.1406,-3.1484,-3.1504,-3.1445,-3.1484,-3.1348,-3.0918,-3.0078,-2.9199,-2.834,-2.8301,-2.8301,-2.8301,-2.8301,-2.7691,-2.63,-2.5223,-2.4078,-2.2821,-2.1702,-2.1203,-2.1203,-2.1318,-2.1987,-2.303,-2.4228,-2.5406,-2.6572,-2.7691,-2.8622,-2.9489,-2.9489,-2.9453,-2.9551,-2.998,-3.0156,-3.0273,-3.0723,-3.0898,-3.0898,-3.0898,-3.0898,-3.0898,-3.0898,-3.0898,-3.0898,-3.0898,-3.0898,-3.0898,-3.0898,-3.0898,-3.0898,-3.0898,-3.0898,-3.0898,-3.0898,-3.0898,-3.0898,-3.0898,-3.0898,-3.0898,-3.0898,-3.1112,-3.1383,-3.173,-3.219,-3.297,-3.4323,-3.5608,-3.6967,-3.8521,-3.9816,-4.0701,-4.1075,-4.1175,-4.1175,-4.11,-4.0701,-4.0425,-4.0425,-3.9948,-3.9697,-3.9697,-3.9697,-3.9697,-3.9697,-3.9697,-3.9697,-3.9697,-3.9697,-3.9697,-1.8203,-1.8394,-1.8569,-1.8438,-1.8734,0.0,-2.031,-2.1307,-2.2602,-2.4566,-2.5626,-2.6484,-2.7246,-2.7734,-2.8119,-2.8198,-2.873,-2.957,-3.0723,-3.0898,-3.0918,-3.0996,-3.1309,-3.1387,-3.1055,-3.1328,-3.1348,-3.0918,-3.0078,-2.9199,-2.834,-2.8301,-2.8301,-2.8301,-2.8301,-2.7241,-2.5058,-2.4837,-2.3631,-2.1546,-2.1318,-2.1203,-2.1203,-2.2214,-2.2765,-2.303,-2.4228,-2.5406,-2.6518,-2.6735,-2.7498,-2.8535,-2.8535,-2.875,-2.9101,-2.9531,-2.9902,-3.0273,-3.0723,-3.0898,-3.0898,-3.0898,-3.0898,-3.0898,-3.0898,-3.0898,-3.0898,-3.0898,-3.0898,-3.0898,-3.0898,-3.0898,-3.0898,-3.0898,-3.0898,-3.0898,-3.0898,-3.0898,-3.0898,-3.0898,-3.0898,-3.0898,-3.0898,-3.1112,-3.1383,-3.173,-3.2856,-3.3853,-3.4413,-3.6317,-3.7708,-3.8041,-3.9541,-4.0375,-4.0049,-4.0425,-4.0475,-4.0049,-3.9923,-3.9848,-3.9848,-3.9747,-3.9697,-3.9697,-3.9697,-3.9697,-3.9697,-3.9697,-3.9697,-3.9697,-3.9697,-3.9697,-1.8789,-1.8789,-1.8745,-1.8584,-1.8789,0.0,0.0,-2.1305,-2.2302,-2.4545,-2.5208,-2.5605,-2.62,-2.6738,-2.709,-2.7305,-2.7871,-2.8594,-2.9473,-3.0137,-3.0703,-3.1152,-3.1387,-3.1426,-3.123,-3.1387,-3.1152,-3.0293,-2.9824,-2.9199,-2.834,-2.8301,-2.8301,-2.8301,-2.7745,-2.6518,-2.4727,-2.4117,-2.2974,-2.1203,-2.1203,-2.1203,-2.1261,-2.2425,-2.3311,-2.3911,-2.5075,-2.63,-2.7403,-2.7403,-2.7745,-2.8301,-2.8301,-2.8418,-2.8652,-2.9082,-2.9375,-2.9648,-3.0312,-3.0547,-3.0586,-3.082,-3.0898,-3.0898,-3.0898,-3.0898,-3.0898,-3.0898,-3.0898,-3.0898,-3.0898,-3.0898,-3.0898,-3.0898,-3.0898,-3.0898,-3.0898,-3.0898,-3.0898,-3.0898,-3.0898,-3.0898,-3.0898,-3.0995,-3.1228,-3.1498,-3.2342,-3.3459,-3.4925,-3.624,-3.7501,-3.8659,-3.9559,-3.9998,-3.9722,-3.9948,-3.9998,-3.9722,-3.9697,-3.9697,-3.9697,-3.9697,-3.9697,-3.9697,-3.9697,-3.9697,-3.9697,-3.9697,-3.9697,-3.9697,-3.9697,-3.9697,-1.9338,-1.9081,-1.8847,-1.873,-1.8935,-1.9617,0.0,0.0,0.0,-2.4621,-2.5052,-2.5156,-2.543,-2.584,-2.6211,-2.6465,-2.6953,-2.7422,-2.7754,-2.8906,-3.0,-3.0801,-3.1035,-3.1113,-3.1035,-3.1016,-3.0605,-2.9648,-2.9414,-2.9023,-2.832,-2.8301,-2.8301,-2.8301,-2.7058,-2.5846,-2.4607,-2.3412,-2.2168,-2.1028,-2.1028,-2.1057,-2.1115,-2.2317,-2.3566,-2.4782,-2.5954,-2.7187,-2.8301,-2.8301,-2.8301,-2.8301,-2.8301,-2.8301,-2.834,-2.8769,-2.8926,-2.9023,-2.9805,-3.0137,-3.0254,-3.0644,-3.082,-3.0898,-3.0898,-3.0898,-3.0898,-3.0898,-3.0898,-3.0898,-3.0898,-3.0898,-3.0898,-3.0898,-3.0898,-3.0898,-3.0898,-3.0898,-3.0898,-3.0898,-3.0898,-3.0898,-3.0898,-3.0937,-3.1054,-3.1267,-3.1845,-3.3063,-3.5398,-3.6185,-3.734,-3.9465,-3.9697,-3.9697,-3.9697,-3.9697,-3.9697,-3.9697,-3.9697,-3.9697,-3.9697,-3.9697,-3.9697,-3.9697,-3.9697,-3.9697,-3.9697,-3.9697,-3.9697,-3.9697,-3.9697,-3.9697,-1.9412,-1.9242,-1.9081,-1.8496,-1.8599,-1.8899,-1.9099,0.0,-2.1687,-2.251,0.0,-2.4961,-2.4629,0.0,0.0,-2.4766,-2.541,-2.5927,-2.5966,-2.7129,-2.8125,-2.8613,-2.9336,-2.9648,-2.9258,-2.9219,-2.9316,-2.9551,-2.8867,-2.8398,-2.8301,-2.8301,-2.8301,-2.8301,-2.683,-2.5487,-2.4339,-2.2846,-2.1511,-2.0285,-2.0285,-2.0446,-2.0779,-2.2031,-2.3337,-2.4782,-2.5954,-2.7187,-2.8301,-2.8301,-2.8301,-2.8301,-2.8301,-2.8301,-2.834,-2.8769,-2.8926,-2.8984,-2.9473,-2.9883,-3.0215,-3.0254,-3.0547,-3.0898,-3.0898,-3.0898,-3.0898,-3.0898,-3.0898,-3.0898,-3.0898,-3.0898,-3.0898,-3.0898,-3.0898,-3.0898,-3.0898,-3.0898,-3.0898,-3.0898,-3.0898,-3.0898,-3.0898,-3.1112,-3.1267,-3.1325,-3.2664,-3.4224,-3.5508,-3.6888,-3.8214,-3.9594,-3.9697,-3.9697,-3.9697,-3.9697,-3.9697,-3.9697,-3.9697,-3.9697,-3.9697,-3.9697,-3.9697,-3.9697,-3.9697,-3.9697,-3.9697,-3.9697,-3.9697,-3.9697,-3.9697,-3.9697,-1.9647,-1.947,-1.9169,-1.8701,-1.8686,-1.8929,-1.9351,-2.027,-2.1344,-2.2472,0.0,0.0,0.0,0.0,0.0,0.0,-2.457,-2.4933,-2.4933,-2.543,-2.6309,-2.7754,-2.8457,-2.8848,-2.8906,-2.8926,-2.9004,-2.918,-2.8633,-2.8301,-2.8301,-2.8301,-2.8301,-2.8301,-2.6793,-2.5433,-2.4287,-2.2678,-2.1349,-2.0183,-2.0183,-2.0256,-2.0498,-2.2311,-2.351,-2.4201,-2.6291,-2.7487,-2.7949,-2.8184,-2.8301,-2.8301,-2.8301,-2.8301,-2.832,-2.8496,-2.8555,-2.8613,-2.9043,-2.9297,-2.9531,-3.0039,-3.0332,-3.0527,-3.082,-3.0898,-3.0898,-3.0898,-3.0898,-3.0898,-3.0898,-3.0898,-3.0898,-3.0898,-3.0898,-3.0898,-3.0898,-3.0898,-3.0898,-3.0898,-3.0898,-3.0898,-3.0898,-3.0995,-3.1054,-3.1054,-3.1825,-3.3155,-3.5233,-3.6108,-3.7423,-3.9465,-3.9697,-3.9697,-3.9697,-3.9697,-3.9697,-3.9697,-3.9697,-3.9697,-3.9697,-3.9697,-3.9697,-3.9697,-3.9697,-3.9697,-3.9697,-3.9697,-3.9697,-3.9697,-3.9697,-3.9697,-1.9705,-1.9514,-1.9169,-1.876,-1.8657,-1.884,-1.9461,-2.0303,-2.1275,-2.2545,-2.332,0.0,0.0,0.0,-2.4062,-2.3828,0.0,-2.4336,-2.4102,-2.4277,-2.5,-2.6582,-2.7266,-2.7812,-2.834,-2.8184,-2.8184,-2.8555,-2.7969,-2.7754,-2.8105,-2.8125,-2.8125,-2.8125,-2.657,-2.5341,-2.4474,-2.2808,-2.1427,-2.039,-2.039,-2.0288,-2.016,-2.2102,-2.3195,-2.3719,-2.6005,-2.7278,-2.7748,-2.7988,-2.8184,-2.8301,-2.8301,-2.8301,-2.8301,-2.8301,-2.8301,-2.834,-2.8633,-2.8828,-2.9062,-2.9922,-3.0195,-3.0293,-3.0762,-3.0898,-3.0898,-3.0898,-3.0898,-3.0898,-3.0898,-3.0898,-3.0898,-3.0898,-3.0898,-3.0898,-3.0898,-3.0898,-3.0898,-3.0898,-3.0898,-3.0898,-3.0898,-3.0898,-3.0995,-3.1344,-3.1614,-3.2758,-3.5476,-3.6022,-3.7103,-3.9465,-3.9697,-3.9697,-3.9697,-3.9697,-3.9697,-3.9697,-3.9697,-3.9697,-3.9697,-3.9697,-3.9697,-3.9697,-3.9697,-3.9697,-3.9697,-3.9697,-3.9697,-3.9697,-3.9697,-3.9697,-1.9374,-1.9286,-1.9125,-1.8482,-1.8321,-1.839,-1.8753,-2.0215,-2.166,-2.2189,-2.406,-2.5343,-2.4551,-2.4746,-2.4793,-2.3926,-2.4141,0.0,0.0,-2.3842,-2.4434,-2.4512,-2.5245,-2.6103,-2.6992,-2.6328,-2.6348,-2.7669,-2.6523,-2.6367,-2.7669,-2.7748,-2.7748,-2.7748,-2.6191,-2.5212,-2.4776,-2.323,-2.1928,-2.0873,-2.0873,-2.0493,-1.9837,-2.0959,-2.2241,-2.3649,-2.4769,-2.6191,-2.7728,-2.7728,-2.793,-2.8301,-2.8301,-2.8301,-2.8301,-2.8301,-2.8301,-2.8301,-2.8301,-2.8574,-2.9062,-2.9922,-3.0195,-3.0293,-3.0762,-3.0898,-3.0898,-3.0898,-3.0898,-3.0898,-3.0898,-3.0898,-3.0898,-3.0898,-3.0898,-3.0898,-3.0898,-3.0898,-3.0898,-3.0898,-3.0898,-3.0898,-3.0898,-3.0898,-3.1286,-3.2457,-3.2856,-3.4,-3.6696,-3.7287,-3.8003,-3.9542,-3.9697,-3.9697,-3.9697,-3.9697,-3.9697,-3.9697,-3.9697,-3.9697,-3.9697,-3.9697,-3.9697,-3.9697,-3.9697,-3.9697,-3.9697,-3.9697,-3.9697,-3.9697,-3.9697,-3.9697,0.0,0.0,-1.9169,-1.873,-1.8467,-1.8287,-1.8165,-1.913,-2.0301,-2.1194,-2.2644,-2.39,-2.4334,-2.4531,-2.4453,-2.3887,-2.3906,-2.3809,0.0,-2.3335,-2.353,-2.353,-2.459,-2.541,-2.5703,-2.5469,-2.5723,-2.6738,-2.6152,0.0,-2.7187,-2.7226,-2.7226,-2.7226,-2.6461,-2.5648,-2.479,-2.3949,-2.3035,-2.1929,-2.1234,-2.0751,-2.055,-2.1618,-2.2384,-2.298,-2.5117,-2.6307,-2.6855,-2.7493,-2.7806,-2.791,-2.8184,-2.8301,-2.8301,-2.8301,-2.8301,-2.8301,-2.8301,-2.8379,-2.8652,-2.9512,-2.9785,-2.9922,-3.0664,-3.0898,-3.0898,-3.0898,-3.0898,-3.0898,-3.0898,-3.0898,-3.0898,-3.0898,-3.0898,-3.0898,-3.0898,-3.0898,-3.0898,-3.0898,-3.0898,-3.0898,-3.0898,-3.0898,-3.1054,-3.146,-3.2436,-3.381,-3.5695,-3.6834,-3.8084,-3.9517,-3.9697,-3.9697,-3.9697,-3.9697,-3.9697,-3.9697,-3.9697,-3.9697,-3.9697,-3.9697,-3.9697,-3.9697,-3.9697,-3.9697,-3.9697,-3.9697,-3.9697,-3.9697,-3.9697,-3.9697,-1.9272,-1.9272,0.0,-1.8877,-1.8628,-1.8394,-1.8057,-1.8883,-2.0022,-2.1057,-2.2322,-2.3613,-2.4647,-2.4746,-2.4512,-2.4082,-2.3887,-2.3633,0.0,-2.3101,-2.3101,-2.3101,-2.4004,-2.4656,-2.4656,-2.4656,-2.498,-2.5859,-2.5508,-2.5723,0.0,-2.6797,-2.6797,-2.6797,-2.6523,-2.601,-2.5139,-2.4808,-2.4146,-2.3035,-2.2383,-2.1844,-2.1489,-2.2584,-2.3085,-2.3203,-2.5256,-2.625,-2.6445,-2.7148,-2.7519,-2.7767,-2.8125,-2.8301,-2.8301,-2.8301,-2.8301,-2.8301,-2.8301,-2.8301,-2.8418,-2.9101,-2.9453,-2.9707,-3.043,-3.0762,-3.0898,-3.0898,-3.0898,-3.0898,-3.0898,-3.0898,-3.0898,-3.0898,-3.0898,-3.0898,-3.0898,-3.0898,-3.0898,-3.0898,-3.0898,-3.0898,-3.0898,-3.0898,-3.1054,-3.146,-3.2436,-3.381,-3.5695,-3.6834,-3.8084,-3.9517,-3.9697,-3.9697,-3.9697,-3.9697,-3.9697,-3.9697,-3.9697,-3.9697,-3.9697,-3.9697,-3.9697,-3.9697,-3.9697,-3.9697,-3.9697,-3.9697,-3.9697,-3.9697,-3.9697,-3.9697]}]]